     2              OBSERVATION DATA    GPS                 RINEX VERSION / TYPE
teqc 1997Jul24 19970814                                     PGM / RUN BY / DATE
                                                            COMMENT
Original Marker Name: GRAS                                  COMMENT
Campaign Name: HPGN 1991                                    COMMENT
4-Character Station Name: GRAS                              COMMENT
6-Character Antenna Code: TRMSST                            COMMENT
Vertical Measurement Point: BPA                             COMMENT
Vertical Offset to Rinex Ref. Point: 0.0000                 COMMENT
Radial Measurement Point: RRP                               COMMENT
Radial Offset to Rinex Ref. Point: 0.0000                   COMMENT
Antenna Height from Field Measurement: 2.2200 m             COMMENT
Original XYZ: -2656665.0890 -4525627.0829 3613525.4236      COMMENT
New XYZ position is based on association with SCEC monument COMMENT
E1E9E6M5+0011. Position of that monument is believed to be  COMMENT
valid to within 1 m horizontally; vertical accuracy         COMMENT
should be no worse than 3-times this value.                 COMMENT
                                                            COMMENT
Revised Rinex header created by UCSD GPS archive for        COMMENT
GSAC on 16-Apr-1999 (1999:106) 04:25:48 GMT                 COMMENT
For assistance contact dagnew@ucsd.edu or hjohnson@ucsd.edu COMMENT
                                                            COMMENT
GRASSY 1958                                                 MARKER NAME
unknown CALIF DEPT TRANSPORTATION                           OBSERVER / AGENCY
622 TRIMBLE 4000 SST NP 4.30 / SP 4.20                      REC # / TYPE / VERS
123 TR 4000SST L1/L2 GEO                                    ANT # / TYPE
 -2656668.0000 -4525635.0000  3613531.0000                  APPROX POSITION XYZ
        2.2200        0.0000        0.0000                  ANTENNA: DELTA H/E/N
     1     1     0                                          WAVELENGTH FACT L1/2
     3    C1    L1    L2                                    # / TYPES OF OBSERV
     0                                                      INTERVAL
  1991     4    30    19    24   45.000000                  TIME OF FIRST OBS
  1991     5     1     1    30    0.000000                  TIME OF LAST OBS
     0                                                      # OF SATELLITES
                                                            END OF HEADER
 91  4 30 19 24 45.0000000  0  4G18G 2G11G19
  20590345.8834         -0.47658        -0.14273
  23642739.6254         -0.95656        -0.42071
  23876137.3984         -0.79056        -0.23171
  20747803.523          -0.46417        -0.21732
 91  4 30 19 25  0.0000000  0  4G18G 2G11G19
  20594701.805       22887.541 8     17834.65823
  23634619.3594     -42679.50246    -33256.32461
  23870894.1564     -27551.25746    -21468.00461
  20748540.109        3851.359 7      3001.22722
 91  4 30 19 25 15.0000000  0  4G18G 2G11G19
  20599075.313       45869.732 8     35742.83723
  23626502.453      -85326.304 6    -66487.48821
  23865663.5784     -55027.44546    -42877.90261
  20749276.250        7733.437 7      6026.24722
 91  4 30 19 25 30.0000000  0  4G18G 2G11G19
  20603468.141       68952.268 8     53729.21123
  23618394.1644    -127935.10246    -99689.02461
  23860451.688      -82422.698 6    -64224.73721
  20750018.930       11651.990 7      9079.68822
 91  4 30 19 25 45.0000000  0  4G18G 2G11G19
  20607881.813       92143.552 8     71800.32123
  23610293.406     -170497.208 6   -132854.19921
  23855258.766     -109728.262 6    -85501.67821
  20750775.141       15615.323 7     12168.02022
 91  4 30 19 26  0.0000000  0  4G18G 2G11G19
  20612314.227      115440.749 8     89953.95723
  23602204.703     -213015.451 6   -165985.17721
  23850076.5234    -136946.68646   -106710.72561
  20751537.688       19620.482 7     15288.94022
 91  4 30 19 26 15.0000000  0  4G18G 2G11G19
  20616767.648      138844.632 8    108190.73423
  23594121.945     -255488.656 6   -199081.06721
  23844912.023     -164076.629 6   -127850.83821
  20752307.133       23668.476 7     18443.24122
 91  4 30 19 26 30.0000000  0  4G18G 2G11G19
  20621242.4924     162358.66748    126513.34663
  23586048.438     -297913.251 6   -232139.08021
  23839770.273     -191114.371 6   -148919.09621
  20753084.961       27762.495 7     21633.40722
 91  4 30 19 26 45.0000000  0  4G18G 2G11G19
  20625738.7974     185985.67548    144923.99463
  23577983.6804    -340286.00946   -265156.69461
  23834641.4454    -218056.58346   -169912.90261
  20753873.523       31905.501 7     24861.74222
 91  4 30 19 27  0.0000000  0  4G18G 2G11G19
  20630255.5704     209722.44348    163420.16463
  23569928.063     -382610.129 6   -298136.41321
  23829531.1804    -244906.05746   -190834.47661
  20754674.086       36094.249 7     28125.72322
 91  4 30 19 27 15.0000000  0  4G18G 2G11G19
  20634793.250      233572.496 8    182004.60723
  23561885.5864    -424882.19446   -331075.56261
  23824440.1334    -271659.17446   -211680.94161
  20755478.664       40331.948 7     31427.84322
 91  4 30 19 27 30.0000000  0  4G18G 2G11G19
  20639352.750      257531.318 8    200673.79223
  23553851.8914    -467106.10546   -363977.19661
  23819363.969     -298319.764 6   -232455.32021
  20756294.727       44614.669 7     34765.05222
 91  4 30 19 27 45.0000000  0  4G18G 2G11G19
  20643933.8444     281602.64848    219430.65963
  23545825.7114    -509277.86546   -396838.18361
  23814314.070     -324883.722 6   -253154.39521
  20757116.531       48945.901 7     38140.05622
 91  4 30 19 28  0.0000000  0  4G18G 2G11G19
  20648536.7894     305788.94848    238277.11963
  23537813.6884    -551394.87346   -429656.51661
  23809276.4304    -351348.31646   -273776.06961
  20757951.500       53328.049 7     41554.73222
 91  4 30 19 28 15.0000000  0  4G18G 2G11G19
  20653160.523      330089.704 8    257212.75823
  23529805.4144    -593457.45546   -462432.42861
  23804260.289     -377713.495 6   -294320.25121
  20758794.578       57760.675 7     45008.74722
 91  4 30 19 28 30.0000000  0  4G18G 2G11G19
  20657806.125      354500.859 8    276234.41623
  23521813.578     -635469.478 6   -495168.94121
  23799259.086     -403982.937 6   -314789.84621
  20759645.563       62239.592 7     48498.83322
 91  4 30 19 28 45.0000000  0  4G18G 2G11G19
  20662473.242      379024.643 8    295343.82923
  23513827.7114    -677428.60546   -527864.24361
  23794276.938     -430154.238 6   -335182.95721
  20760509.523       66767.001 7     52026.70422
 91  4 30 19 29  0.0000000  0  4G18G 2G11G19
  20667161.102      403659.199 8    314539.57323
  23505851.2814    -719336.46046   -560519.58661
  23789314.7194    -456228.73446   -355500.64361
  20761380.547       71340.937 7     55590.83022
 91  4 30 19 29 15.0000000  0  4G18G 2G11G19
  20671870.055      428405.109 8    333822.07823
  23497888.234     -761192.141 6   -593134.27221
  23784372.2034    -482205.33246   -375742.04861
  20762258.523       75962.161 7     59191.80322
 91  4 30 19 29 30.0000000  0  4G18G 2G11G19
  20676599.742      453260.654 8    353190.01423
  23489933.7974    -802997.39046   -625709.66561
  23779450.3134    -508085.47746   -395908.30661
  20763144.469       80628.927 7     62828.26122
 91  4 30 19 29 45.0000000  0  4G18G 2G11G19
  20681351.164      478229.700 8    372646.39423
  23481988.188     -844748.051 6   -658242.51521
  23774541.2194    -533864.89546   -415996.06661
  20764043.273       85345.080 7     66503.20922
 91  4 30 19 30  0.0000000  0  4G18G 2G11G19
  20686124.039      503313.081 8    392191.86423
  23474056.586     -886442.766 6   -690731.76721
  23769657.5784    -559542.19446   -436004.26161
  20764952.273       90111.613 7     70217.40722
 91  4 30 19 30 15.0000000  0  4G18G 2G11G19
  20690919.078      528510.065 8    411825.85523
  23466131.6174    -928082.34446   -723178.06761
  23764789.6564    -585117.94446   -455933.31961
  20765868.234       94927.596 7     73970.14322
 91  4 30 19 30 30.0000000  0  4G18G 2G11G19
  20695736.133      553819.612 8    431547.55823
  23458215.2664    -969667.36746   -755581.84861
  23759941.6954    -610592.44346   -475783.49261
  20766792.094       99792.299 7     77760.83722
 91  4 30 19 30 45.0000000  0  4G18G 2G11G19
  20700573.9844     579244.45348    451359.09463
  23450315.430    -1011195.168 6   -787941.04221
  23755115.914     -635962.971 6   -495552.63921
  20767728.938      104708.120 7     81591.36722
 91  4 30 19 31  0.0000000  0  4G18G 2G11G19
  20705431.586      604778.711 8    471255.89423
  23442422.617    -1052671.257 6   -820259.93921
  23750304.7974    -661234.73646   -515244.83161
  20768674.422      109669.370 7     85457.29422
 91  4 30 19 31 15.0000000  0  4G18G 2G11G19
  20710314.094      630427.113 8    491241.64223
  23434539.2194   -1094090.81646   -852534.79561
  23745515.7034    -686402.56046   -534856.02861
  20769626.234      114680.887 7     89362.39322
 91  4 30 19 31 30.0000000  0  4G18G 2G11G19
  20715214.695      656186.593 8    511313.94323
  23426669.4304   -1135456.80346   -884767.90061
  23740744.9384    -711469.28446   -554388.44561
  20770588.297      119739.340 7     93304.06022
 91  4 30 19 31 45.0000000  0  4G18G 2G11G19
  20720138.313      682058.830 8    531474.11323
  23418806.852    -1176767.305 6   -916957.77021
  23735993.453     -736432.881 6   -573840.51721
  20771560.805      124846.416 7     97283.61622
 91  4 30 19 32  0.0000000  0  4G18G 2G11G19
  20725083.1254     708044.10548    551722.36763
  23410955.8674   -1218021.54746   -949103.79861
  23731265.1884    -761292.40046   -593211.46961
  20772539.805      130002.750 7    101301.55722
 91  4 30 19 32 15.0000000  0  4G18G 2G11G19
  20730049.945      734142.040 8    572058.40723
  23403115.1254   -1259219.81046   -981206.21361
  23726554.5314    -786047.95146   -612501.42561
  20773531.258      135207.806 7    105357.46422
 91  4 30 19 32 30.0000000  0  4G18G 2G11G19
  20735037.484      760353.189 8    592482.65623
  23395287.063    -1300361.510 6  -1013264.55121
  23721861.6724    -810698.69046   -631709.70061
  20774530.734      140462.172 7    109451.79222
 91  4 30 19 32 45.0000000  0  4G18G 2G11G19
  20740046.102      786676.836 8    612994.56323
  23387468.516    -1341447.031 6  -1045279.11021
  23717190.180     -835244.830 6   -650836.47821
  20775539.602      145765.159 7    113584.00722
 91  4 30 19 33  0.0000000  0  4G18G 2G11G19
  20745077.055      813113.221 8    633594.32123
  23379658.0084   -1382475.88046  -1077249.51761
  23712540.3594    -859685.72746   -669881.24661
  20776558.891      151116.825 7    117754.16022
 91  4 30 19 33 15.0000000  0  5G18G 2G11G16G19
  20750130.086      839661.586 8    654281.33323
  23371866.539    -1423448.627 6  -1109176.19621
  23707911.9384    -884021.81846   -688844.34761
  24232679.8594     -26387.55545
  20777589.078      156516.508 7    121961.72322
 91  4 30 19 33 30.0000000  0  5G18G 2G11G16G19
  20755201.383      866321.810 8    675055.51123
  23364074.445    -1464365.181 6  -1141059.11321
  23703297.7194    -908252.77046   -707725.53061
  24227679.4844     -52659.41045
  20778623.570      161964.199 7    126206.69322
 91  4 30 19 33 45.0000000  0  5G18G 2G11G16G19
  20760298.031      893092.314 8    695915.62223
  23356300.4614   -1505226.88446  -1172899.26561
  23698706.477     -932379.756 6   -726525.69821
  24222702.3834     -78817.43345
  20779670.422      167458.442 7    130487.94322
 91  4 30 19 34  0.0000000  0  5G18G 2G11G16G19
  20765412.750      919976.247 8    716864.11523
  23348536.6644   -1546030.16646  -1204693.91461
  23694138.3754    -956399.00246   -745241.90261
  24217747.3444    -104858.30845
  20780723.555      173002.382 7    134807.91022
 91  4 30 19 34 15.0000000  0  5G18G 2G11G16G19
  20770549.523      946971.499 8    737899.36123
  23340782.3284   -1586777.14246  -1236444.68961
  23689583.813     -980312.472 6   -763875.69821
  24212812.625     -130783.849 5        -0.30431
  20781789.648      178593.563 7    139164.69222
 91  4 30 19 34 30.0000000  0  5G18G 2G11G16G19
  20775708.273      974077.231 8    759020.69223
  23333037.5474   -1627468.59646  -1268152.19561
  23685052.227    -1004120.675 6   -782427.46821
  24207901.148     -156594.568 5    -20112.54921
  20782860.164      184231.317 7    143557.76622
 91  4 30 19 34 45.0000000  0  5G18G 2G11G16G19
  20780887.141     1001292.818 8    780227.61623
  23325307.5864   -1668104.61246  -1299816.50661
  23680545.055    -1027823.647 6   -800897.23021
  24203015.391     -182290.874 5    -40135.64521
  20783942.531      189915.380 7    147986.92222
 91  4 30 19 35  0.0000000  0  5G18G 2G11G16G19
  20786087.797     1028621.864 8    801522.94923
  23317584.086    -1708681.388 6  -1331434.65221
  23676056.672    -1051417.438 6   -819281.92121
  24198144.6094    -207868.84745    -60066.52061
  20785033.180      195649.402 7    152455.00822
 91  4 30 19 35 15.0000000  0  5G18G 2G11G16G19
  20791309.2814    1056062.38248    822905.14163
  23309876.945    -1749200.874 6  -1363008.16621
  23671584.227    -1074903.851 6   -837582.93421
  24193304.164     -233330.467 5    -79906.75721
  20786134.266      201431.196 7    156960.31922
 91  4 30 19 35 30.0000000  0  5G18G 2G11G16G19
  20796552.2194    1083615.19948    844374.83663
  23302174.000    -1789661.927 6  -1394536.14821
  23667136.242    -1098281.473 6   -855799.19121
  24188478.8134    -258674.46445    -99655.30161
  20787243.609      207261.730 7    161503.60622
 91  4 30 19 35 45.0000000  0  5G18G 2G11G16G19
  20801816.594     1111279.137 8    865931.12623
  23294486.164    -1830065.263 6  -1426019.15521
  23662706.953    -1121550.839 6   -873931.07621
  24183675.672     -283901.414 5   -119312.64821
  20788362.547      213139.879 7    166083.99622
 91  4 30 19 36  0.0000000  0  5G18G 2G11G16G19
  20807102.602     1139056.312 8    887575.65923
  23286810.555    -1870409.003 6  -1457455.72521
  23658299.2194   -1144709.78346   -891976.91661
  24178899.242     -309009.259 5   -138877.20321
  20789490.242      219067.586 7    170703.00322
 91  4 30 19 36 15.0000000  0  5G18G 2G11G16G19
  20812410.328     1166945.610 8    909307.55523
  23279142.875    -1910693.966 6  -1488846.51521
  23653912.6414   -1167759.19146   -909937.43261
  24174144.602     -333998.799 5   -158349.58321
  20790628.1954     225043.55247    175359.59862
 91  4 30 19 36 30.0000000  0  5G18G 2G11G16G19
  20817738.375     1194945.120 8    931125.33123
  23271487.180    -1950921.555 6  -1520192.57521
  23649546.914    -1190700.142 6   -927813.41921
  24169413.008     -358871.447 5   -177730.86521
  20791770.813      231066.404 7    180052.74222
 91  4 30 19 36 45.0000000  0  5G18G 2G11G16G19
  20823088.3444    1223058.62548    953031.92663
  23263843.273    -1991088.248 6  -1551491.18921
  23645207.688    -1213528.766 6   -945601.88421
  24164703.4454    -383623.78745   -197018.39961
  20792929.719      237139.565 7    184785.08622
 91  4 30 19 37  0.0000000  0  5G18G 2G11G16G19
  20828458.3444    1251286.26448    975027.45263
  23256213.039    -2031193.206 6  -1582741.69121
  23640884.422    -1236244.113 6   -963302.08121
  24160015.7344    -408254.81445   -216211.37861
  20794094.594      243263.645 7    189557.11022
 91  4 30 19 37 15.0000000  0  5G18G 2G11G16G19
  20833852.7114    1279626.93648    997111.06663
  23248593.977    -2071237.450 6  -1613944.88021
  23636582.406    -1258847.066 6   -980914.69321
  24155352.9844    -432765.29645   -235310.44661
  20795270.625      249437.495 7    194367.91522
 91  4 30 19 37 30.0000000  0  5G18G 2G11G16G19
  20839266.633     1308079.774 8   1019282.09223
  23240982.039    -2111221.604 6  -1645101.25821
  23632301.8444   -1281338.16846   -998440.15261
  24150710.391     -457156.070 5   -254316.25121
  20796455.969      255660.265 7    199216.83922
 91  4 30 19 37 45.0000000  0  5G18G 2G11G16G19
  20844703.742     1336647.472 8   1041542.61523
  23233385.5234   -2151142.95146  -1676208.68461
  23628044.4534   -1303714.58446  -1015876.24061
  24146090.3054    -481424.51845   -273226.71461
  20797647.273      261934.390 7    204105.78022
 91  4 30 19 38  0.0000000  0  5G18G 2G11G16G19
  20850160.3284    1365325.76248   1063889.30763
  23225802.961    -2191005.254 6  -1707270.11221
  23623809.695    -1325979.930 6  -1033225.78121
  24141492.6564    -505574.19245   -292044.62961
  20798849.6954     268255.90047    209031.64162
 91  4 30 19 38 15.0000000  0  5G18G 2G11G16G19
  20855639.9064    1394119.75748   1086326.15063
  23218229.766    -2230803.101 6  -1738281.31121
  23619590.828    -1348128.406 6  -1050484.26421
  24136924.8204    -529599.42345   -310765.58861
  20800063.367      274630.122 7    213998.57822
 91  4 30 19 38 30.0000000  0  5G18G 2G11G16G19
  20861139.4844    1423022.67848   1108847.86763
  23210664.969    -2270543.134 6  -1769247.45521
  23615397.9224   -1370166.53546  -1067656.75761
  24132374.3834    -553507.05145   -329394.88061
  20801286.4224     281050.21847    219001.26062
 91  4 30 19 38 45.0000000  0  5G18G 2G11G16G19
  20866661.4534    1452037.94748   1131457.13063
  23203116.4774   -2310222.06846  -1800165.99661
  23611229.953    -1392090.853 6  -1084740.56821
  24127848.2974    -577293.74945   -347929.96761
  20802515.977      287519.254 7    224042.08022
 91  4 30 19 39  0.0000000  0  5G18G 2G11G16G19
  20872202.5084    1481159.02548   1154148.84563
  23195573.328    -2349845.759 6  -1831041.48321
  23607074.383    -1413907.198 6  -1101740.24321
  24123344.7114    -600965.22745   -366375.25361
  20803752.6334     294031.15247    229116.29962
 91  4 30 19 39 15.0000000  0  5G18G 2G11G16G19
  20877765.922     1510390.359 8   1176926.48523
  23188045.922    -2389409.536 6  -1861870.29021
  23602945.898    -1435610.648 6  -1118651.95421
  24118858.8284    -624516.77945   -384727.11161
  20805004.8674     300590.45547    234227.45262
 91  4 30 19 39 30.0000000  0  5G18G 2G11G16G19
  20883347.7424    1539727.82648   1199786.82063
  23180529.297    -2428917.377 6  -1892655.50221
  23598835.0004   -1457205.06246  -1135478.70261
  24114404.3754    -647952.52145   -402988.73661
  20806261.367      307192.841 7    239372.17822
 91  4 30 19 39 45.0000000  0  5G18G 2G11G16G19
  20888953.4774    1569179.03148   1222735.78363
  23173022.813    -2468361.719 6  -1923391.24321
  23594748.203    -1478682.618 6  -1152214.39121
  24109966.180     -671264.772 5   -421154.08721
  20807525.7034     313845.92547    244556.40862
 91  4 30 19 40  0.0000000  0  5G18G 2G11G16G19
  20894577.8134    1598740.52148   1245770.67863
  23165527.633    -2507745.428 6  -1954079.74321
  23590682.180    -1500046.075 6  -1168861.15521
  24105554.8134    -694456.28445   -439225.39661
  20808800.695      320546.656 7    249777.76822
 91  4 30 19 40 15.0000000  0  5G18G 2G11G16G19
  20900225.4454    1628416.86848   1268895.07463
  23158047.656    -2547063.847 6  -1984717.35921
  23586641.4304   -1521290.57146  -1185415.25161
  24101165.3834    -717522.25445   -457198.87661
  20810086.508      327299.478 7    255039.71822
 91  4 30 19 40 30.0000000  0  5G18G 2G11G16G19
  20905893.867     1658208.462 8   1292109.27923
  23150576.367    -2586316.463 6  -2015303.70121
  23582620.414    -1542415.317 6  -1201876.02121
  24096795.586     -740462.069 5   -475074.03821
  20811382.5234     334104.83347    260342.60262
 91  4 30 19 40 45.0000000  0  5G18G 2G11G16G19
  20911584.9384    1688113.35748   1315411.76163
  23143117.6334   -2625504.99946  -2045840.10861
  23578622.9774   -1563421.88546  -1218244.70261
  24092455.852     -763277.556 5   -492852.31221
  20812685.742      340960.669 7    265684.82322
 91  4 30 19 41  0.0000000  0  5G18G 2G11G16G19
  20917297.4614    1718130.13648   1338801.42863
  23135671.422    -2664630.619 6  -2076327.49721
  23574648.016    -1584311.364 6  -1234522.14121
  24088137.672     -785969.920 5   -510534.67821
  20813997.234      347865.660 7    271065.35022
 91  4 30 19 41 15.0000000  0  5G18G 2G11G16G19
  20923031.6564    1748258.19548   1362277.81463
  23128238.500    -2703693.804 6  -2106766.22621
  23570695.984    -1605084.027 6  -1250708.55321
  24083842.836     -808539.421 5   -528121.28821
  20815323.289      354819.288 7    276483.77222
 91  4 30 19 41 30.0000000  0  5G18G 2G11G16G19
  20928784.695     1778498.562 8   1385841.70623
  23120816.492    -2742692.879 6  -2137155.01421
  23566764.742    -1625738.067 6  -1266802.53421
  24079570.766     -830984.480 5   -545610.90921
  20816656.477      361822.900 7    281941.14122
 91  4 30 19 41 45.0000000  0  5G18G 2G11G16G19
  20934560.523     1808851.276 8   1409493.14923
  23113407.383    -2781627.670 6  -2167493.70421
  23562859.3524   -1646273.04046  -1282803.73861
  24075324.5704    -853304.77145   -563003.34461
  20817998.375      368876.585 7    287437.53422
 91  4 30 19 42  0.0000000  0  5G18G 2G11G16G19
  20940357.8524    1839317.38348   1433232.93763
  23106012.633    -2820497.069 6  -2197781.44021
  23558968.305    -1666687.664 6  -1298711.15921
  24071102.7114    -875499.10645   -580297.60761
  20819348.813      375981.384 7    292973.75322
 91  4 30 19 42 15.0000000  0  5G18G 2G11G16G19
  20946178.0084    1869896.19048   1457060.54763
  23098628.273    -2859301.476 6  -2228018.53421
  23555109.789    -1686982.292 6  -1314525.08121
  24066898.367     -897567.816 5   -597493.99521
  20820712.586      383136.498 7    298549.17722
 91  4 30 19 42 30.0000000  0  5G18G 2G11G16G19
  20952018.6644    1900589.29948   1480977.22563
  23091255.625    -2898038.983 6  -2258203.48921
  23551273.055    -1707154.752 6  -1330243.80021
  24062729.742     -919508.892 5   -614590.89721
  20822082.711      390343.853 7    304165.31322
 91  4 30 19 42 45.0000000  0  5G18G 2G11G16G19
  20957879.8134    1931391.41548   1504978.84463
  23083892.828    -2936714.971 6  -2288340.51321
  23547452.6724   -1727210.21246  -1345871.35961
  24058575.078     -941327.993 5   -631592.80221
  20823463.305      397598.002 7    309817.91022
 91  4 30 19 43  0.0000000  0  5G18G 2G11G16G19
  20963761.5164    1962301.15748   1529064.32063
  23076548.508    -2975330.325 6  -2318430.29321
  23543660.6954   -1747149.61946  -1361408.47661
  24054443.594     -963025.918 5   -648500.23621
  20824852.109      404897.788 7    315506.07222
 91  4 30 19 43 15.0000000  0  5G18G 2G11G16G19
  20969664.0554    1993320.76248   1553235.40863
  23069211.8674   -3013882.65746  -2348470.96761
  23539889.289    -1766970.217 6  -1376853.01521
  24050339.8674    -984600.07545   -665311.25461
  20826251.023      412245.342 7    321231.45322
 91  4 30 19 43 30.0000000  0  5G18G 2G11G16G19
  20975588.8054    2024449.76548   1577491.74063
  23061886.477    -3052371.974 6  -2378462.52921
  23536137.195    -1786671.929 6  -1392204.92821
  24046258.7504   -1006050.56945   -682025.89761
  20827658.656      419640.499 7    326993.92622
 91  4 30 19 43 45.0000000  0  5G18G 2G11G16G19
  20981532.7034    2055687.52348   1601832.81463
  23054572.695    -3090798.945 6  -2408405.52221
  23532412.813    -1806255.421 6  -1407464.70421
  24042200.133    -1027377.963 5   -698644.60721
  20829074.641      427082.260 7    332792.71722
 91  4 30 19 44  0.0000000  0  5G18G 2G11G16G19
  20987497.5704    2087035.60448   1626259.86263
  23047275.203    -3129161.736 6  -2438298.49621
  23528708.6484   -1825718.53446  -1422630.68461
  24038164.0704   -1048580.42345   -715166.01961
  20830498.578      434572.490 7    338629.27722
 91  4 30 19 44 15.0000000  0  5G18G 2G11G16G19
  20993483.4614    2118490.92748   1650770.46663
  23039985.945    -3167462.929 6  -2468143.47521
  23525027.266    -1845063.582 6  -1437704.66821
  24034153.570    -1069660.659 5   -731592.15321
  20831934.969      442108.677 7    344501.64722
 91  4 30 19 44 30.0000000  0  5G18G 2G11G16G19
  20999490.1804    2150052.40248   1675363.79163
  23032707.320    -3205703.491 6  -2497941.20721
  23521367.820    -1864291.407 6  -1452687.31321
  24030161.633    -1090619.627 5   -747923.78821
  20833375.172      449689.456 7    350408.76222
 91  4 30 19 44 45.0000000  0  5G18G 2G11G16G19
  21005517.3444    2181726.14648   1700044.60063
  23025444.852    -3243877.284 6  -2527686.90921
  23517733.773    -1883395.727 6  -1467573.71921
  24026203.086    -1111450.532 5   -764155.64321
  20834828.289      457320.897 7    356355.35722
 91  4 30 19 45  0.0000000  0  5G18G 2G11G16G19
  21011565.9064    2213510.30248   1724811.43963
  23018191.430    -3281985.811 6  -2557381.76621
  23514119.398    -1902377.949 6  -1482364.98321
  24022260.8594   -1132155.19445   -780289.12461
  20836287.766      465001.396 7    362340.17122
 91  4 30 19 45 15.0000000  0  5G18G 2G11G16G19
  21017633.914     2245403.051 8   1749662.90323
  23010953.6024   -3320030.71846  -2587027.04461
  23510529.7974   -1921239.60846  -1497062.30061
  24018344.500    -1152735.136 5   -796325.43621
  20837760.109      472728.970 7    368361.67722
 91  4 30 19 45 30.0000000  0  5G18G 2G11G16G19
  21023725.3054    2277404.23848   1774598.86663
  23003724.422    -3358011.796 6  -2616622.58421
  23506968.1094   -1939980.36546  -1511665.42261
  24014449.1414   -1173190.46645   -812264.60061
  20839238.898      480503.603 7    374419.84822
 91  4 30 19 45 45.0000000  0  5G18G 2G11G16G19
  21029834.6564    2309516.54248   1799621.41263
  22996508.1484   -3395926.06246  -2646166.06961
  23503425.7194   -1958597.02646  -1526171.83661
  24010582.7274   -1193517.95145   -828104.19561
  20840729.719      488328.253 7    380516.99122
 91  4 30 19 46  0.0000000  0  5G18G 2G11G16G19
  21035966.4144    2341736.91148   1824728.15563
  22989308.477    -3433776.323 6  -2675659.67521
  23499900.922    -1977092.290 6  -1540583.66421
  24006739.633    -1213720.591 5   -843846.47921
  20842224.914      496199.899 7    386650.75622
 91  4 30 19 46 15.0000000  0  6G18G 2G11G16G19G 6
  21042117.9774    2374065.82148   1849919.47563
  22982117.375    -3471561.896 6  -2705102.87521
  23496405.3444   -1995465.21446  -1554900.16461
  24002917.3984   -1233797.51945   -859490.81961
  20843735.250      504119.101 7    392821.57522
  24455706.109          -0.62514
 91  4 30 19 46 30.0000000  0  6G18G 2G11G16G19G 6
  21048290.5394    2406502.67948   1875194.91763
  22974937.977    -3509283.146 6  -2734495.95821
  23492932.2664   -2013716.06646  -1569121.53661
  23999122.5234   -1253749.12845   -875037.50561
  20845248.086      512085.463 7    399029.14122
  24450266.672      -28590.573 4
 91  4 30 19 46 45.0000000  0  6G18G 2G11G16G19G 6
  21054484.4614    2439047.74948   1900554.66963
  22967773.3674   -3546939.83446  -2763838.73561
  23489481.6094   -2031844.23146  -1583247.31461
  23995347.094    -1273575.246 5   -890486.41421
  20846774.445      520099.038 7    405273.50122
  24444830.1174     -57157.85544        -0.46771
 91  4 30 19 47  0.0000000  0  6G18G 2G11G16G19G 6
  21060697.586     2471702.857 8   1926000.16223
  22960619.031    -3584529.748 6  -2793129.47421
  23486060.016    -2049847.555 6  -1597275.80921
  23991602.336    -1293273.166 5   -905835.42021
  20848307.039      528161.779 7    411556.16922
  24439394.805      -85700.493 3    -22241.39521
 91  4 30 19 47 15.0000000  0  6G18G 2G11G16G19G 6
  21066934.0864    2504470.38248   1951533.25963
  22953477.313    -3622050.051 6  -2822365.97221
  23482657.5394   -2067723.11346  -1611204.75361
  23987876.859    -1312840.250 5   -921082.45721
  20849854.156      536276.401 7    417879.26422
  24433969.5084    -114215.88444    -44461.05261
 91  4 30 19 47 30.0000000  0  6G18G 2G11G16G19G 6
  21073189.234     2537350.085 8   1977153.78423
  22946352.508    -3659500.918 6  -2851548.36421
  23479280.375    -2085470.714 6  -1625033.99221
  23984178.203    -1332276.581 5   -936227.63321
  20851405.7504     544442.73647    424242.65262
  24428548.4224    -142704.22043    -66659.65861
 91  4 30 19 47 45.0000000  0  6G18G 2G11G16G19G 6
  21079468.031     2570339.599 8   2002859.87323
  22939237.8594   -3696884.43846  -2880678.28461
  23475924.2034   -2103092.45246  -1638765.15661
  23980507.953    -1351584.357 5   -951272.61521
  20852970.6954     552658.50947    430644.56262
  24423131.758     -171167.935 3    -88839.11421
 91  4 30 19 48  0.0000000  0  6G18G 2G11G16G19G 6
  21085767.8204    2603439.94248   2028652.31363
  22932136.102    -3734199.310 6  -2909754.70921
  23472597.5084   -2120586.98846  -1652397.19461
  23976854.7114   -1370762.39045   -966216.51461
  20854544.3524     560924.69447    437085.75662
  24417723.1414    -199605.96544   -110998.51561
 91  4 30 19 48 15.0000000  0  6G18G 2G11G16G19G 6
  21092085.8914    2636648.91548   2054529.39763
  22925050.3134   -3771447.50346  -2938779.16961
  23469294.5474   -2137955.91546  -1665931.36161
  23973229.4924   -1389812.50945   -981060.73961
  20856126.6174     569239.20647    443564.60462
  24412315.281     -228020.528 4   -133139.62421
 91  4 30 19 48 30.0000000  0  6G18G 2G11G16G19G 6
  21098427.6724    2669969.75548   2080493.65863
  22917975.3834   -3808625.53646  -2967748.96761
  23466007.773    -2155195.636 6  -1679364.86121
  23969632.1884   -1408731.06245   -995802.43361
  20857716.914      577605.392 7    450083.72322
  24406912.305     -256408.415 4   -155259.96121
 91  4 30 19 48 45.0000000  0  6G18G 2G11G16G19G 6
  21104790.344     2703404.381 8   2106546.56923
  22910912.813    -3845731.297 6  -2996662.44321
  23462756.906    -2172303.942 6  -1692695.95621
  23966056.242    -1427516.089 5  -1010440.09021
  20859319.0394     586025.34747    456644.73562
  24401514.5634    -284767.45344   -177357.84061
 91  4 30 19 49  0.0000000  0  6G18G 2G11G16G19G 6
  21111173.117     2736948.332 8   2132684.65623
  22903865.805    -3882768.892 6  -3025522.80621
  23459523.570    -2189284.788 6  -1705927.73221
  23962503.8674   -1446171.33645  -1024976.61661
  20860929.2894     594494.71547    463244.24962
  24396123.3914    -313102.09844   -199436.69661
 91  4 30 19 49 15.0000000  0  6G18G 2G11G16G19G 6
  21117576.281     2770598.265 8   2158905.34323
  22896830.2274   -3919741.66846  -3054332.66661
  23456315.9454   -2206141.38946  -1719062.68661
  23958977.141    -1464700.405 5  -1039414.83021
  20862553.320      603010.056 7    469879.59122
  24390734.9844    -341415.77444   -221499.22561
 91  4 30 19 49 30.0000000  0  6G18G 2G11G16G19G 6
  21124000.2034    2804359.43048   2185212.70463
  22889807.328    -3956643.772 6  -3083087.45121
  23453132.1724   -2222867.87446  -1732096.26261
  23955481.3674   -1483097.29645  -1053750.02361
  20864181.508      611576.854 7    476555.03222
  24385353.2194    -369703.15744   -243541.25861
 91  4 30 19 49 45.0000000  0  6G18G 2G11G16G19G 6
  21130446.0944    2838226.87948   2211602.88363
  22882796.891    -3993480.225 6  -3111791.07821
  23449972.7814   -2239468.83146  -1745032.00961
  23952003.8284   -1501366.96545  -1067986.10861
  20865820.9304     620190.22847    483266.75962
  24379974.2274    -397969.11644   -265566.61161
 91  4 30 19 50  0.0000000  0  6G18G 2G11G16G19G 6
  21136910.664     2872202.206 8   2238077.11623
  22875800.422    -4030248.900 6  -3140441.89221
  23446840.9304   -2255942.10246  -1757868.27761
  23948549.9224   -1519507.49945  -1082121.57561
  20867471.7344     628852.15047    490016.31662
  24374598.3054    -426211.72144   -287573.72961
 91  4 30 19 50 15.0000000  0  6G18G 2G11G16G19G 6
  21143397.0314    2906286.26648   2264636.06763
  22868816.0234   -4066948.63346  -3169038.99061
  23443726.164    -2272286.522 6  -1770604.13821
  23945121.125    -1537517.847 5  -1096155.57921
  20869128.1174     637563.68647    496804.53662
  24369231.047     -454430.250 4   -309562.13021
 91  4 30 19 50 30.0000000  0  6G18G 2G11G16G19G 6
  21149903.2344    2940478.40148   2291279.23063
  22861846.992    -4103580.027 6  -3197582.83821
  23440640.906    -2288502.481 6  -1783239.89521
  23941719.180    -1555398.615 5  -1110088.59921
  20870792.2274     646323.89147    503630.67662
  24363862.078     -482625.460 4   -331532.38221
 91  4 30 19 50 45.0000000  0  6G18G 2G11G16G19G 6
  21156429.828     2974774.357 8   2318003.29323
  22854888.883    -4140147.143 6  -3226076.58921
  23437581.031    -2304593.889 6  -1795778.60421
  23938340.266    -1573153.315 5  -1123923.40721
  20872470.7894     655128.64947    510491.53162
  24358501.6884    -510801.45244   -353487.59861
 91  4 30 19 51  0.0000000  0  6G18G 2G11G16G19G 6
  21162975.680     3009178.760 8   2344811.86723
  22847940.102    -4176644.991 6  -3254516.37021
  23434545.492    -2320555.475 6  -1808216.15921
  23934987.4614   -1590777.70345  -1137656.66661
  20874155.7034     663982.97747    517391.01562
  24353145.453     -538953.538 4   -375424.20621
 91  4 30 19 51 15.0000000  0  6G18G 2G11G16G19G 6
  21169544.570     3043688.137 8   2371702.24123
  22841010.1564   -4213076.64346  -3282904.56961
  23431529.6334   -2336390.21746  -1820554.86661
  23931655.5084   -1608274.30845  -1151290.36161
  20875849.0554     672883.38647    524326.40462
  24347790.0704    -567084.96844   -397344.72961
 91  4 30 19 51 30.0000000  0  6G18G 2G11G16G19G 6
  21176131.4304    3078311.45848   2398681.41663
  22834090.961    -4249433.294 6  -3311234.32421
  23428543.461    -2352089.068 6  -1832787.69621
  23928353.047    -1625634.426 5  -1164817.70121
  20877550.5704     681838.56047    531304.47362
  24342443.289     -595187.008 4   -419242.37521
 91  4 30 19 51 45.0000000  0  6G18G 2G11G16G19G 6
  21182742.4384    3113041.98048   2425744.12063
  22827185.7344   -4285721.40746  -3339510.68061
  23425578.133    -2367658.456 6  -1844919.62421
  23925074.8054   -1642864.57245  -1178243.74461
  20879266.9614     690841.86847    538320.04362
  24337101.523     -623266.373 4   -441122.30621
 91  4 30 19 52  0.0000000  0  6G18G 2G11G16G19G 6
  21189370.828     3147881.217 8   2452891.53723
  22820294.3204   -4321938.87246  -3367731.97761
  23422640.430    -2383096.332 6  -1856949.08621
  23921819.6334   -1659962.49345  -1191566.78261
  20880990.0784     699895.46847    545374.80262
  24331762.063     -651321.241 4   -462983.15921
 91  4 30 19 52 15.0000000  0  6G18G 2G11G16G19G 6
  21196022.133     3182828.237 8   2480122.93023
  22813414.0164   -4358086.53246  -3395898.88761
  23419729.602    -2398403.284 6  -1868876.53921
  23918594.227    -1676929.109 5  -1204787.48421
  20882721.5474     708998.38447    552467.99162
  24326428.766     -679352.569 4   -484825.67621
 91  4 30 19 52 30.0000000  0  6G18G 2G11G16G19G 6
  21202692.9224    3217883.73948   2507438.87063
  22806549.8754   -4394163.65746  -3424010.82761
  23416840.5944   -2413578.45546  -1880701.30161
  23915388.008    -1693763.552 5  -1217905.21721
  20884464.7504     718151.28447    559600.12762
  24321098.5704    -707359.79644   -506649.40961
 91  4 30 19 52 45.0000000  0  6G18G 2G11G16G19G 6
  21209381.836     3253044.894 7   2534837.12123
  22799696.320    -4430172.818 6  -3452069.80821
  23413978.9694   -2428624.15046  -1892425.16561
  23912213.1724   -1710468.60745  -1230922.11261
  20886213.992      727351.380 7    566769.03922
  24315773.648     -735345.674 4   -528456.52221
 91  4 30 19 53  0.0000000  0  6G18G 2G11G16G19G 6
  21216094.9534    3288310.46648   2562316.72163
  22792856.922    -4466114.636 6  -3480076.32121
  23411140.359    -2443540.878 6  -1904048.53821
  23909057.008    -1727044.795 5  -1243838.59021
  20887975.5554     736597.84947    573974.08562
  24310451.289     -763311.106 4   -550247.67721
 91  4 30 19 53 15.0000000  0  6G18G 2G11G16G19G 6
  21222824.656     3323681.940 8   2589878.84823
  22786030.648    -4501987.617 6  -3508029.18621
  23408325.969    -2458327.002 6  -1915570.14021
  23905927.102    -1743490.308 5  -1256653.24821
  20889742.9534     745892.23047    581216.46562
  24305128.359     -791254.712 4   -572021.83921
 91  4 30 19 53 30.0000000  0  6G18G 2G11G16G19G 6
  21229575.719     3359157.676 8   2617522.23623
  22779218.0704   -4537793.14746  -3535929.50261
  23405537.375    -2472983.759 6  -1926990.94821
  23902818.4144   -1759806.60145  -1269367.23361
  20891517.4774     755232.88747    588494.90062
  24299820.3834    -819178.01144   -593780.18361
 91  4 30 19 53 45.0000000  0  6G18G 2G11G16G19G 6
  21236346.656     3394740.502 8   2645249.07023
  22772416.516    -4573528.083 6  -3563774.80121
  23402773.2894   -2487507.91146  -1938308.41361
  23899739.7504   -1775990.80645  -1281978.26661
  20893307.1724     764622.67547    595811.62462
  24294510.0554    -847078.14344   -615520.46161
 91  4 30 19 54  0.0000000  0  6G18G 2G11G16G19G 6
  21243139.6174    3430427.53848   2673057.11463
  22765629.992    -4609194.905 6  -3591567.03021
  23400032.7344   -2501901.91646  -1949524.47061
  23896682.3984   -1792045.39145  -1294488.32861
  20895102.1954     774059.10547    603164.69062
  24289204.648     -874957.898 4   -637244.87321
 91  4 30 19 54 15.0000000  0  6G18G 2G11G16G19G 6
  21249949.977     3466221.753 8   2700948.66123
  22758854.9924   -4644790.57246  -3619303.81261
  23397321.367    -2516162.455 6  -1960636.53221
  23893656.297    -1807966.913 5  -1306894.67621
  20896906.0084     783545.12047    610556.39062
  24283901.1644    -902814.10244   -658950.91861
 91  4 30 19 54 30.0000000  0  6G18G 2G11G16G19G 6
  21256781.5704    3502123.82548   2728924.23963
  22752094.953    -4680314.137 6  -3646984.40721
  23394631.328    -2530288.540 6  -1971643.81721
  23890654.141    -1823754.812 5  -1319196.92221
  20898719.8754     793081.60947    617987.42362
  24278605.773     -930646.155 4   -680638.17021
 91  4 30 19 54 45.0000000  0  6G18G 2G11G16G19G 6
  21263634.2504    3538131.77948   2756982.32363
  22745348.867    -4715767.412 6  -3674610.23421
  23391966.867    -2544281.803 6  -1982547.60621
  23887672.5634   -1839410.83645  -1331396.38861
  20900546.9384     802666.63047    625456.27562
  24273318.461     -958456.001 4   -702308.08921
 91  4 30 19 55  0.0000000  0  6G18G 2G11G16G19G 6
  21270506.141     3574246.632 8   2785123.70723
  22738614.383    -4751148.843 6  -3702180.07821
  23389330.781    -2558140.637 6  -1993346.65121
  23884720.766    -1854933.517 5  -1343491.97921
  20902380.4844     812301.49547    632963.96562
  24268028.273     -986242.461 4   -723959.80121
 91  4 30 19 55 15.0000000  0  6G18G 2G11G16G19G 6
  21277400.3754    3610470.57448   2813350.12363
  22731900.102    -4786456.089 6  -3729692.11221
  23386719.898    -2571862.634 6  -2004039.06721
  23881793.563    -1870320.570 5  -1355481.86421
  20904222.8914     821988.43247    640512.23463
  24262744.1804   -1014003.35744   -745591.59361
 91  4 30 19 55 30.0000000  0  6G18G 2G11G16G19G 6
  21284314.1804    3646800.97748   2841659.49863
  22725193.000    -4821691.489 6  -3757148.16921
  23384136.211    -2585449.833 6  -2014626.45321
  23878889.8754   -1885573.89045  -1367367.53261
  20906073.6484     831725.11447    648099.26062
  24257464.383    -1041740.996 4   -767205.25421
 91  4 30 19 55 45.0000000  0  6G18G 2G11G16G19G 6
  21291247.2424    3683236.59848   2870050.84363
  22718501.6334   -4856856.21146  -3784549.14961
  23381575.023    -2598903.334 6  -2025109.64521
  23876013.781    -1900694.868 5  -1379150.10821
  20907937.5004     841510.07547    655723.90562
  24252191.2034   -1069456.85044   -788801.94561
 91  4 30 19 56  0.0000000  0  6G18G 2G11G16G19G 6
  21298200.3914    3719774.61348   2898521.99263
  22711823.195    -4891952.929 6  -3811897.14121
  23379039.563    -2612225.668 6  -2035490.63521
  23873159.8984   -1915686.22445  -1390831.65861
  20909807.7424     851340.59947    663384.06162
  24246925.313    -1097153.715 4   -810383.80921
 91  4 30 19 56 15.0000000  0  6G18G 2G11G16G19G 6
  21305171.844     3756412.406 8   2927070.88423
  22705155.750    -4926983.830 6  -3839193.84421
  23376528.906    -2625418.843 6  -2045770.98421
  23870330.2194   -1930550.00345  -1402413.82161
  20911687.6884     861214.39347    671077.93262
  24241653.8674   -1124833.89544   -831952.74561
 91  4 30 19 56 30.0000000  0  6G18G 2G11G16G19G 6
  21312164.930     3793156.808 7   2955702.84123
  22698504.836    -4961941.724 6  -3866433.66021
  23374042.906    -2638475.643 6  -2055945.05721
  23867525.7194   -1945279.27345  -1413891.14461
  20913573.6174     871138.56847    678811.05962
  24236388.953    -1152490.554 4   -853503.31921
 91  4 30 19 56 45.0000000  0  6G18G 2G11G16G19G 6
  21319176.102     3830005.846 7   2984416.33023
  22691865.648    -4996828.340 6  -3893617.93121
  23371585.820    -2651397.693 6  -2066014.14021
  23864748.797    -1959875.540 5  -1425264.85021
  20915472.9534     881111.31447    686582.03162
  24231131.7894   -1180125.55244   -875036.99061
 91  4 30 19 57  0.0000000  0  6G18G 2G11G16G19G 6
  21326208.805     3866957.321 7   3013209.62923
  22685239.2974   -5031645.69046  -3920748.23761
  23369151.000    -2664186.893 6  -2075979.69521
  23861994.805    -1974341.046 5  -1436536.65421
  20917378.1804     891130.48847    694389.18562
  24225876.9614   -1207741.11744   -896555.52261
 91  4 30 19 57 15.0000000  0  6G18G 2G11G16G19G 6
  21333258.6334    3904012.58247   3042083.82463
  22678627.7584   -5066392.20846  -3947823.34661
  23366744.930    -2676841.534 6  -2085840.39621
  23859270.086    -1988674.301 5  -1447705.40921
  20919295.9534     901197.42747    702233.56662
  24220625.6564   -1235335.81345   -918057.79561
 91  4 30 19 57 30.0000000  0  6G18G 2G11G16G19G 6
  21340330.703     3941171.510 7   3071038.82523
  22672029.2344   -5101067.60446  -3974843.03261
  23364358.695    -2689361.188 6  -2095595.92321
  23856568.0234   -2002875.00545  -1458770.87161
  20921217.4694     911312.31347    710115.29462
  24215381.492    -1262909.557 5   -939543.75721
 91  4 30 19 57 45.0000000  0  6G18G 2G11G16G19G 6
  21347421.023     3978435.605 7   3100075.74123
  22665442.531    -5135670.138 6  -4001805.94821
  23362007.633    -2701744.052 6  -2105244.86521
  23853889.0164   -2016941.26545  -1469731.57661
  20923154.8914     921476.86147    718035.72362
  24210134.625    -1290460.853 4   -961012.20921
 91  4 30 19 58  0.0000000  0  6G18G 2G11G16G19G 6
  21354531.7664    4015801.06747   3129191.61763
  22658872.3674   -5170203.62746  -4028715.06761
  23359673.0394   -2713993.64446  -2114789.96261
  23851242.9844   -2030876.59345  -1480590.25761
  20925095.9064     931687.21547    725991.84662
  24204892.9694   -1317993.41344   -982466.07061
 91  4 30 19 58 15.0000000  0  6G18G 2G11G16G19G 6
  21361663.016     4053269.364 7   3158387.61323
  22652313.7894   -5204666.45646  -4055569.11661
  23357368.148    -2726108.187 6  -2124229.81221
  23848616.008    -2044679.183 5  -1491345.50721
  20927049.3284     941944.98147    733984.91662
  24199663.211    -1345505.875 5  -1003904.24921
 91  4 30 19 58 30.0000000  0  6G18G 2G11G16G19G 6
  21368812.977     4090844.396 7   3187666.78323
  22645769.9454   -5239054.06646  -4082364.56461
  23355088.539    -2738082.964 6  -2133560.75621
  23846010.2504   -2058344.90845  -1501994.11461
  20929009.8204     952254.45947    742018.28062
  24194430.961    -1372993.924 5  -1025323.40021
 91  4 30 19 58 45.0000000  0  6G18G 2G11G16G19G 6
  21375982.625     4128525.591 7   3217028.70623
  22639240.3284   -5273366.89646  -4109101.73561
  23352837.148    -2749918.401 6  -2142783.11921
  23843440.695    -2071874.145 5  -1512536.36021
  20930983.3914     962615.03447    750091.45862
  24189204.688    -1400458.211 5  -1046724.06021
 91  4 30 19 59  0.0000000  0  6G18G 2G11G16G19G 6
  21383174.063     4166311.089 7   3246471.90423
  22632725.547    -5307606.432 6  -4135781.79321
  23350613.477    -2761615.932 6  -2151898.03921
  23840889.1334   -2085268.51545  -1522973.50561
  20932961.3984     973025.07747    758203.18162
  24183979.547    -1427900.416 4  -1068107.51121
 91  4 30 19 59 15.0000000  0  6G18G 2G11G16G19G 6
  21390383.2974    4204200.53447   3275996.08363
  22626224.5004   -5341772.74246  -4162404.80061
  23348411.828    -2773175.655 6  -2160905.56721
  23838365.1484   -2098528.32745  -1533305.81561
  20934954.3674     983484.46247    766353.35562
  24178762.8284   -1455320.89245  -1089474.02961
 91  4 30 19 59 30.0000000  0  6G18G 2G11G16G19G 6
  21397612.281     4242190.464 7   3305598.58223
  22619734.5004   -5375869.39446  -4188973.52661
  23346238.102    -2784600.761 6  -2169808.20121
  23835868.1884   -2111657.03145  -1543535.95061
  20936951.5164     993989.55647    774539.14062
  24173551.4454   -1482723.12145  -1110826.33261
 91  4 30 19 59 45.0000000  0  6G18G 2G11G16G19G 6
  21404862.039     4280284.132 7   3335281.91023
  22613259.9384   -5409892.56446  -4215484.99261
  23344092.242    -2795887.496 6  -2178603.00821
  23833394.430    -2124650.669 5  -1553660.85621
  20938961.3284    1004543.94347    782763.33862
  24168337.9694   -1510103.68145  -1132161.75861
 91  4 30 20  0  0.0000000  0  6G18G 2G11G16G19G 6
  21412129.6884    4318479.81047   3365044.71463
  22606801.2114   -5443843.56846  -4241940.22661
  23341965.7734   -2807036.99346  -2187290.89261
  23830948.4384   -2137510.46945  -1563681.45061
  20940977.2274    1015146.35947    791024.96062
  24163132.3674   -1537464.01045  -1153481.38361
 91  4 30 20  0 15.0000000  0  6G18G 2G11G16G19G 6
  21419416.9534    4356774.10747   3394884.36363
  22600352.0004   -5477725.79046  -4268341.86562
  23339871.922    -2818052.450 6  -2195874.32521
  23828527.648    -2150239.929 5  -1573600.50521
  20943004.8594    1025793.31447    799321.29062
  24157929.5784   -1564807.53745  -1174787.96161
 91  4 30 20  0 30.0000000  0  6G18G 2G11G16G19G 6
  21426723.0704    4395170.77447   3424803.78363
  22593918.3754   -5511535.31046  -4294686.85361
  23337801.9694   -2828930.00446  -2204350.29961
  23826128.6254   -2162835.31445  -1583415.07961
  20945040.1334    1036488.37347    807655.09962
  24152729.836    -1592130.768 5  -1196078.70121
 91  4 30 20  0 45.0000000  0  6G18G 2G11G16G19G 6
  21434049.500     4433667.884 7   3454801.47823
  22587498.8834   -5545273.55546  -4320976.30561
  23335756.844    -2839671.020 6  -2212719.87521
  23823758.578    -2175297.991 5  -1593126.23621
  20947083.6884    1047230.04247    816025.22962
  24147531.8674   -1619435.23045  -1217354.81261
 91  4 30 20  1  0.0000000  0  6G18G 2G11G16G19G 6
  21441394.0784    4472264.75747   3484876.89763
  22581090.4304   -5578941.01646  -4347210.59861
  23333736.914    -2850275.810 6  -2220983.30721
  23821412.125    -2187628.466 5  -1602734.37821
  20949135.4694    1058017.60847    824431.12862
  24142340.3134   -1646721.59745  -1238616.84461
 91  4 30 20  1 15.0000000  0  6G18G 2G11G16G19G 6
  21448757.133     4510961.291 7   3515029.97523
  22574698.5394   -5612537.60246  -4373389.66062
  23331746.414    -2860744.040 6  -2229140.33221
  23819090.5554   -2199826.61845  -1612239.40861
  20951198.9224    1068851.44247    832873.07662
  24137152.148    -1673989.805 5  -1259864.70121
 91  4 30 20  1 30.0000000  0  6G18G 2G11G16G19G 6
  21456141.750     4549758.772 7   3545261.73523
  22568318.4144   -5646061.90746  -4399512.40861
  23329782.0784   -2871074.21146  -2237189.77661
  23816791.5944   -2211890.93345  -1621640.16261
  20953268.9614    1079732.74647    841352.01062
  24131964.555    -1701238.587 5  -1281097.43321
 91  4 30 20  1 45.0000000  0  6G18G 2G11G16G19G 6
  21463543.3984    4588655.69847   3575570.96563
  22561951.8984   -5679514.97446  -4425579.64462
  23327843.0554   -2881267.30046  -2245132.41061
  23814522.4844   -2223822.68945  -1630937.59761
  20955348.2194    1090660.49347    849867.13662
  24126785.1644   -1728469.16845  -1302315.99661
 91  4 30 20  2  0.0000000  0  6G18G 2G11G16G19G 6
  21470963.336     4627652.305 7   3605957.88723
  22555601.6804   -5712896.33346  -4451591.00361
  23325927.0164   -2891322.79046  -2252967.82461
  23812278.203    -2235621.307 5  -1640131.31421
  20957435.0004    1101634.83547    858418.57062
  24121603.188    -1755681.288 5  -1323520.17221
 91  4 30 20  2 15.0000000  0  6G18G 2G11G16G19G 6
  21478402.820     4666746.159 7   3636420.57423
  22549261.8204   -5746208.10746  -4477548.14562
  23324040.4924   -2901242.64546  -2260697.55061
  23810057.2504   -2247288.90445  -1649222.94261
  20959534.1564    1112653.63547    867004.64362
  24116432.5704   -1782877.22945  -1344711.73761
 91  4 30 20  2 30.0000000  0  6G18G 2G11G16G19G 6
  21485861.2424    4705937.46047   3666959.18963
  22542934.7664   -5779449.76746  -4503450.64862
  23322176.5234   -2911026.33146  -2268321.16361
  23807862.961    -2258825.097 5  -1658212.16821
  20961640.9304    1123717.39847    875625.75462
  24111258.852    -1810056.613 5  -1365890.38521
 91  4 30 20  2 45.0000000  0  6G18G 2G11G16G19G 6
  21493336.7344    4745221.83647   3697570.33063
  22536622.3984   -5812625.21446  -4529301.55862
  23320341.7974   -2920677.62146  -2275841.60561
  23805694.875    -2270234.068 5  -1667102.25921
  20963752.1094    1134822.00147    884278.68862
  24106088.8594   -1837223.94745  -1387059.66461
 91  4 30 20  3  0.0000000  0  6G18G 2G11G16G19G 6
  21500830.820     4784603.862 7   3728257.57523
  22530323.4844   -5845730.32346  -4555097.65962
  23318531.9224   -2930191.99146  -2283255.36161
  23803542.5234   -2281511.39245  -1675889.77861
  20965871.4924    1145971.68847    892966.75562
  24100921.2344   -1864374.41145  -1408215.77961
 91  4 30 20  3 15.0000000  0  6G18G 2G11G16G19G 6
  21508343.516     4824083.369 7   3759020.78623
  22524036.242    -5878764.817 6  -4580838.74322
  23316748.0784   -2939569.28246  -2290562.30661
  23801421.125    -2292656.787 5  -1684574.47921
  20968003.4144    1157166.41847    901689.91962
  24095758.5234   -1891508.31845  -1429358.99561
 91  4 30 20  3 30.0000000  0  6G18G 2G11G16G19G 6
  21515875.0164    4863660.57347   3789860.10463
  22517764.508    -5911727.843 7  -4606524.13122
  23314988.898    -2948808.572 6  -2297761.73021
  23799326.7344   -2303669.31745  -1693155.66661
  20970143.6414    1168407.10047    910448.88962
  24090600.8754   -1918625.07145  -1450488.86061
 91  4 30 20  3 45.0000000  0  6G18G 2G11G16G19G 6
  21523424.227     4903335.788 7   3820775.76723
  22511502.820    -5944619.046 6  -4632153.55322
  23313258.1564   -2957909.38946  -2304853.24561
  23797255.7504   -2314548.65745  -1701633.07861
  20972291.7034    1179694.12647    919243.97662
  24085439.8524   -1945724.37845  -1471605.12361
 91  4 30 20  4  0.0000000  0  6G18G 2G11G16G19G 6
  21530993.5474    4943113.05547   3851770.97363
  22505260.078    -5977434.155 6  -4657723.68722
  23311552.8754   -2966867.33846  -2311833.43061
  23795217.570    -2325290.485 5  -1710003.31021
  20974446.4064    1191031.49047    928078.28162
  24080291.8754   -1972802.06745  -1492704.53461
 91  4 30 20  4 15.0000000  0  6G18G 2G11G16G19G 6
  21538582.7194    4982985.90647   3882840.67263
  22499029.023    -6010179.181 7  -4683239.20622
  23309872.3914   -2975688.29546  -2318706.87061
  23793195.3524   -2335900.80545  -1718271.09461
  20976615.3444    1202413.07947    936947.05462
  24075139.4924   -1999864.37445  -1513791.95561
 91  4 30 20  4 30.0000000  0  6G18G 2G11G16G19G 6
  21546188.711     5022957.645 7   3913987.40523
  22492811.031    -6042850.896 7  -4708697.60522
  23308220.266    -2984368.866 6  -2325470.91321
  23791202.805    -2346376.594 5  -1726434.04021
  20978790.2974    1213842.18047    945852.84462
  24069992.227    -2026908.178 5  -1534864.97021
 91  4 30 20  4 45.0000000  0  6G18G 2G11G16G19G 6
  21553814.8054    5063032.93447   3945214.83963
  22486610.195    -6075444.242 7  -4734094.93122
  23306599.2114   -2992903.94546  -2332121.58561
  23789232.7034   -2356712.74045  -1734488.17461
  20980973.5784    1225323.67647    954799.46162
  24064853.492    -2053928.635 5  -1555919.79121
 91  4 30 20  5  0.0000000  0  6G18G 2G11G16G19G 6
  21561461.2114    5103208.64647   3976520.51863
  22480422.102    -6107962.089 7  -4759433.43522
  23305000.2814   -3001296.39846  -2338661.11461
  23787293.547    -2366912.187 5  -1742435.77221
  20983168.3524    1236854.53747    963784.55062
  24059713.688    -2080928.758 5  -1576958.75121
 91  4 30 20  5 15.0000000  0  6G18G 2G11G16G19G 6
  21569124.867     5143487.628 7   4007906.68423
  22474249.516    -6140401.007 7  -4784710.43422
  23303430.5314   -3009542.76946  -2345086.81961
  23785380.9064   -2376971.76545  -1750274.40461
  20985371.5634    1248438.01247    972810.63062
  24054577.828    -2107905.374 5  -1597979.40621
 91  4 30 20  5 30.0000000  0  6G18G 2G11G16G19G 6
  21576808.5314    5183864.83747   4039369.41163
  22468088.734    -6172766.035 6  -4809929.85722
  23301888.672    -3017647.831 6  -2351402.41421
  23783493.547    -2386896.212 5  -1758007.73721
  20987587.5084    1260069.14347    981873.84962
  24049449.266    -2134863.634 5  -1618985.77321
 91  4 30 20  5 45.0000000  0  6G18G 2G11G16G19G 6
  21584510.898     5224342.403 7   4070910.29623
  22461944.797    -6205054.614 6  -4835089.70722
  23300372.656    -3025609.001 6  -2357605.87821
  23781627.336    -2396683.015 5  -1765633.80121
  20989807.7894    1271750.28947    990976.02762
  24044323.891    -2161801.112 5  -1639975.90321
 91  4 30 20  6  0.0000000  0  6G18G 2G11G16G19G 6
  21592232.5554    5264917.85547   4102527.46463
  22455815.555    -6237269.074 6  -4860191.80522
  23298885.0944   -3033428.45046  -2363698.91161
  23779793.5394   -2406334.64845  -1773154.54561
  20992039.3054    1283478.99147   1000115.28763
  24039200.1954   -2188720.23045  -1660951.76061
 91  4 30 20  6 15.0000000  0  6G18G 2G11G16G19G 6
  21599971.906     5305590.953 7   4134220.71223
  22449698.633    -6269409.460 7  -4885236.18122
  23297424.7734   -3041106.36046  -2369681.66461
  23777980.836    -2415851.433 5  -1780570.21021
  20994282.6954    1295255.22747   1009291.57462
  24034086.3914   -2215621.33945  -1681913.58061
 91  4 30 20  6 30.0000000  0  6G18G 2G11G16G19G 6
  21607730.9924    5346363.16647   4165991.19363
  22443597.352    -6301473.788 7  -4910221.29622
  23295990.7814   -3048640.63246  -2375552.48761
  23776193.219    -2425231.255 5  -1787879.14721
  20996533.6884    1307080.81247   1018506.31562
  24028964.3134   -2242502.63245  -1702859.94761
 91  4 30 20  6 45.0000000  0  6G18G 2G11G16G19G 6
  21615509.6644    5387236.05547   4197840.12763
  22437508.508    -6333460.093 7  -4935145.61222
  23294586.438    -3056029.201 6  -2381309.77021
  23774437.6024   -2434472.60145  -1795080.19261
  20998792.6484    1318957.54447   1027760.91462
  24023857.1094   -2269362.39245  -1723789.54961
 91  4 30 20  7  0.0000000  0  6G18G 2G11G16G19G 6
  21623307.0314    5428208.32547   4229766.51463
  22431437.961    -6365369.906 7  -4960010.32822
  23293206.3834   -3063273.29146  -2386954.47761
  23772705.898    -2443576.471 5  -1802174.09221
  21001060.0864    1330884.07147   1037054.31162
  24018747.484    -2296202.066 5  -1744703.49221
 91  4 30 20  7 15.0000000  0  6G18G 2G11G16G19G 6
  21631123.0554    5469282.19247   4261772.03763
  22425380.398    -6397200.483 7  -4984813.30022
  23291854.945    -3070370.079 6  -2392484.39421
  23770998.5164   -2452540.17145  -1809158.79561
  21003340.4774    1342862.96147   1046388.50962
  24013643.945    -2323019.057 5  -1765599.76921
 91  4 30 20  7 30.0000000  0  6G18G 2G11G16G19G 6
  21638958.2114    5510458.25247   4293857.18763
  22419337.539    -6428950.931 6  -5009553.83022
  23290536.2274   -3077318.67346  -2397898.84761
  23769320.8594   -2461362.86445  -1816033.61061
  21005630.1254    1354895.10147   1055764.20262
  24008546.125    -2349812.713 5  -1786477.86321
 91  4 30 20  7 45.0000000  0  6G18G 2G11G16G19G 6
  21646812.359     5551733.112 7   4326019.34623
  22413310.320    -6460624.650 6  -5034234.57222
  23289239.6564   -3084122.29846  -2403200.33961
  23767667.6254   -2470047.94045  -1822801.19461
  21007929.1174    1366977.04447   1065178.70162
  24003450.453    -2376586.370 5  -1807340.35921
 91  4 30 20  8  0.0000000  0  6G18G 2G11G16G19G 6
  21654684.4694    5593104.75547   4358256.92463
  22407296.656    -6492223.326 6  -5058856.83722
  23287971.4694   -3090782.56746  -2408390.13161
  23766042.648    -2478597.285 5  -1829463.02121
  21010237.0784    1379106.90147   1074630.53662
  23998360.102    -2403342.005 5  -1828188.81521
 91  4 30 20  8 15.0000000  0  6G18G 2G11G16G19G 6
  21662576.508     5634575.752 7   4390571.91323
  22401300.516    -6523743.875 7  -5083418.23222
  23286732.289    -3097296.419 6  -2413465.82021
  23764437.7274   -2487007.83245  -1836016.68161
  21012555.9694    1391287.65047   1084122.02962
  23993273.141    -2430076.792 5  -1849021.03921
 91  4 30 20  8 30.0000000  0  6G18G 2G11G16G19G 6
  21670486.656     5676146.902 7   4422964.94323
  22395317.531    -6555185.310 7  -5107917.97222
  23285519.0634   -3103662.72546  -2418426.53161
  23762864.4924   -2495278.57445  -1842461.41061
  21014884.4694    1403520.17047   1093653.86162
  23988189.477    -2456789.851 5  -1869836.32121
 91  4 30 20  8 45.0000000  0  6G18G 2G11G16G19G 6
  21678418.797     5717824.936 7   4455441.24923
  22389350.055    -6586540.640 7  -5132350.61822
  23284338.5394   -3109874.34346  -2423266.72261
  23761318.7274   -2503402.67145  -1848791.86261
  21017222.4534    1415811.53447   1103231.54862
  23983111.242    -2483474.249 5  -1890629.28921
 91  4 30 20  9  0.0000000  0  6G18G 2G11G16G19G 6
  21686370.516     5759608.949 7   4488000.13923
  22383400.180    -6617810.635 7  -5156716.77322
  23283185.3594   -3115932.06446  -2427986.97961
  23759802.2034   -2511380.88645  -1855008.65561
  21019572.6414    1428160.75747   1112854.31162
  23978038.3444   -2510130.98245  -1911400.69261
 91  4 30 20  9 15.0000000  0  6G18G 2G11G16G19G 6
  21694340.9144    5801497.12547   4520640.19563
  22377464.633    -6648996.701 7  -5181017.52722
  23282062.6254   -3121837.30946  -2432588.43761
  23758309.5864   -2519214.55245  -1861112.80861
  21021934.3524    1440566.45447   1122521.08262
  23972968.719    -2536761.574 5  -1932151.72121
 91  4 30 20  9 30.0000000  0  6G18G 2G11G16G19G 6
  21702330.539     5843486.322 7   4553358.96223
  22371544.180    -6680101.776 7  -5205255.17222
  23280966.4614   -3127592.88946  -2437073.26661
  23756849.3204   -2526906.79845  -1867106.75961
  21024302.2734    1453025.66147   1132229.55462
  23967906.5394   -2563369.14445  -1952884.80561
 91  4 30 20  9 45.0000000  0  6G18G 2G11G16G19G 6
  21710338.734     5885573.657 7   4586154.21023
  22365640.922    -6711128.404 7  -5229431.69222
  23279899.7734   -3133201.30146  -2441443.42561
  23755412.3364   -2534460.12145  -1872992.47161
  21026684.6724    1465535.83547   1141977.73862
  23962848.070    -2589956.295 5  -1973601.98321
 91  4 30 20 10  0.0000000  0  6G18G 2G11G16G19G 6
  21718367.945     5927760.391 7   4619026.91623
  22359753.711    -6742075.222 7  -5253546.02022
  23278859.3204   -3138661.05146  -2445697.73561
  23753998.883    -2541873.342 5  -1878768.99521
  21029073.9224    1478098.10747   1151766.51562
  23957794.500    -2616521.941 5  -1994302.40221
 91  4 30 20 10 15.0000000  0  6G18G 2G11G16G19G 6
  21726414.1334    5970044.64547   4651975.59663
  22353877.219    -6772943.571 7  -5277599.20622
  23277849.0704   -3143973.39746  -2449837.18661
  23752615.4384   -2549147.74345  -1884437.34961
  21031475.2894    1490710.91047   1161594.67162
  23952739.4534   -2643067.55345  -2014987.19261
 91  4 30 20 10 30.0000000  0  6G18G 2G11G16G19G 6
  21734478.141     6012423.357 7   4684997.88623
  22348019.078    -6803736.428 7  -5301593.56522
  23276865.4774   -3149141.16046  -2453863.96661
  23751253.7114   -2556286.34745  -1889999.91261
  21033883.3364    1503371.48447   1171460.04862
  23947693.2664   -2669596.08545  -2035658.71761
 91  4 30 20 10 45.0000000  0  6G18G 2G11G16G19G 6
  21742562.406     6054898.462 7   4718095.29723
  22342172.836    -6834451.683 7  -5325527.45522
  23275910.4384   -3154162.18346  -2457776.41961
  23749925.8674   -2563286.70645  -1895454.72861
  21036303.2734    1516081.78647   1181364.17662
  23942648.8284   -2696105.67145  -2056315.43661
 91  4 30 20 11  0.0000000  0  6G18G 2G11G16G19G 6
  21750663.9064    6097469.17447   4751267.21763
  22336343.7814   -6865089.74147  -5349401.19362
  23274982.0394   -3159036.89646  -2461574.85961
  23748620.125    -2570149.773 5  -1900802.56921
  21038729.4844    1528841.21347   1191306.58462
  23937606.164    -2722596.928 5  -2076957.87721
 91  4 30 20 11 15.0000000  0  6G18G 2G11G16G19G 6
  21758782.047     6140134.486 7   4784512.84223
  22330527.1174   -6895651.10747  -5373215.17662
  23274085.2584   -3163765.78246  -2465259.66961
  23747337.016    -2576875.869 5  -1906043.67621
  21041169.4774    1541649.37447   1201286.96162
  23932569.266    -2749070.481 5  -2097586.54621
 91  4 30 20 11 30.0000000  0  6G18G 2G11G16G19G 6
  21766921.016     6182899.890 7   4817836.45923
  22324727.320    -6926130.212 7  -5396965.05522
  23273212.195    -3168343.061 6  -2468826.34021
  23746084.0944   -2583459.59445  -1911173.85561
  21043615.0864    1554511.76947   1211309.60062
  23927537.2034   -2775520.83245  -2118197.12361
 91  4 30 20 11 45.0000000  0  6G18G 2G11G16G19G 6
  21775075.086     6225759.566 7   4851233.53023
  22318942.578    -6956532.707 7  -5420655.24022
  23272368.4694   -3172774.45746  -2472279.34361
  23744863.5004   -2589906.68745  -1916197.54261
  21046074.0864    1567422.52347   1221369.92462
  23922505.0784   -2801953.82445  -2138794.17561
 91  4 30 20 12  0.0000000  0  6G18G 2G11G16G19G 6
  21783248.406     6268713.277 7   4884703.87123
  22313171.281    -6986858.423 7  -5444285.59622
  23271552.8054   -3177059.55746  -2475618.34361
  23743660.0864   -2596217.16745  -1921114.81761
  21048539.2114    1580381.82347   1231468.06762
  23917477.5864   -2828369.32545  -2159377.58561
 91  4 30 20 12 15.0000000  0  6G18G 2G11G16G19G 6
  21791441.703     6311763.830 7   4918249.67122
  22307416.039    -7017104.345 7  -5467853.77422
  23270766.4614   -3181195.37246  -2478841.02561
  23742483.2034   -2602387.89245  -1925923.15361
  21051017.6094    1593392.72847   1241606.43162
  23912455.2344   -2854764.50245  -2179945.17461
 91  4 30 20 12 30.0000000  0  6G18G 2G11G16G19G 6
  21799651.734     6354909.378 7   4951869.50022
  22301674.5784   -7047272.30647  -5491361.20862
  23270008.7974   -3185183.62346  -2481948.71361
  23741338.1724   -2608420.63445  -1930623.99761
  21053500.3054    1606453.35147   1251783.52962
  23907436.6484   -2881141.28045  -2200498.42161
 91  4 30 20 12 45.0000000  0  6G18G 2G11G16G19G 6
  21807880.906     6398153.066 7   4985565.79522
  22295949.844    -7077358.883 7  -5514805.22022
  23269277.742    -3189020.799 6  -2484938.69621
  23740215.0164   -2614312.37445  -1935214.95761
  21055998.2894    1619567.03747   1262001.97762
  23902419.0084   -2907496.37045  -2221034.77761
 91  4 30 20 13  0.0000000  0  6G18G 2G11G16G19G 6
  21816127.109     6441490.896 7   5019335.45422
  22290239.195    -7107367.424 7  -5538188.42622
  23268572.2034   -3192710.36346  -2487813.65061
  23739118.8364   -2620066.36745  -1939698.59361
  21058501.2894    1632730.05647   1272258.86762
  23897410.1024   -2933833.46745  -2241557.11061
 91  4 30 20 13 15.0000000  0  6G18G 2G11G16G19G 6
  21824393.484     6484923.288 7   5053178.79222
  22284544.0864   -7137297.07447  -5561510.16062
  23267901.2734   -3196251.43546  -2490572.89361
  23738053.5474   -2625681.72245  -1944074.18561
  21061017.0704    1645943.48647   1282555.03662
  23892403.313    -2960151.825 5  -2262064.84121
 91  4 30 20 13 30.0000000  0  6G18G 2G11G16G19G 6
  21832676.1644    6528450.26247   5087095.83162
  22278862.430    -7167147.824 7  -5584770.41122
  23267255.5394   -3199643.72846  -2493216.20961
  23737006.7664   -2631158.49345  -1948341.79361
  21063539.3524    1659207.46647   1292890.59363
  23887394.156    -2986451.345 5  -2282557.89421
 91  4 30 20 13 45.0000000  0  6G18G 2G11G16G19G 6
  21840977.586     6572067.596 7   5121083.27822
  22273196.6724   -7196923.81047  -5607972.41262
  23266636.7424   -3202891.18646  -2495746.67161
  23735990.6724   -2636500.47945  -1952504.38761
  21066073.4844    1672517.65047   1303262.16262
  23882397.3914   -3012736.32745  -2303039.59861
 91  4 30 20 14  0.0000000  0  6G18G 2G11G16G19G 6
  21849294.117     6615777.201 7   5155142.63322
  22267544.023    -7226622.795 7  -5631114.40622
  23266046.594    -3205991.696 6  -2498162.62621
  23735003.977    -2641706.045 5  -1956560.66021
  21068612.3444    1685876.15347   1313671.37262
  23877397.250    -3039004.786 5  -2323508.44721
 91  4 30 20 14 15.0000000  0  6G18G 2G11G16G19G 6
  21857629.3914    6659574.85347   5189270.60362
  22261908.023    -7256248.633 7  -5654199.39522
  23265485.6414   -3208949.12946  -2500467.09461
  23734035.9844   -2646778.93845  -1960513.55461
  21071164.391     1699278.976 7   1324115.11822
  23872397.0004   -3065260.73745  -2343967.53961
 91  4 30 20 14 30.0000000  0  6G18G 2G11G16G19G 6
  21865980.0314    6703462.12147   5223468.40762
  22256284.172    -7285799.227 7  -5677225.76222
  23264948.4614   -3211761.36846  -2502658.42461
  23733097.0394   -2651717.37445  -1964361.68861
  21073723.4384    1712728.18447   1334595.01162
  23867404.023    -3091502.186 5  -2364415.33521
 91  4 30 20 14 45.0000000  0  6G18G 2G11G16G19G 6
  21874348.0164    6747438.88347   5257735.93962
  22250675.836    -7315274.630 7  -5700193.53522
  23264439.992    -3214428.333 6  -2504736.55021
  23732181.4384   -2656521.36445  -1968105.04461
  21076292.0234    1726223.90447   1345111.14662
  23862414.703    -3117729.204 5  -2384851.90821
 91  4 30 20 15  0.0000000  0  6G18G 2G11G16G19G 6
  21882734.398     6791502.977 7   5292071.51722
  22245079.945    -7344676.759 7  -5723104.21122
  23263963.141    -3216952.024 6  -2506703.03921
  23731292.5084   -2661192.88345  -1971745.18461
  21078869.6334    1739763.85047   1355661.74462
  23857425.9384   -3143944.11245  -2405279.02161
 91  4 30 20 15 15.0000000  0  6G18G 2G11G16G19G 6
  21891135.461     6835651.421 7   5326472.82722
  22239498.078    -7374008.311 7  -5745959.89322
  23263506.9454   -3219334.99446  -2508559.86661
  23730429.5084   -2665734.55445  -1975284.13861
  21081453.3984    1753345.50547   1366244.84462
  23852438.4224   -3170149.51845  -2425698.73161
 91  4 30 20 15 30.0000000  0  6G18G 2G11G16G19G 6
  21899552.859     6879888.382 7   5360943.10422
  22233932.359    -7403264.926 7  -5768757.18122
  23263081.469    -3221572.603 6  -2510303.43021
  23729589.891    -2670141.707 5  -1978718.27421
  21084044.3594    1766973.26247   1376863.86762
  23847451.414    -3196341.035 5  -2446107.62121
 91  4 30 20 15 45.0000000  0  6G18G 2G11G16G19G 6
  21907988.000     6924212.026 7   5395480.92822
  22228378.391    -7432448.203 7  -5791497.32122
  23262685.570    -3223666.635 6  -2511935.12121
  23728776.2664   -2674416.24645  -1982049.08561
  21086648.7194    1780645.25947   1387517.36162
  23842470.570    -3222520.575 5  -2466507.17921
 91  4 30 20 16  0.0000000  0  6G18G 2G11G16G19G 6
  21916438.273     6968622.515 7   5430086.42222
  22222837.781    -7461557.371 7  -5814179.71522
  23262312.2974   -3225616.34946  -2513454.34961
  23727988.8054   -2678557.80145  -1985276.26961
  21089261.2194    1794362.10847   1398205.80962
  23837493.289    -3248687.605 5  -2486896.98721
 91  4 30 20 16 15.0000000  0  6G18G 2G11G16G19G 6
  21924905.6254    7013118.42447   5464758.48262
  22217313.742    -7490593.917 7  -5836805.52122
  23261968.4774   -3227423.01446  -2514862.12761
  23727225.1414   -2682567.83245  -1988400.97461
  21091877.6724    1808122.34647   1408928.06662
  23832514.7504   -3274843.63645  -2507278.22361
 91  4 30 20 16 30.0000000  0  6G18G 2G11G16G19G 6
  21933390.4224    7057702.37947   5499499.17262
  22211802.367    -7519554.899 7  -5859372.45022
  23261651.4614   -3229083.47746  -2516155.97261
  23726488.7424   -2686443.28545  -1991420.79361
  21094502.8594    1821928.84047   1419686.36362
  23827540.5234   -3300985.83245  -2527648.68061
 91  4 30 20 16 45.0000000  0  6G18G 2G11G16G19G 6
  21941890.5944    7102374.48647   5534308.54062
  22206303.664    -7548439.867 7  -5881880.14822
  23261365.789    -3230597.340 6  -2517335.58021
  23725777.3524   -2690184.05745  -1994335.69361
  21097140.8674    1835781.98247   1430481.01462
  23822569.2504   -3327113.88345  -2548008.11161
 91  4 30 20 17  0.0000000  0  6G18G 2G11G16G19G 6
  21950408.750     7147136.312 7   5569187.80822
  22200822.484    -7577246.993 7  -5904327.18022
  23261102.625    -3231962.900 6  -2518399.63721
  23725093.1024   -2693788.45345  -1997144.30061
  21099790.0704    1849683.65147   1441313.47462
  23817600.336    -3353226.128 5  -2568355.22621
 91  4 30 20 17 15.0000000  0  6G18G 2G11G16G19G 6
  21958943.086     7191986.080 7   5604135.59422
  22195355.8444   -7605977.99247  -5926714.90762
  23260874.2504   -3233181.79946  -2519349.40061
  23724428.7194   -2697258.14445  -1999847.95161
  21102440.6804    1863632.14647   1452182.42562
  23812633.000    -3379324.267 5  -2588691.35621
 91  4 30 20 17 30.0000000  0  6G18G 2G11G16G19G 6
  21967494.602     7236922.822 7   5639151.15322
  22189903.2664   -7634633.18947  -5949043.56762
  23260670.031    -3234254.239 6  -2520185.04321
  23723797.3674   -2700593.28345  -2002446.75361
  21105105.5474    1877627.30747   1463087.73962
  23807672.7894   -3405408.77045  -2609016.84861
 91  4 30 20 17 45.0000000  0  6G18G 2G11G16G19G 6
  21976062.617     7281947.840 7   5674235.50222
  22184464.8914   -7663211.36947  -5971312.20262
  23260495.953    -3235178.882 6  -2520905.52721
  23723188.3674   -2703792.48845  -2004939.63061
  21107776.2814    1891670.09547   1474030.16162
  23802708.5474   -3431478.52645  -2629330.84861
 91  4 30 20 18  0.0000000  0  6G18G 2G11G16G19G 6
  21984648.422     7327064.529 7   5709391.27822
  22179043.102    -7691708.797 7  -5993517.92222
  23260345.781    -3235951.869 6  -2521507.83321
  23722608.7274   -2706852.49145  -2007324.04261
  21110460.4384    1905764.21047   1485012.58262
  23797751.4304   -3457529.87045  -2649630.53361
 91  4 30 20 18 15.0000000  0  6G18G 2G11G16G19G 6
  21993252.352     7372271.937 7   5744617.74422
  22173633.8444   -7720126.00447  -6015661.13162
  23260228.023    -3236573.817 6  -2521992.44321
  23722047.7034   -2709773.85245  -2009600.40561
  21113148.6254    1919909.15647   1496034.61462
  23792801.1804   -3483563.51245  -2669916.37861
 91  4 30 20 18 30.0000000  0  6G18G 2G11G16G19G 6
  22001870.3984    7417568.06747   5779913.34062
  22168241.758    -7748464.809 7  -6037743.24722
  23260137.3834   -3237046.58346  -2522360.81461
  23721517.3754   -2712558.78445  -2011770.49261
  21115850.8444    1934102.90647   1507094.66862
  23787845.0004   -3509581.37645  -2690189.95561
 91  4 30 20 18 45.0000000  0  6G18G 2G11G16G19G 6
  22010505.3754    7462949.30547   5815275.25062
  22162863.2424   -7776728.41647  -6059766.77262
  23260077.047    -3237373.394 6  -2522615.45221
  23721012.523    -2715210.283 5  -2013836.58221
  21118559.0474    1948342.31847   1518190.30662
  23782896.6024   -3535587.05745  -2710454.02561
 91  4 30 20 19  0.0000000  0  6G18G 2G11G16G19G 6
  22019158.2894    7508416.95247   5850704.49662
  22157498.8364   -7804915.12947  -6081730.37562
  23260042.867    -3237552.440 6
  23720537.2814   -2717726.67245  -2015797.40861
  21121280.8054    1962629.04847   1529322.82062
  23777951.227    -3561578.750 5  -2730707.22021
 91  4 30 20 19 15.0000000  0  6G18G 2G11G16G19G 6
  22027829.3914    7553972.92147   5886202.56362
  22152149.2274   -7833022.81447  -6103632.39962
  23260037.477    -3237581.602 6
  23720080.1804   -2720105.98945  -2017651.41161
  21124007.5474    1976965.10547   1540493.76962
  23773010.2814   -3587554.51345  -2750947.98661
 91  4 30 20 19 30.0000000  0  6G18G 2G11G16G19G 6
  22036514.117     7599616.867 7   5921769.19722
  22146817.109    -7861051.727 7  -6125473.04022
  23260058.117    -3237461.159 6
  23719657.9304   -2722348.60945  -2019398.91961
  21126743.5474    1991350.01947   1551702.78962
  23768068.391    -3613514.756 5  -2771176.65421
 91  4 30 20 19 45.0000000  0  6G18G 2G11G16G19G 6
  22045217.406     7645350.527 7   5957405.74522
  22141496.0394   -7888999.94447  -6147250.80662
  23260112.2344   -3237188.99846
  23719253.9144   -2724452.39645  -2021038.21461
  21129492.6334    2005785.87047   1562951.49762
  23763130.539    -3639457.488 5  -2791391.66421
 91  4 30 20 20  0.0000000  0  6G18G 2G11G16G19G 6
  22053936.1884    7691170.25147   5993109.34362
  22136194.1414   -7916870.81847  -6168968.30462
  23260190.891    -3236768.317 6
  23718881.5474   -2726420.97445  -2022572.18961
  21132247.8054    2020269.41947   1574237.37662
  23758195.4304   -3665386.20845  -2811595.77361
 91  4 30 20 20 15.0000000  0  6G18G 2G11G16G19G 6
  22062673.8674    7737076.51147   6028880.35562
  22130904.7504   -7944663.34447  -6190624.75162
  23260297.898    -3236198.187 6  -2521699.58821
  23718534.234    -2728253.312 5  -2023999.97221
  21135013.0234    2034801.49447   1585561.06662
  23753266.430    -3691300.069 5  -2831788.29721
 91  4 30 20 20 30.0000000  0  6G18G 2G11G16G19G 6
  22071423.633     7783067.848 7   6064717.65722
  22125630.1414   -7972378.86847  -6212221.19862
  23260436.867    -3235479.999 6  -2521139.94021
  23718209.4774   -2729950.82245  -2025322.72061
  21137788.2894    2049380.69747   1596921.47862
  23748338.9384   -3717200.54345  -2851970.39861
 91  4 30 20 20 45.0000000  0  6G18G 2G11G16G19G 6
  22080191.3284    7829140.62747   6100618.43062
  22120371.5554   -8000020.75847  -6233760.27062
  23260599.2034   -3234616.90146  -2520467.37161
  23717912.1564   -2731516.95745  -2026543.06761
  21140569.1414    2064003.84847   1608316.13362
  23743414.797    -3743091.013 5  -2872144.68821
 91  4 30 20 21  0.0000000  0  6G18G 2G11G16G19G 6
  22088973.8914    7875299.88347   6136586.58562
  22115125.8444   -8027583.74047  -6255237.85662
  23260792.109    -3233603.682 6  -2519677.83421
  23717638.5234   -2732946.61145  -2027657.09461
  21143364.1334    2078675.95246   1619748.94062
  23738485.2584   -3768966.37645  -2892307.21961
 91  4 30 20 21 15.0000000  0  6G18G 2G11G16G19G 6
  22097774.9534    7921542.70047   6172619.84662
  22109895.4844   -8055070.49247  -6276656.03462
  23261012.453    -3232443.213 6  -2518773.55221
  23717389.3754   -2734242.75445  -2028667.07461
  21146163.1484    2093394.36847   1631217.83562
  23733564.625    -3794829.422 5  -2912460.14221
 91  4 30 20 21 30.0000000  0  6G18G 2G11G16G19G 6
  22106591.1334    7967869.54247   6208718.58262
  22104678.3984   -8082479.89747  -6298013.95062
  23261265.977    -3231134.212 6  -2517753.53821
  23717170.3674   -2735404.35945  -2029572.21961
  21148972.1484    2108160.02147   1642723.53362
  23728645.352    -3820679.399 5  -2932602.86521
 91  4 30 20 21 45.0000000  0  6G18G 2G11G16G19G 6
  22115423.4844    8014281.33447   6244883.51562
  22099478.8914   -8109811.33147  -6319311.10362
  23261540.3204   -3229676.11146  -2516617.33061
  23716977.8674   -2736430.64445  -2030371.91861
  21151791.2894    2122973.68747   1654266.64662
  23723727.578    -3846515.417 5  -2952734.73221
 91  4 30 20 22  0.0000000  0  6G18G 2G11G16G19G 6
  22124269.4924    8060778.68447   6281115.12562
  22094293.0234   -8137063.78447  -6340546.71862
  23261846.617    -3228067.759 6  -2515364.04221
  23716807.2504   -2737320.49345  -2031065.30961
  21154620.6094    2137836.39647   1665847.97362
  23718813.6564   -3872336.59745  -2972855.03361
 91  4 30 20 22 15.0000000  0  6G18G 2G11G16G19G 6
  22133134.836     8107357.252 7   6317410.02722
  22089120.2034   -8164241.29347  -6361723.93662
  23262178.992    -3226313.075 6  -2513996.74521
  23716661.727    -2738078.469 5  -2031655.92521
  21157455.9454    2152744.00847   1677464.28862
  23713904.453    -3898147.113 5  -2992967.02221
 91  4 30 20 22 30.0000000  0  6G18G 2G11G16G19G 6
  22142015.266     8154020.933 7   6353771.25522
  22083963.7114   -8191339.67947  -6382839.49962
  23262540.820    -3224407.940 6  -2512512.20121
  23716542.8984   -2738700.46445  -2032140.60761
  21160302.8594    2167700.58847   1689118.76362
  23708997.2664   -3923943.04845  -3013067.64161
 91  4 30 20 22 45.0000000  0  6G18G 2G11G16G19G 6
  22150910.438     8200767.117 7   6390196.76922
  22078821.2194   -8218360.91147  -6403894.94062
  23262933.1884   -3222354.40246  -2510912.01861
  23716450.5314   -2739188.39345  -2032520.80661
  21163158.7034    2182704.29947   1700809.96262
  23704089.109    -3949726.532 5  -3033158.56321
 91  4 30 20 23  0.0000000  0  6G18G 2G11G16G19G 6
  22159821.5554    8247596.16647   6426686.85062
  22073695.0004   -8245304.31047  -6424889.73562
  23263352.5784   -3220151.57146  -2509195.49761
  23716385.0784   -2739541.61345  -2032796.03661
  21166022.3984    2197755.84047   1712538.43963
  23699181.672    -3975496.758 5  -3053239.15121
 91  4 30 20 23 15.0000000  0  6G18G 2G11G16G19G 6
  22168748.5864    8294510.55147   6463243.42162
  22068581.7424   -8272167.76447  -6445822.23162
  23263800.5394   -3217797.15846  -2507360.86561
  23716344.5314   -2739757.90245  -2032964.56961
  21168895.5474    2212857.31347   1724305.81662
  23694282.859    -4001251.567 5  -3073307.72421
 91  4 30 20 23 30.0000000  0  6G18G 2G11G16G19G 6
  22177691.8054    8341507.04347   6499863.96362
  22063485.4534   -8298953.83447  -6466694.42562
  23264276.039    -3215293.937 6  -2505410.28121
  23716328.2504   -2739840.13045
  21171778.1484    2228005.88547   1736109.89962
  23689382.492    -4026993.809 5  -3093366.49721
 91  4 30 20 23 45.0000000  0  6G18G 2G11G16G19G 6
  22186651.3364    8388584.63447   6536547.70062
  22058402.9844   -8325663.46647  -6487507.06062
  23264781.6254   -3212642.96746  -2503344.56261
  23716333.9064   -2739789.48545
  21174669.0394    2243200.72847   1747950.03462
  23684487.2584   -4052724.68545  -3113416.44161
 91  4 30 20 24  0.0000000  0  6G18G 2G11G16G19G 6
  22195624.5704    8435744.12847   6573295.26862
  22053332.9534   -8352295.43647  -6508259.18462
  23265314.1564   -3209843.03346  -2501162.76461
  23716375.4064   -2739604.97845
  21177570.2974    2258443.00547   1759827.12862
  23679595.852    -4078443.008 5  -3133456.58121
 91  4 30 20 24 15.0000000  0  6G18G 2G11G16G19G 6
  22204613.9304    8482985.42847   6610106.57062
  22048281.1884   -8378849.51947  -6528950.61462
  23265875.7504   -3206893.79146  -2498864.62661
  23716433.9144   -2739286.28245
  21180480.9384    2273732.79647   1771741.25063
  23674699.664    -4104148.659 5  -3153486.86521
 91  4 30 20 24 30.0000000  0  6G18G 2G11G16G19G 6
  22213621.1024    8530308.37147   6646981.49262
  22043244.8834   -8405325.81447  -6549581.42862
  23266464.023    -3203795.259 6  -2496450.15821
  23716516.6484   -2738833.47645  -2032244.24561
  21183399.0314    2289070.03947   1783692.34663
  23669812.227    -4129841.834 5  -3173507.42821
 91  4 30 20 24 45.0000000  0  6G18G 2G11G16G19G 6
  22222640.7424    8577716.79747   6683923.03062
  22038220.4534   -8431720.10047  -6570148.34362
  23267083.195    -3200543.199 6  -2493916.07021
  23716630.3754   -2738242.63245  -2031783.85061
  21186326.9384    2304459.10047   1795683.81762
  23664923.859    -4155518.270 5  -3193514.93121
 91  4 30 20 25  0.0000000  0  6G18G 2G11G16G19G 6
  22231678.0704    8625207.35347   6720928.57162
  22033213.4144   -8458035.21647  -6590653.56562
  23267729.6644   -3197140.54446  -2491264.62561
  23716769.6564   -2737516.49345  -2031218.00861
  21189264.3134    2319896.89647   1807713.26762
  23660043.4304   -4181181.05245  -3213511.81961
 91  4 30 20 25 15.0000000  0  6G18G 2G11G16G19G 6
  22240732.4774    8672777.32747   6757995.99162
  22028220.5314   -8484273.86347  -6611099.20562
  23268406.773    -3193589.908 6  -2488497.87121
  23716934.7894   -2736657.90745  -2030548.99661
  21192211.5004    2335380.91347   1819778.73262
  23655160.2274   -4206832.90445  -3233500.16561
 91  4 30 20 25 30.0000000  0  6G18G 2G11G16G19G 6
  22249798.7424    8720422.91647   6795122.33262
  22023241.2894   -8510439.48847  -6631487.94262
  23269108.5004   -3189894.75746  -2485618.50761
  23717119.359    -2735670.522 5  -2029779.60521
  21195167.2664    2350907.68247   1831877.50962
  23650282.0164   -4232477.35345  -3253482.76361
 91  4 30 20 25 45.0000000  0  6G18G 2G11G16G19G 6
  22258880.9534    8768147.40747   6832310.14562
  22018276.6564   -8536528.84947  -6651817.25562
  23269840.9144   -3186051.78346  -2482623.95661
  23717333.9304   -2734551.01845  -2028907.26261
  21198127.4454    2366480.38047   1844012.08062
  23645403.0164   -4258111.10145  -3273457.00661
 91  4 30 20 26  0.0000000  0  6G18G 2G11G16G19G 6
  22267977.9534    8815956.22347   6869563.67462
  22013328.1564   -8562535.96547  -6672082.48062
  23270601.2034   -3182055.10846  -2479509.63061
  23717574.2194   -2733293.52545  -2027927.40161
  21201100.8204    2382104.95447   1856187.06862
  23640528.250    -4283728.517 5  -3293418.54321
 91  4 30 20 26 15.0000000  0  6G18G 2G11G16G19G 6
  22277091.0394    8863845.60747   6906879.98862
  22008392.6254   -8588464.39447  -6692286.38962
  23271389.8834   -3177908.24146  -2476278.27661
  23717839.1954   -2731901.70445  -2026842.86761
  21204085.0394    2397777.82147   1868399.69162
  23635654.9224   -4309333.09545  -3313370.05861
 91  4 30 20 26 30.0000000  0  6G18G 2G11G16G19G 6
  22286218.8054    8911814.51347   6944258.26262
  22003473.9384   -8614314.50847  -6712429.27762
  23272208.1414   -3173611.61546  -2472930.22061
  23718130.1564   -2730376.09546  -2025654.08661
  21207075.2664    2413498.38547   1880649.48063
  23630785.2584   -4334925.39545  -3333312.01461
 91  4 30 20 26 45.0000000  0  6G18G 2G11G16G19G 6
  22295361.2344    8959864.22547   6981699.50562
  21998568.1094   -8640085.04047  -6732510.15162
  23273055.453    -3169163.908 6  -2469464.45221
  23718443.328    -2728715.466 5  -2024360.08121
  21210077.1884    2429268.08547   1892937.55662
  23625918.6094   -4360504.24745  -3353243.49861
 91  4 30 20 27  0.0000000  0  6G18G 2G11G16G19G 6
  22304520.0944    9007990.70447   7019200.56162
  21993679.2814   -8665779.73247
  23273928.9844   -3164568.84746  -2465883.86361
  23718785.6564   -2726923.67445  -2022963.88261
  21213086.2424    2445083.19347   1905261.01863
  23621055.5004   -4386073.62745
 91  4 30 20 27 15.0000000  0  6G18G 2G11G16G19G 6
  22313694.141     9056195.409 7   7056762.56222
  21988805.0864   -8691396.72847
  23274833.3594   -3159824.59346  -2462187.01261
  23719150.9614   -2724999.15245  -2021464.26261
  21216105.5084    2460945.76447   1917621.46263
  23616191.7274   -4411631.40845
 91  4 30 20 27 30.0000000  0  6G18G 2G11G16G19G 6
  22322882.625     9104481.182 7   7094387.73822
  21983945.0784   -8716933.12447
  23275761.5084   -3154928.28046  -2458371.66861
  23719542.2664   -2722939.13245  -2019859.06761
  21219136.6414    2476858.59746   1930021.06663
  23611332.3054   -4437175.08245
 91  4 30 20 27 45.0000000  0  6G18G 2G11G16G19G 6
  22332084.9844    9152848.68347   7132076.60162
  21979101.3594   -8742388.28047  -6812226.71262
  23276726.211    -3149879.104 6  -2454437.22221
  23719962.242    -2720743.015 5  -2018147.82221
  21222171.6484    2492822.54647   1942460.50162
  23606471.008    -4462703.780 5  -3432879.10721
 91  4 30 20 28  0.0000000  0  6G18G 2G11G16G19G 6
  22341305.6414    9201298.91547   7169829.93362
  21974273.9534   -8767760.73047  -6831997.39462
  23277713.6954   -3144675.55846  -2450382.48661
  23720406.6334   -2718409.17746  -2016329.24261
  21225216.8834    2508838.74147   1954940.64762
  23601616.6564   -4488216.14045  -3452758.79961
 91  4 30 20 28 15.0000000  0  6G18G 2G11G16G19G 6
  22350541.5704    9249829.80747   7207646.10862
  21969461.7344   -8793052.24847  -6851705.01262
  23278732.8984   -3139319.45146  -2446208.86061
  23720872.8524   -2715939.57245  -2014404.88661
  21228277.2664    2524905.39947   1967460.12362
  23596763.234    -4513714.141 5  -3472627.25621
 91  4 30 20 28 30.0000000  0  6G18G 2G11G16G19G 6
  22359792.547     9298441.258 7   7245525.05422
  21964664.0634   -8818262.40047  -6871349.22862
  23279782.4694   -3133810.56846  -2441916.19661
  23721371.0394   -2713334.21445  -2012374.75161
  21231346.0784    2541022.97347   1980019.26662
  23591912.328    -4539197.562 5  -3492484.38021
 91  4 30 20 28 45.0000000  0  6G18G 2G11G16G19G 6
  22369057.922     9347132.831 7   7283466.43222
  21959881.0004   -8843391.57847  -6890930.34662
  23280860.2274   -3128149.24946  -2437504.74561
  23721891.9304   -2710593.23245  -2010238.92061
  21234419.8524    2557190.99947   1992617.72963
  23587069.9304   -4564666.76245  -3512330.42261
 91  4 30 20 29  0.0000000  0  6G18G 2G11G16G19G 6
  22378339.656     9395904.891 6   7321470.53122
  21955114.6804   -8868439.17747  -6910447.89763
  23281965.1804   -3122334.71046  -2432973.90161
  23722440.9534   -2707716.10045  -2007997.01661
  21237504.5234    2573410.30947   2005256.14662
  23582227.3914   -4590121.02345  -3532164.82161
 91  4 30 20 29 15.0000000  0  6G18G 2G11G16G19G 6
  22387635.734     9444750.975 7   7359532.30122
  21950361.3524   -8893411.07947  -6929906.45763
  23283099.2034   -3116373.16546  -2428328.51561
  23723014.9924   -2704709.00145  -2005653.83661
  21240602.4454    2589674.77847   2017929.75963
  23577380.3834   -4615566.56045  -3551992.44761
 91  4 30 20 29 30.0000000  0  6G18G 2G11G16G19G 6
  22396944.430     9493675.955 6   7397655.56122
  21945625.9304   -8918302.26847  -6949302.12762
  23284264.0634   -3110259.53346  -2423564.61161
  23723608.7894   -2701567.04645  -2003205.55161
  21243708.9534    2605989.34147   2030642.40662
  23572540.6804   -4640998.42345  -3571809.38361
 91  4 30 20 29 45.0000000  0  6G18G 2G11G16G19G 6
  22406270.2894    9542682.85146   7435842.64862
  21940905.1564   -8943109.55447  -6968632.42263
  23285455.0234   -3103990.61446  -2418679.70961
  23724234.383    -2698287.339 5  -2000649.95521
  21246822.3054    2622357.36747   2043396.70962
  23567706.3524   -4666413.61945  -3591613.34561
 91  4 30 20 30  0.0000000  0  6G18G 2G11G16G19G 6
  22415612.211     9591770.346 7   7474092.53122
  21936200.2584   -8967833.95547  -6987898.12563
  23286680.6174   -3097567.42746  -2413674.59461
  23724885.6024   -2694870.88945  -1997987.80561
  21249947.2734    2638777.77947   2056191.83462
  23562866.836    -4691813.034 5  -3611405.02221
 91  4 30 20 30 15.0000000  0  6G18G 2G11G16G19G 6
  22424963.859     9640934.794 6   7512402.38622
  21931511.0004   -8992478.68347  -7007101.74962
  23287928.555    -3090993.292 6  -2408551.86221
  23725560.430    -2691321.224 5  -1995221.82021
  21253080.3754    2655247.13647   2069025.09562
  23558040.4694   -4717200.28345  -3631187.19761
 91  4 30 20 30 30.0000000  0  6G18G 2G11G16G19G 6
  22434336.539     9690177.660 6   7550773.34622
  21926836.1094   -9017042.11247  -7026242.02262
  23289209.0864   -3084266.28846  -2403310.01261
  23726263.461    -2687636.418 5  -1992350.54421
  21256225.5704    2671767.29847   2081897.94762
  23553211.8524   -4742573.46045  -3650958.41061
 91  4 30 20 30 45.0000000  0  6G18G 2G11G16G19G 6
  22443722.977     9739499.350 6   7589205.72622
  21922175.6644   -9041523.59447  -7045318.44062
  23290519.9384   -3077385.87546  -2397948.62161
  23726986.7194   -2683816.28445  -1989373.84061
  21259377.0634    2688338.96847   2094810.93162
  23548388.625    -4767931.958 5  -3670718.20221
 91  4 30 20 31  0.0000000  0  6G18G 2G11G16G19G 6
  22453124.859     9788897.619 6   7627697.77722
  21917534.6644   -9065925.13347  -7064332.56562
  23291857.500    -3070354.163 6  -2392469.34521
  23727742.1884   -2679862.87645  -1986293.25961
  21262539.0784    2704960.08747   2107762.44562
  23543562.8524   -4793278.02145  -3690468.29061
 91  4 30 20 31 15.0000000  0  6G18G 2G11G16G19G 6
  22462539.461     9838374.690 6   7666251.22922
  21912905.8444   -9090244.16347  -7083282.39562
  23293224.758    -3063168.709 6  -2386870.27621
  23728520.1954   -2675773.69446  -1983106.88461
  21265713.3834    2721633.21047   2120754.48962
  23538742.180    -4818609.203 5  -3710206.79021
 91  4 30 20 31 30.0000000  0  6G18G 2G11G16G19G 6
  22471969.711     9887929.151 6   7704864.98322
  21908294.3524   -9114481.64147  -7102168.68062
  23294621.0234   -3055830.35646  -2381152.05061
  23729323.414    -2671549.760 5  -1979815.53421
  21268897.4144    2738357.47647   2133786.37963
  23533926.0864   -4843926.51245  -3729934.48661
 91  4 30 20 31 45.0000000  0  6G18G 2G11G16G19G 6
  22481413.758     9937562.851 6   7743540.47622
  21903696.9304   -9138635.99247  -7120990.19462
  23296046.3834   -3048337.33246  -2375313.30161
  23730154.3054   -2667189.50945  -1976417.94761
  21272087.3054    2755134.40247   2146859.30862
  23529112.8834   -4869228.08845  -3749649.90161
 91  4 30 20 32  0.0000000  0  6G18G 2G11G16G19G 6
  22490874.359     9987277.425 6   7782278.99622
  21899115.9304   -9162705.06847  -7139745.26362
  23297500.9774   -3040687.65546  -2369352.47761
  23731010.8674   -2662690.94645  -1972912.57061
  21275289.6484    2771966.15447   2159974.95662
  23524296.727    -4894512.099 5  -3769351.65121
 91  4 30 20 32 15.0000000  0  6G18G 2G11G16G19G 6
  22500349.422    10037070.245 6   7821078.48322
  21894553.2034   -9186691.23947  -7158435.72263
  23298988.2114   -3032883.75946  -2363271.49161
  23731889.297    -2658056.397 5  -1969301.24221
  21278505.0164    2788850.57247   2173131.64263
  23519490.125    -4919780.960 5  -3789041.57721
 91  4 30 20 32 30.0000000  0  6G18G 2G11G16G19G 6
  22509840.2974   10086944.23646   7859941.21262
  21890003.6644   -9210591.11547  -7177058.94062
  23300501.695    -3024922.372 6  -2357067.78921
  23732799.5474   -2653283.06045  -1965581.76961
  21281728.0554    2805790.95447   2186331.93362
  23514686.7974   -4945031.45045  -3808717.22161
 91  4 30 20 32 45.0000000  0  6G18G 2G11G16G19G 6
  22519346.6174   10136893.34846   7898862.47962
  21885471.5084   -9234410.69447  -7195619.59562
  23302047.078    -3016809.376 6  -2350745.95921
  23733732.7034   -2648376.89146  -1961758.79261
  21284961.2814    2822781.17847   2199571.06662
  23509883.7344   -4970269.49345  -3828383.12961
 91  4 30 20 33  0.0000000  0  6G18G 2G11G16G19G 6
  22528865.4384   10186923.47046   7937846.86961
  21880955.2274   -9258143.73947  -7214112.82262
  23303620.297    -3008538.733 6  -2344301.28121
  23734692.6954   -2643331.83945  -1957827.58461
  21288203.0004    2839827.39847   2212853.82962
  23505084.367    -4995489.132 5  -3848034.72421
 91  4 30 20 33 15.0000000  0  6G18G 2G11G16G19G 6
  22538402.398    10237032.707 6   7976892.92222
  21876454.3754   -9281792.19947  -7232540.13362
  23305222.0634   -3000112.11446  -2337735.05661
  23735679.1174   -2638149.77045  -1953789.60561
  21291460.0084    2856927.81047   2226178.82562
  23500287.8674   -5020692.11145  -3867673.31461
 91  4 30 20 33 30.0000000  0  6G18G 2G11G16G19G 6
  22547954.016    10287217.680 6   8015997.98821
  21871970.055    -9305358.898 7  -7250903.73722
  23306857.6094   -2991532.44246  -2331049.56961
  23736693.5394   -2632833.82346  -1949647.32061
  21294724.0944    2874079.46547   2239543.74762
  23495496.750    -5045881.321 5  -3887301.18821
 91  4 30 20 33 45.0000000  0  6G18G 2G11G16G19G 6
  22557516.945    10337479.373 6   8055162.83922
  21867501.8054   -9328842.38747  -7269202.50063
  23308518.1094   -2982798.34646  -2324243.74961
  23737725.680    -2627382.319 5  -1945399.40421
  21297996.8134    2891283.99047   2252949.87062
  23490703.328    -5071055.524 5  -3906917.37821
 91  4 30 20 34  0.0000000  0  6G18G 2G11G16G19G 6
  22567095.055    10387812.486 6   8094383.33522
  21863048.6334   -9352247.65947  -7287440.31762
  23310206.539    -2973915.015 6  -2317321.65121
  23738791.195    -2621800.720 5  -1941050.12321
  21301278.5164    2908536.26447   2266393.19762
  23485912.773    -5096219.895 5  -3926525.89521
 91  4 30 20 34 15.0000000  0  6G18G 2G11G16G19G 6
  22576688.125    10438220.011 6   8133661.81522
  21858610.0704   -9375571.43447  -7305614.63063
  23311928.0864   -2964879.27346  -2310280.78861
  23739877.3834   -2616085.85645  -1936596.98261
  21304571.8594    2925839.62347   2279876.33263
  23481125.8134   -5121371.18845  -3946124.21161
 91  4 30 20 34 30.0000000  0  6G18G 2G11G16G19G 6
  22586291.656    10488698.832 6   8172995.85521
  21854184.7974   -9398816.87647  -7323727.90263
  23313675.266    -2955694.168 6  -2303123.53921
  23740988.5944   -2610240.97345  -1932042.54261
  21307873.5864    2943191.02547   2293396.90462
  23476347.1954   -5146512.54145  -3965714.79961
 91  4 30 20 34 45.0000000  0  6G18G 2G11G16G19G 6
  22595911.930    10539249.303 6   8212385.72521
  21849777.0554   -9421983.13347  -7341779.47463
  23315454.6414   -2946358.91946  -2295849.28961
  23742127.5554   -2604265.58145  -1927386.39361
  21311184.3054    2960591.13447   2306955.42462
  23471560.4774   -5171643.24345  -3985297.08161
 91  4 30 20 35  0.0000000  0  6G18G 2G11G16G19G 6
  22605546.336    10589873.148 6   8251832.77222
  21845385.008    -9445068.450 7  -7359767.97823
  23317256.8444   -2936871.60446  -2288456.54961
  23743287.867    -2598157.742 5  -1922627.05721
  21314503.1094    2978041.96347   2320553.47163
  23466779.4534   -5196761.27445  -4004869.48661
 91  4 30 20 35 15.0000000  0  6G18G 2G11G16G19G 6
  22615193.305    10640571.101 6   8291337.56121
  21841008.6884   -9468071.88347  -7377692.67263
  23319092.1804   -2927231.29846  -2280944.59561
  23744476.7504   -2591916.45545  -1917763.72361
  21317837.0704    2995544.47447   2334191.78163
  23462005.648    -5221865.895 5  -4024431.44121
 91  4 30 20 35 30.0000000  0  6G18G 2G11G16G19G 6
  22624855.156    10691338.296 6   8330896.30621
  21836644.8834   -9490997.72147  -7395556.90463
  23320955.4694   -2917442.42646  -2273316.86561
  23745689.375    -2585546.444 5  -1912800.09021
  21321176.6334    3013094.31347   2347866.98162
  23457229.4304   -5246961.43945  -4043986.33561
 91  4 30 20 35 45.0000000  0  6G18G 2G11G16G19G 6
  22634529.586    10742176.556 6   8370510.42421
  21832298.125    -9513843.904 7  -7413359.07123
  23322847.039    -2907503.213 6  -2265572.00821
  23746926.6954   -2579045.88245  -1907734.73961
  21324525.6254    3030693.39647   2361580.55263
  23452455.1484   -5272045.93645  -4063532.61561
 91  4 30 20 36  0.0000000  0  6G18G 2G11G16G19G 6
  22644216.781    10793088.885 6   8410182.25721
  21827965.0004   -9536607.28747  -7431096.71663
  23324767.8284   -2897410.44146  -2257707.47461
  23748188.1884   -2572411.46045  -1902565.07861
  21327883.6254    3048345.03647   2375335.07562
  23447687.125    -5297116.443 6  -4083067.98821
 91  4 30 20 36 15.0000000  0  6G18G 2G11G16G19G 6
  22653918.148    10844073.786 6   8449910.63821
  21823649.906    -9559288.846 7  -7448770.60023
  23326716.7974   -2887165.15946  -2249724.11261
  23749473.711    -2565644.538 5  -1897292.16921
  21331251.9224    3066048.01747   2389129.60662
  23442917.6884   -5322174.11246  -4102593.35761
 91  4 30 20 36 30.0000000  0  6G18G 2G11G16G19G 6
  22663634.492    10895129.872 6   8489694.49721
  21819347.531    -9581889.986 7  -7466381.82423
  23328693.8984   -2876768.69346  -2241622.93661
  23750786.867    -2558746.869 5  -1891917.36821
  21334630.2034    3083801.00647   2402963.10263
  23438151.2424   -5347220.15045  -4122109.67961
 91  4 30 20 36 45.0000000  0  6G18G 2G11G16G19G 6
  22673363.078    10946253.857 6   8529531.25921
  21815061.570    -9604413.578 7  -7483932.62323
  23330698.9224   -2866223.98446  -2233406.24561
  23752125.344    -2551721.172 5  -1886442.81221
  21338020.0004    3101601.41347   2416833.55262
  23433385.938    -5372257.456 5  -4141619.18921
 91  4 30 20 37  0.0000000  0  6G18G 2G11G16G19G 6
  22683105.016    10997445.457 6   8569420.70921
  21810792.000    -9626859.703 7  -7501423.05723
  23332738.4064   -2855531.23346  -2225074.21161
  23753484.102    -2544567.512 5  -1880868.56921
  21341414.1094    3119449.09847   2430740.83762
  23428621.422    -5397286.226 5  -4161122.04921
 91  4 30 20 37 15.0000000  0  6G18G 2G11G16G19G 6
  22692858.844    11048707.460 6   8609365.01421
  21806534.938    -9649225.312 7  -7518850.74723
  23334800.9304   -2844687.36746  -2216624.41761
  23754872.805    -2537283.234 5  -1875192.51621
  21344819.5634    3137347.13847   2444687.36563
  23423859.695    -5422303.518 5  -4180615.96121
 91  4 30 20 37 30.0000000  0  6G18G 2G11G16G19G 6
  22702626.766    11100037.463 6   8649362.30621
  21802294.148    -9671512.505 7  -7536217.33923
  23336891.3594   -2833694.51046  -2208058.51661
  23756284.078    -2529870.340 5  -1869416.25921
  21348234.7344    3155293.46347   2458671.51562
  23419102.227    -5447311.282 5  -4200102.44621
 91  4 30 20 37 45.0000000  0  6G18G 2G11G16G19G 6
  22712409.875    11151437.875 6   8689414.46221
  21798066.445    -9693718.587 7  -7553520.72923
  23339014.3984   -2822550.03646  -2199374.48361
  23757718.0554   -2522326.56645  -1863538.01361
  21351661.0164    3173290.69047   2472695.33362
  23414347.055    -5472307.015 5  -4219579.56021
 91  4 30 20 38  0.0000000  0  6G18G 2G11G16G19G 6
  22722201.273    11202904.807 6   8729518.45521
  21793855.867    -9715847.364 7  -7570763.87723
  23341160.6174   -2811257.80046  -2190575.29861
  23759179.570    -2514655.848 5  -1857560.86021
  21355094.4304    3191335.03447   2486755.86262
  23409593.844    -5497294.545 6  -4239050.29021
 91  4 30 20 38 15.0000000  0  6G18G 2G11G16G19G 6
  22732009.7344   11254439.84746   8769675.51261
  21789661.180    -9737896.826 7  -7587945.22523
  23343337.0554   -2799815.65046  -2181659.30361
  23760664.484    -2506855.975 5  -1851483.03921
  21358537.8134    3209428.77447   2500854.87962
  23404839.5704   -5522271.91146  -4258513.09961
 91  4 30 20 38 30.0000000  0  6G18G 2G11G16G19G 6
  22741829.648    11306045.560 6   8809887.64121
  21785480.008    -9759864.258 7  -7605062.65123
  23345543.3594   -2788221.09746  -2172624.56561
  23762171.211    -2498924.759 5  -1845302.90721
  21361989.1094    3227574.48047   2514994.39062
  23400085.578    -5547236.491 5  -4277965.93021
 91  4 30 20 38 45.0000000  0  6G18G 2G11G16G19G 6
  22751662.2894   11357716.98746   8850150.96861
  21781315.828    -9781753.970 7  -7622119.52123
  23347778.688    -2776478.697 6  -2163474.62721
  23763704.883    -2490866.859 5  -1839024.04321
  21365452.5634    3245767.83047   2529171.03263
  23395336.2424   -5572192.68146  -4297412.24861
 91  4 30 20 39  0.0000000  0  6G18G 2G11G16G19G 6
  22761509.539    11409461.884 6   8890471.55921
  21777165.641    -9803557.980 7  -7639109.60623
  23350042.3594   -2764580.45746  -2154203.24461
  23765263.875    -2482674.257 5  -1832640.21821
  21368923.7424    3264016.71947   2543390.94462
  23390591.016    -5597132.559 5  -4316845.83421
 91  4 30 20 39 15.0000000  0  6G18G 2G11G16G19G 6
  22771369.570    11461274.738 6   8930845.10121
  21773032.313    -9825281.780 7  -7656037.19323
  23352336.2424   -2752531.75146  -2144814.61361
  23766850.1724   -2474352.21945  -1826155.54061
  21372406.7034    3282315.82547   2557649.98762
  23385850.492    -5622061.503 6  -4336270.90121
 91  4 30 20 39 30.0000000  0  6G18G 2G11G16G19G 6
  22781241.273    11513153.279 6   8971269.82421
  21768911.406    -9846927.240 7  -7672903.73323
  23354657.2974   -2740334.64046  -2135310.34461
  23768456.773    -2465903.090 5  -1819571.81921
  21375898.0864    3300663.09347   2571946.55862
  23381106.305    -5646981.616 5  -4355689.08721
 91  4 30 20 39 45.0000000  0  6G18G 2G11G16G19G 6
  22791127.859    11565100.808 6   9011748.31021
  21764808.141    -9868491.057 7  -7689706.65823
  23357007.539    -2727985.685 6  -2125687.76021
  23770087.6174   -2457323.58845  -1812886.52761
  21379398.9384    3319062.01347   2586283.38162
  23376366.273    -5671889.391 6  -4375097.66321
 91  4 30 20 40  0.0000000  0  6G18G 2G11G16G19G 6
  22801025.2274   11617112.22546   9052276.57261
  21760720.211    -9889977.892 7  -7706449.59323
  23359385.2974   -2715489.63246  -2115950.55461
  23771747.0314   -2448618.53145  -1806103.40061
  21382912.9454    3337507.96547   2600656.84962
  23371625.891    -5696789.561 5  -4394500.31521
 91  4 30 20 40 15.0000000  0  6G18G 2G11G16G19G 6
  22810935.6414   11669191.47946   9092857.69761
  21756647.102    -9911383.649 7  -7723129.35723
  23361791.484    -2702842.586 6  -2106095.69321
  23773425.2734   -2439783.65045  -1799219.09961
  21386430.6724    3356005.12347   2615070.21762
  23366893.492    -5721678.122 6  -4413893.91821
 91  4 30 20 40 30.0000000  0  6G18G 2G11G16G19G 6
  22820857.211    11721339.090 6   9133492.08421
  21752589.719    -9932707.328 7  -7739745.16423
  23364226.023    -2690043.503 6  -2096122.35921
  23775133.039    -2430818.617 5  -1792233.37021
  21389959.1094    3374554.50547   2629524.27762
  23362161.688    -5746554.113 6  -4433277.72821
 91  4 30 20 40 45.0000000  0  6G18G 2G11G16G19G 6
  22830792.602    11773552.685 6   9174177.89521
  21748546.766    -9953951.233 7  -7756298.80623
  23366692.5864   -2677094.61146  -2086032.28761
  23776862.2274   -2421725.72945  -1785148.02661
  21393498.3594    3393153.89547   2644017.30462
  23357427.8204   -5771419.85246  -4452653.53761
 91  4 30 20 41  0.0000000  0  6G18G 2G11G16G19G 6
  22840743.648    11825831.822 6   9214914.76821
  21744519.938    -9975115.305 7  -7772790.23923
  23369181.9304   -2663996.18046  -2075825.69561
  23778618.0164   -2412505.32545  -1777963.32161
  21397049.7894    3411803.15047   2658549.18862
  23352694.445    -5796275.340 6  -4472021.38321
 91  4 30 20 41 15.0000000  0  6G18G 2G11G16G19G 6
  22850704.164    11878174.731 6   9255701.33821
  21740506.805    -9996201.572 7  -7789221.05023
  23371704.938    -2650750.071 6  -2065504.02721
  23780396.914    -2403159.002 5  -1770680.50621
  21400605.1564    3430500.52647   2673118.56762
  23347969.547    -5821122.565 6  -4491382.77421
 91  4 30 20 41 30.0000000  0  6G18G 2G11G16G19G 6
  22860676.086    11930582.965 6   9296538.80821
  21736509.438   -10017207.803 7  -7805589.49223
  23374253.844    -2637354.114 6  -2055065.60621
  23782198.2584   -2393685.00345  -1763298.18561
  21404172.3134    3449248.22447   2687727.15662
  23343239.930    -5845959.412 6  -4510736.08121
 91  4 30 20 41 45.0010000  0  6G18G 2G11G16G19G 6
  22870662.7004   11983059.75746   9337429.70361
  21732527.489   -10038135.320 7  -7821896.59323
  23376832.4424   -2623807.63046  -2044509.89761
  23784024.630    -2384082.831 5  -1755816.01121
  21407749.9664    3468047.50047   2702375.93362
  23338518.497    -5870787.515 6  -4530082.58321
 91  4 30 20 42  0.0010000  0  6G18G 2G11G16G19G 6
  22880658.606    12035599.071 6   9378369.31521
  21728560.341   -10058979.993 7  -7838139.14823
  23379436.583    -2610111.095 6  -2033837.26721
  23785879.286    -2374352.552 5  -1748233.99021
  21411340.5364    3486897.23847   2717064.03462
  23333795.505    -5895602.341 6  -4549418.73021
 91  4 30 20 42 15.0010000  0  6G18G 2G11G16G19G 6
  22890670.2944   12088206.13646   9419361.71861
  21724609.786   -10079741.371 7  -7854316.79723
  23382071.8804   -2596261.79346  -2023045.57361
  23787754.5214   -2364491.69745  -1740550.23761
  21414935.4894    3505800.78247   2731794.06562
  23329074.677    -5920403.626 6  -4568744.33121
 91  4 30 20 42 30.0010000  0  6G18G 2G11G16G19G 6
  22900694.380    12140877.556 6   9460404.26521
  21720673.880   -10100422.759 7  -7870432.11223
  23384738.661    -2582263.037 6  -2012137.43021
  23789655.942    -2354504.123 5  -1732767.73921
  21418544.2004    3524754.67947   2746563.33562
  23324358.239    -5945194.704 6  -4588061.97921
 91  4 30 20 42 45.0010000  0  6G18G 2G11G16G19G 6
  22910728.700    12193614.258 6   9501497.68321
  21716753.888   -10121022.800 7  -7886484.03923
  23387429.3334   -2568113.64646  -2001111.90661
  23791580.6224   -2344388.48845  -1724885.46261
  21422157.7474    3543760.09347   2761372.74362
  23319639.8644   -5969974.15546  -4607370.57361
 91  4 30 20 43  0.0010000  0  6G18G 2G11G16G19G 6
  22920778.958    12246418.416 6   9542643.66921
  21712849.942   -10141538.930 7  -7902470.58723
  23390152.271    -2553811.082 6  -1989967.03221
  23793527.3254   -2334142.32245  -1716901.46361
  21425786.8644    3562819.89847   2776224.53162
  23314929.450    -5994739.536 6  -4626668.18221
 91  4 30 20 43 15.0010000  0  6G18G 2G11G16G19G 6
  22930839.489    12299287.589 6   9583840.31221
  21708960.841   -10161973.418 7  -7918393.51223
  23392902.349    -2539357.699 6  -1978704.63221
  23795503.122    -2323767.675 5  -1708817.34721
  21429421.9274    3581931.89347   2791116.98962
  23310219.349    -6019493.194 6  -4645956.67921
 91  4 30 20 43 30.0010000  0  6G18G 2G11G16G19G 6
  22940911.919    12352218.494 6   9625085.05721
  21705087.099   -10182329.571 7  -7934255.39623
  23395679.974    -2524756.867 6  -1967327.33421
  23797504.9424   -2313268.37945  -1700636.11061
  21433067.7864    3601092.77547   2806047.54362
  23305513.474    -6044238.429 6  -4665238.60321
 91  4 30 20 43 45.0010000  0  6G18G 2G11G16G19G 6
  22950996.403    12405212.083 6   9666378.64421
  21701230.208   -10202606.025 7  -7950055.18123
  23398488.419    -2510007.299 6  -1955834.13921
  23799524.091    -2302643.316 5  -1692356.87321
  21436723.2164    3620303.99347   2821017.31862
  23300804.716    -6068973.874 6  -4684512.90021
 91  4 30 20 44  0.0010000  0  6G18G 2G11G16G19G 6
  22961093.3104   12458270.80446   9707722.98161
  21697385.560   -10222800.079 7  -7965790.75523
  23401324.716    -2495106.159 6  -1944222.84821
  23801569.9584   -2291889.49145  -1683977.30761
  21440392.1924    3639568.35247   2836028.50062
  23296099.825    -6093696.698 6  -4703777.37121
 91  4 30 20 44 15.0010000  0  6G18G 2G11G16G19G 6
  22971202.4974   12511390.83046   9749115.08661
  21693556.981   -10242915.200 7  -7981464.82923
  23404183.7634   -2480057.16446  -1932496.33161
  23803641.802    -2281010.715 5  -1675500.36421
  21444066.6924    3658882.32047   2851078.34162
  23291396.411    -6118410.578 6  -4723034.86421
 91  4 30 20 44 30.0010000  0  6G18G 2G11G16G19G 6
  22981323.9504   12564572.42946   9790555.17461
  21689744.786   -10262950.981 7  -7997077.07223
  23407078.9114   -2464860.09446  -1920654.44561
  23805738.2164   -2270006.90345  -1666925.99561
  21447750.2634    3678246.33547   2866167.17862
  23286694.966    -6143115.031 6  -4742285.01421
 91  4 30 20 44 45.0010000  0  6G18G 2G11G16G19G 6
  22991453.1614   12617816.16746   9832043.67861
  21685947.122   -10282906.711 7  -8012626.94523
  23410000.419    -2449514.143 6  -1908696.54321
  23807849.677    -2258877.313 5  -1658253.62221
  21451444.6384    3697661.19947   2881295.63962
  23281997.528    -6167809.368 6  -4761527.28621
 91  4 30 20 45  0.0010000  0  6G18G 2G11G16G19G 6
  23001595.5914   12671121.15746   9873579.91161
  21682165.372   -10302782.482 7  -8028114.50623
  23412947.333    -2434019.559 6  -1896622.81721
  23809991.997    -2247622.666 5  -1649483.79221
  21455150.8564    3717126.61347   2896463.49162
  23277299.138    -6192493.723 6  -4780761.77721
 91  4 30 20 45 15.0010000  0  6G18G 2G11G16G19G 6
  23011752.4814   12724487.27446   9915163.77461
  21678396.864   -10322578.340 7  -8043539.80023
  23415922.349    -2418376.590 6  -1884433.47621
  23812159.5524   -2236242.95145  -1640616.52061
  21458862.9894    3736642.70347   2911670.82662
  23272603.8964   -6217168.32246  -4799988.65361
 91  4 30 20 45 30.0010000  0  6G18G 2G11G16G19G 6
  23021918.1304   12777916.62146   9956796.90161
  21674646.958   -10342291.986 7  -8058901.03423
  23418928.325    -2402582.856 6  -1872126.65721
  23814350.4034   -2224736.08645  -1631650.16561
  21462586.4504    3756212.06347   2926919.66962
  23267908.435    -6241830.567 6  -4819205.91321
 91  4 30 20 45 45.0010000  0  6G18G 2G11G16G19G 6
  23032098.4114   12831410.10646   9998480.01461
  21670911.481   -10361922.538 7  -8074197.51723
  23421962.396    -2386637.519 6  -1859701.70821
  23816560.731    -2213101.209 5  -1622584.05321
  21466321.3334    3775835.59247   2942210.73062
  23263216.6464   -6266479.77546  -4838413.02261
 91  4 30 20 46  0.0010000  0  6G18G 2G11G16G19G 6
  23042291.4424   12884968.58446  10040213.75961
  21667191.481   -10381468.794 7  -8089428.31723
  23425027.8644   -2370539.55646  -1847157.83161
  23818799.6304   -2201337.58545  -1613417.63461
  21470068.0914    3795514.26147   2957544.74962
  23258532.638    -6291114.641 6  -4857608.95021
 91  4 30 20 46 15.0010000  0  6G18G 2G11G16G19G 6
  23052495.3494   12938594.53646  10082000.09061
  21663489.739   -10400927.984 7  -8104591.27323
  23428116.5994   -2354286.24746  -1834492.90461
  23821065.997    -2189442.207 5  -1604148.53221
  21473822.5364    3815250.95747   2972923.98962
  23253844.8414   -6315732.58646  -4876791.69561
 91  4 30 20 46 30.0010000  0  6G18G 2G11G16G19G 6
  23062714.419    12992282.257 6  10123834.54521
  21659802.560   -10420305.362 7  -8119690.48023
  23431239.4424   -2337882.83346  -1821711.01261
  23823354.458    -2177420.503 5  -1594781.00821
  21477587.7474    3835040.64947   2988344.51862
  23249165.278    -6340338.671 6  -4895965.19021
 91  4 30 20 46 45.0010000  0  6G18G 2G11G16G19G 6
  23072941.185    13046034.856 6  10165719.55321
  21656130.966   -10439597.567 7  -8134723.31923
  23434391.9974   -2321326.20146  -1808809.73461
  23825668.3104   -2165269.53745  -1585312.76261
  21481363.2554    3854886.60047   3003808.88762
  23244486.2714   -6364929.80446  -4915127.04261
 91  4 30 20 47  0.0010000  0  6G18G 2G11G16G19G 6
  23083181.966    13099849.627 6  10207653.01521
  21652475.122   -10458807.152 7  -8149691.78023
  23437571.122    -2304618.837 6  -1795790.99021
  23828002.653    -2152991.859 5  -1575745.78421
  21485149.2244    3874786.34347   3019315.17462
  23239806.122    -6389508.354 6  -4934279.10121
 91  4 30 20 47 15.0010000  0  6G18G 2G11G16G19G 6
  23093435.3254   13153731.30346  10249638.60661
  21648836.950   -10477929.080 7  -8164591.93523
  23440781.177    -2287755.819 6  -1782650.96721
  23830363.4584   -2140582.82145  -1566076.43661
  21488947.8254    3894744.94847   3034867.32362
  23235132.6614   -6414069.33546  -4953417.45561
 91  4 30 20 47 30.0010000  0  6G18G 2G11G16G19G 6
  23103702.5754   13207675.32546  10291672.78161
  21645212.731   -10496967.525 7  -8179427.04223
  23444017.239    -2270741.442 6  -1769392.99821
  23832748.6144   -2128046.61145  -1556307.99661
  21492755.5284    3914758.32247   3050462.15462
  23230461.872    -6438616.928 6  -4972545.37821
 91  4 30 20 47 45.0010000  0  6G18G 2G11G16G19G 6
  23113976.481    13261680.467 6  10333754.57421
  21641606.864   -10515923.522 7  -8194197.90323
  23447283.7474   -2253576.92446  -1756018.03861
  23835157.1064   -2115384.34745  -1546441.33661
  21496575.724     3934825.350 7   3066098.78922
  23225791.224    -6463152.258 6  -4991663.74521
 91  4 30 20 48  0.0010000  0  6G18G 2G11G16G19G 6
  23124266.0604   13315746.20346  10375883.59261
  21638012.935   -10534797.296 7  -8208904.69623
  23450577.481    -2236262.661 6  -1742526.39621
  23837590.966    -2102596.516 5  -1536476.84321
  21500404.4744    3954945.90747   3081777.14262
  23221127.2394   -6487675.56546  -5010772.74761
 91  4 30 20 48 15.0010000  0  6G18G 2G11G16G19G 6
  23134566.060    13369873.104 6  10418060.26721
  21634439.099   -10553588.225 7  -8223546.93223
  23453901.380    -2218798.059 6  -1728917.60721
  23840049.5914   -2089682.58145  -1526414.06361
  21504243.6694    3975120.64547   3097497.71062
  23216460.9744   -6512186.14246  -5029871.82961
 91  4 30 20 48 30.0010000  0  6G18G 2G11G16G19G 6
  23144878.8564   13424057.54046  10460281.77861
  21630877.911   -10572299.278 7  -8238126.92923
  23457255.4504   -2201186.18146  -1715194.05561
  23842531.5134   -2076645.86145  -1516255.61261
  21508090.9664    3995346.59547   3113258.18162
  23211797.021    -6536687.029 6  -5048963.35521
 91  4 30 20 48 45.0010000  0  6G18G 2G11G16G19G 6
  23155198.8564   13478301.47946  10502549.65061
  21627332.075   -10590928.674 7  -8252643.30023
  23460632.0054   -2183425.28946  -1701354.38861
  23845036.3024   -2063484.90645  -1506000.36961
  21511952.4504    4015625.73747   3129060.10262
  23207137.325    -6561176.327 6  -5068045.85521
 91  4 30 20 49  0.0010000  0  6G18G 2G11G16G19G 6
  23165535.271    13532606.765 6  10544865.32121
  21623804.146   -10609474.148 7  -8267094.27623
  23464041.4034   -2165513.27646  -1687396.97161
  23847562.942    -2050197.514 5  -1495646.59921
  21515820.1774    4035960.17547   3144905.11062
  23202481.911    -6585651.952 6  -5087117.70421
 91  4 30 20 49 15.0010000  0  6G18G 2G11G16G19G 6
  23175879.263    13586974.350 6  10587229.53221
  21620290.4584  -10627934.43347  -8281478.87263
  23467479.177    -2147449.047 6  -1673320.93421
  23850114.2164   -2036782.50045  -1485193.38661
  21519702.2714    4056351.44047   3160794.40262
  23197826.2554   -6610112.57946  -5106177.85861
 91  4 30 20 49 30.0010000  0  6G18G 2G11G16G19G 6
  23186235.911    13641401.980 6  10629640.53621
  21616793.4034  -10646311.43447  -8295798.57163
  23470944.888    -2129234.509 6  -1659127.77421
  23852692.2164   -2023241.84245  -1474642.25761
  21523590.7554    4076797.71647   3176726.55562
  23193174.747    -6634560.106 6  -5125227.80621
 91  4 30 20 49 45.0010000  0  6G18G 2G11G16G19G 6
  23196605.380    13695889.001 6  10672097.81821
  21613312.216   -10664605.826 7  -8310053.90223
  23474439.630    -2110870.148 6  -1644817.85921
  23855296.161    -2009576.537 5  -1463994.00921
  21527494.263     4097298.398 7   3192701.10122
  23188524.989    -6658994.934 6  -5144267.86021
 91  4 30 20 50  0.0010000  0  6G18G 2G11G16G19G 6
  23206984.036    13750431.183 6  10714598.08821
  21609845.4974  -10682821.29447  -8324247.73063
  23477964.0914   -2092360.03846  -1630394.38861
  23857916.810    -1995790.352 5  -1453251.55721
  21531402.7164    4117849.60747   3208715.01862
  23183876.7944   -6683421.10546  -5163301.17361
 91  4 30 20 50 15.0010000  0  6G18G 2G11G16G19G 6
  23217376.505    13805039.259 6  10757149.70021
  21606398.052   -10700947.042 7  -8338371.64623
  23481513.856    -2073693.614 6  -1615849.11021
  23860566.200    -1981872.789 5  -1442406.75521
  21535325.685     4138462.205 7   3224776.77222
  23179233.825    -6707827.831 6  -5182319.31921
 91  4 30 20 50 30.0010000  0  6G18G 2G11G16G19G 6
  23227779.786    13859708.788 6  10799749.19521
  21602963.5604  -10718987.09647  -8352428.79663
  23485092.7244   -2054875.00546  -1601185.24761
  23863237.9974   -1967828.04445  -1431462.84561
  21539261.130     4159132.273 7   3240883.30122
  23174591.8494   -6732219.03146  -5201325.38461
 91  4 30 20 50 45.0010000  0  6G18G 2G11G16G19G 6
  23238197.4354   13914439.64546  10842396.47661
  21599546.7004  -10736941.49147  -8366419.19263
  23488701.841    -2035903.947 6  -1586402.59621
  23865935.2474   -1953656.47345  -1420420.09961
  21543205.606     4179860.045 7   3257034.80022
  23169949.833    -6756594.636 6  -5220319.29621
 91  4 30 20 51  0.0010000  0  6G18G 2G11G16G19G 6
  23248623.263    13969231.320 6  10885091.15221
  21596147.013   -10754810.296 7  -8380342.89423
  23492341.9034   -2016780.91646  -1571501.51761
  23868655.755    -1939358.161 5  -1409278.60021
  21547161.716     4200645.231 7   3273231.03422
  23165317.411    -6780954.786 6  -5239301.15121
 91  4 30 20 51 15.0010000  0  6G18G 2G11G16G19G 6
  23259061.544    14024083.973 6  10927833.33221
  21592763.3414  -10772593.31447  -8394199.75163
  23496008.8644   -1997505.90446  -1556482.02261
  23871397.8414   -1924933.28145  -1398038.48761
  21551126.6304    4221488.16447   3289472.27262
  23160685.583    -6805299.344 6  -5258270.87121
 91  4 30 20 51 30.0010000  0  6G18G 2G11G16G19G 6
  23269509.724    14078993.467 6  10970619.81421
  21589393.9194  -10790294.51447  -8407992.85463
  23499707.755    -1978082.768 6  -1541347.10121
  23874170.4114   -1910385.73645  -1386702.76461
  21555103.888     4242385.208 7   3305755.66922
  23156052.2784   -6829632.14146  -5277231.41961
 91  4 30 20 51 45.0010000  0  6G18G 2G11G16G19G 6
  23279970.1924   14133963.47046  11013453.44261
  21586042.606   -10807909.755 7  -8421718.97223
  23503431.106    -1958507.556 6  -1526093.68221
  23876959.044    -1895711.538 5  -1375268.36321
  21559092.755     4263340.497 7   3322084.45222
  23151426.4114   -6853949.09946  -5296179.63161
 91  4 30 20 52  0.0010000  0  6G18G 2G11G16G19G 6
  23290440.5054   14188991.41046  11056332.21561
  21582705.0444  -10825441.31547  -8435379.88763
  23507186.3414   -1938782.72546  -1510723.67961
  23879778.083    -1880913.114 5  -1363737.18521
  21563087.661     4284351.630 7   3338456.74522
  23146801.2394   -6878252.45846  -5315117.23561
 91  4 30 20 52 15.0010000  0  6G18G 2G11G16G19G 6
  23300925.6224   14244077.55346  11099256.34161
  21579385.7244  -10842888.46247  -8448975.02663
  23510970.5364   -1918907.65946  -1495236.60661
  23882620.903    -1865990.184 5  -1352108.97821
  21567095.7864    4305419.37347   3354873.16062
  23142176.8334   -6902541.51946  -5334043.70661
 91  4 30 20 52 30.0010000  0  6G18G 2G11G16G19G 6
  23311419.7394   14299221.20146  11142225.26861
  21576081.630   -10860251.971 7  -8462504.99023
  23514782.1384   -1898883.05846  -1479633.02761
  23885480.489    -1850943.528 5  -1340384.34221
  21571120.2394    4326543.04547   3371333.15262
  23137560.896    -6926816.936 6  -5352959.53821
 91  4 30 20 52 45.0010000  0  6G18G 2G11G16G19G 6
  23321920.505    14354420.299 6  11185237.41921
  21572792.3644  -10877533.64347  -8475971.19063
  23518617.6144   -1878710.88746  -1463914.45161
  23888368.052    -1835774.945 5  -1328564.72621
  21575148.6144    4347720.76747   3387835.26362
  23132942.810    -6951080.536 6  -5371866.17521
 91  4 30 20 53  0.0010000  0  6G18G 2G11G16G19G 6
  23332436.0284   14409675.22146  11228293.05761
  21569520.036   -10894732.667 7  -8489372.98423
  23522486.6694   -1858390.43346  -1448080.33561
  23891277.130    -1820483.934 5  -1316649.67721
  21579186.0754    4368953.67647   3404380.38162
  23128329.114    -6975331.434 6  -5390762.90521
 91  4 30 20 53 15.0010000  0  6G18G 2G11G16G19G 6
  23342962.935    14464986.123 6  11271392.32221
  21566264.3494  -10911848.80247  -8502710.19363
  23526378.6924   -1837921.57446  -1432130.57761
  23894212.427    -1805070.770 5  -1304639.46821
  21583239.7714    4390242.16847   3420968.80262
  23123714.169    -6999569.423 6  -5409649.57021
 91  4 30 20 53 30.0010000  0  6G18G 2G11G16G19G 6
  23353497.3334   14520349.36246  11314532.35561
  21563021.4194  -10928885.63347  -8515985.60163
  23530305.0524   -1817308.09746  -1416068.12361
  23897165.5284   -1789539.13345  -1292536.93761
  21587300.942     4411582.409 7   3437597.54922
  23119103.5754   -7023798.04646  -5428528.95561
 91  4 30 20 53 45.0010000  0  6G18G 2G11G16G19G 6
  23364045.231    14575771.744 6  11357718.48421
  21559794.942   -10945835.829 7  -8529193.50523
  23534254.177    -1796542.912 6  -1399887.45521
  23900147.067    -1773881.829 5  -1280336.48221
  21591372.489     4432981.662 7   3454272.27722
  23114496.4504   -7048010.15346  -5447395.45761
 91  4 30 20 54  0.0010000  0  6G18G 2G11G16G19G 6
  23374602.0364   14631250.09346  11400948.21661
  21556584.8724  -10962702.05347  -8542335.97763
  23538235.2474   -1775628.70646  -1383590.66561
  23903146.302    -1758101.853 5  -1268040.44321
  21595453.271     4454437.681 7   3470991.23922
  23109893.880    -7072208.376 6  -5466251.13721
 91  4 30 20 54 15.0010000  0  6G18G 2G11G16G19G 6
  23385168.8494   14686782.53746  11444220.10061
  21553392.5834  -10979486.17747  -8555414.47863
  23542242.5914   -1754567.50546  -1367179.33061
  23906174.099    -1742201.198 5  -1255650.36221
  21599547.966     4475948.442 7   3487752.85522
  23105287.716    -7096394.504 6  -5485097.39721
 91  4 30 20 54 30.0010000  0  6G18G 2G11G16G19G 6
  23395746.1144   14742369.65546  11487534.59161
  21550213.903   -10996187.536 7  -8568428.48023
  23546277.474    -1733358.609 6  -1350652.91421
  23909224.067    -1726179.326 5  -1243165.83321
  21603654.6464    4497514.81147   3504557.80662
  23100688.310    -7120567.818 6  -5503933.67221
 91  4 30 20 54 45.0010000  0  6G18G 2G11G16G19G 6
  23406334.6854   14798012.59546  11530892.58361
  21547052.1304  -11012804.27647  -8581376.55263
  23550340.4034   -1712000.31346  -1334010.08861
  23912297.646    -1710034.298 5  -1230585.33021
  21607768.388     4519138.870 7   3521407.71322
  23096091.7004   -7144726.40346  -5522758.46461
 91  4 30 20 55  0.0010000  0  6G18G 2G11G16G19G 6
  23416934.0994   14853708.71546  11574292.01161
  21543904.5834  -11029339.11647  -8594260.80263
  23554434.6854   -1690495.52546  -1317253.10461
  23915390.161    -1693769.188 5  -1217911.24821
  21611895.5214    4540817.83047   3538300.39962
  23091495.442    -7168872.975 6  -5541573.91021
 91  4 30 20 55 15.0010000  0  6G18G 2G11G16G19G 6
  23427543.6614   14909462.47046  11617736.34761
  21540775.1224  -11045787.70447  -8607077.84463
  23558556.2554   -1668839.97946
  23918510.8024   -1677379.95845  -1205140.48761
  21616030.716     4562556.017 7
  23086905.3724   -7193003.12846  -5560376.55961
 91  4 30 20 55 30.0010000  0  6G18G 2G11G16G19G 6
  23438164.2244   14965275.56546  11661226.92361
  21537662.489   -11062147.508 7  -8619825.69623
  23562704.8564   -1647031.18446
  23921654.231    -1660864.301 5  -1192271.17621
  21620180.755     4584356.083 7
  23082315.739    -7217114.323 6  -5579164.42721
 91  4 30 20 55 45.0010000  0  6G18G 2G11G16G19G 6
  23448798.302    15021143.696 6  11704760.36721
  21534564.9584  -11078422.56147  -8632507.51663
  23566882.5444   -1625073.50846  -1266274.90161
  23924820.9114   -1644226.81945  -1179306.94861
  21624338.802     4606214.027 7   3589258.42822
  23077730.903    -7241210.695 6  -5597940.75321
 91  4 30 20 56  0.0010000  0  6G18G 2G11G16G19G 6
  23459438.6064   15077068.46846  11748337.96161
  21531485.1144  -11094611.25347  -8645122.04263
  23571090.4894   -1602965.35846  -1249047.77761
  23928003.880    -1627465.540 5  -1166246.26021
  21628507.685     4628131.597 7   3606337.03722
  23073146.6694   -7265290.38346  -5616704.07561
 91  4 30 20 56 15.0010000  0  6G18G 2G11G16G19G 6
  23470092.4664   15133047.23846  11791957.61561
  21528419.3884  -11110715.95847  -8657671.12463
  23575327.0134   -1580709.24946  -1231705.36161
  23931221.3644   -1610583.08845  -1153091.16961
  21632690.974     4650106.462 7   3623460.28622
  23068569.1144   -7289355.79546  -5635456.28361
 91  4 30 20 56 30.0010000  0  6G18G 2G11G16G19G 6
  23480754.380    15189081.092 6  11835620.20321
  21525372.403   -11126735.348 7  -8670153.72523
  23579590.7634   -1558304.03746  -1214246.75061
  23934456.052    -1593578.659 5  -1139841.00421
  21636883.161     4672139.814 7   3640629.11322
  23063995.731    -7313405.705 6  -5654196.40221
 91  4 30 20 56 45.0010000  0  6G18G 2G11G16G19G 6
  23491426.8254   15245172.24246  11879327.44061
  21522340.1224  -11142666.83147  -8682567.82663
  23583881.5054   -1535747.16246  -1196669.96561
  23937715.856    -1576449.420 5  -1126493.59721
  21641087.435     4694234.517 7   3657845.74722
  23059419.521    -7337437.444 6  -5672922.35921
 91  4 30 20 57  0.0010000  0  6G18G 2G11G16G19G 6
  23502111.4974   15301317.57346  11923076.89361
  21519324.7554  -11158513.28147  -8694915.67263
  23588201.0754   -1513041.72546  -1178977.42261
  23940996.747    -1559198.723 5  -1113051.53921
  21645302.958     4716387.631 7   3675107.89122
  23054848.2634   -7361453.78046  -5691636.32161
 91  4 30 20 57 15.0010000  0  6G18G 2G11G16G19G 6
  23512807.2634   15357519.80246  11966870.68561
  21516324.9354  -11174271.91447  -8707195.08663
  23592553.2244   -1490184.85746  -1161166.88561
  23944309.2634   -1541823.81845  -1099512.69961
  21649528.997     4738602.152 7   3692417.89322
  23050282.325    -7385451.816 6  -5710336.01321
 91  4 30 20 57 30.0010000  0  6G18G 2G11G16G19G 6
  23523513.1304   15413778.11246  12010708.17461
  21513342.7084  -11189943.14947  -8719406.40163
  23596930.927    -1467177.320 6  -1143238.93921
  23947633.7314   -1524325.48445  -1085877.68161
  21653770.419     4760877.687 7   3709775.43122
  23045721.481    -7409432.257 6  -5729022.00721
 91  4 30 20 57 45.0010000  0  6G18G 2G11G16G19G 6
  23534227.4354   15470088.67646  12054586.38861
  21510377.2004  -11205530.67547  -8731552.48763
  23601338.0834   -1444022.99146  -1125196.62161
  23950988.4584   -1506707.95845  -1072149.79061
  21658016.755     4783210.544 7   3727177.63622
  23041157.7084   -7433398.63546  -5747697.03861
 91  4 30 20 58  0.0010000  0  6G18G 2G11G16G19G 6
  23544955.4664   15526449.93446  12098504.09261
  21507427.9814  -11221035.31447  -8743633.98663
  23605769.8564   -1420722.78146  -1107040.63361
  23954363.6144   -1488972.05045  -1058329.65861
  21662278.669     4805599.861 7   3744623.83522
  23036603.5134   -7457351.76946  -5766361.73761
 91  4 30 20 58 15.0010000  0  6G18G 2G11G16G19G 6
  23555688.278    15582862.200 6  12142461.55521
  21504492.4664  -11236457.10047  -8755650.92463
  23610230.7474   -1397276.53746  -1088770.82761
  23957761.224    -1471117.641 5  -1044417.17521
  21666550.013     4828046.054 7   3762114.35522
  23032046.856    -7481291.360 6  -5785015.90421
 91  4 30 20 58 30.0010000  0  6G18G 2G11G16G19G 6
  23566433.364    15639326.448 6  12186459.50721
  21501572.7554  -11251794.57847  -8767602.17363
  23614722.5134   -1373683.13946  -1070386.37161
  23961181.599    -1453143.515 5  -1030411.42421
  21670834.856     4850550.589 7   3779650.33722
  23027491.7714   -7505216.08146  -5803658.47461
 91  4 30 20 58 45.0010000  0  6G18G 2G11G16G19G 6
  23577189.021    15695840.656 6  12230496.38721
  21498669.5604  -11267049.50947  -8779489.09263
  23619240.4354   -1349944.65646  -1051888.85661
  23964619.739    -1435051.992 5  -1016314.17221
  21675125.942     4873111.679 7   3797230.38422
  23022942.278    -7529127.719 6  -5822290.84421
 91  4 30 20 59  0.0010000  0  6G18G 2G11G16G19G 6
  23587951.653    15752400.148 6  12274568.55121
  21495782.356   -11282226.314 7  -8791315.13223
  23623780.9894   -1326065.68846  -1033281.88361
  23968087.263    -1416847.465 5  -1002128.87621
  21679430.739     4895724.972 7   3814851.12022
  23018392.3884   -7553030.72646  -5840916.50261
 91  4 30 20 59 15.0010000  0  6G18G 2G11G16G19G 6
  23598720.2394   15809005.57246  12318676.52061
  21492908.5524  -11297324.22247  -8803079.69563
  23628353.0604   -1302045.31546  -1014564.71661
  23971574.731    -1398529.271 5   -987855.00721
  21683744.942     4918391.296 7   3832513.17722
  23013846.1064   -7576924.02846  -5859534.58661
 91  4 30 20 59 30.0010000  0  6G18G 2G11G16G19G 6
  23609502.6614   15865659.22646  12362822.06161
  21490051.2244  -11312340.56447  -8814780.70363
  23632950.2554   -1277881.12646   -995735.48461
  23975081.833    -1380095.047 5   -973490.71921
  21688065.950     4941113.570 7   3850218.82322
  23009303.3104   -7600805.07446  -5878143.12161
 91  4 30 20 59 45.0010000  0  6G18G 2G11G16G19G 6
  23620294.302    15922358.483 6  12407003.12721
  21487208.4744  -11327278.01047  -8826420.23463
  23637576.0914   -1253575.94946   -976796.40061
  23978611.669    -1361547.326 5   -959038.01221
  21692402.489     4963889.098 7   3867965.97022
  23004760.8644   -7624676.43346  -5896744.11261
 91  4 30 21  0  0.0010000  0  6G18G 2G11G16G19G 6
  23631091.200    15979103.289 6  12451219.70721
  21484382.0364  -11342135.81947  -8837997.70663
  23642228.0834   -1229129.32546   -957747.09461
  23982161.239    -1342886.190 5   -944496.91121
  21696745.700     4986718.388 7   3885755.00522
  23000216.427    -7648537.437 6  -5915337.03321
 91  4 30 21  0 15.0010000  0  6G18G 2G11G16G19G 6
  23641898.622    16035894.703 6  12495472.58521
  21481569.2004  -11356912.93047  -8849512.29963
  23646907.286    -1204540.211 6   -938586.76221
  23985736.2634   -1324110.59645   -929866.62961
  21701101.325     5009602.820 7   3903587.00822
  22995679.7944   -7672386.92746  -5933920.98061
 91  4 30 21  0 30.0010000  0  6G18G 2G11G16G19G 6
  23652714.4274   16092734.81846  12539763.41661
  21478773.6304  -11371607.03947  -8860962.21663
  23651613.700    -1179806.428 6   -919313.69721
  23989331.489    -1305218.524 5   -915145.57921
  21705463.583     5032544.723 7   3921463.79522
  22991142.9814   -7696222.60546  -5952494.16861
 91  4 30 21  0 45.0010000  0  6G18G 2G11G16G19G 6
  23663540.974    16149623.601 6  12584092.17221
  21475992.9744  -11386218.15547  -8872347.46363
  23656352.5604   -1154927.96346   -899927.89561
  23992944.5444   -1286210.03745   -900333.83661
  21709841.481     5055544.307 7   3939385.53422
  22986611.028    -7720044.227 6  -5971056.40221
 91  4 30 21  1  0.0010000  0  6G18G 2G11G16G19G 6
  23674375.4274   16206558.93546  12628457.20161
  21473228.0524  -11400747.85847  -8883669.27163
  23661108.9504   -1129906.73846   -880430.84061
  23996584.294    -1267087.027 5   -885432.83221
  21714227.536     5078599.951 7   3957350.94722
  22982078.3334   -7743853.53546  -5989609.03861
 91  4 30 21  1 15.0010000  0  6G18G 2G11G16G19G 6
  23685218.560    16263544.794 6  12672861.60021
  21470480.2314  -11415192.03447  -8894924.43663
  23665899.0134   -1104738.78746   -860819.45561
  24000249.614    -1247845.739 5   -870439.67021
  21718629.083     5101715.859 6   3975363.32222
  22977553.8804   -7767646.38046  -6008148.84261
 91  4 30 21  1 30.0010000  0  6G18G 2G11G16G19G 6
  23696072.3964   16320578.65146  12717303.38761
  21467747.0674  -11429552.88947  -8906114.67563
  23670718.0914   -1079426.51446   -841095.61861
  24003935.075    -1228488.408 5   -855356.08921
  21723036.028     5124889.904 7   3993420.99222
  22973025.5364   -7791424.85746  -6026677.46161
 91  4 30 21  1 45.0010000  0  6G18G 2G11G16G19G 6
  23706933.8724   16377659.53946  12761781.82661
  21465029.8564  -11443831.12847  -8917240.53663
  23675560.3564   -1053970.69846   -821259.92361
  24007639.5524   -1209016.01645   -840182.85561
  21727459.5914    5148121.55047   4011523.54562
  22968506.005    -7815189.493 6  -6045195.28821
 91  4 30 21  2  0.0010000  0  6G18G 2G11G16G19G 6
  23717807.4744   16434787.37046  12806296.83961
  21462327.8024  -11458026.84547  -8928302.09763
  23680433.5914   -1028371.45046   -801312.46461
  24011364.966    -1189428.641 5   -824920.01621
  21731889.825     5171410.727 7   4029670.93222
  22963987.0914   -7838940.39346  -6063702.42861
 91  4 30 21  2 15.0010000  0  6G18G 2G11G16G19G 6
  23728688.896    16491964.092 6  12850849.95121
  21459642.7714  -11472137.52347  -8939297.39363
  23685331.0444   -1002626.62346   -781251.56761
  24015114.411    -1169724.155 5   -809565.92621
  21736335.356     5194759.886 6   4047865.05622
  22959469.8334   -7862675.11946  -6082196.94861
 91  4 30 21  2 30.0010000  0  6G18G 2G11G16G19G 6
  23739576.9354   16549188.25846  12895440.03261
  21456973.6384  -11486164.49847  -8950227.46463
  23690259.9504    -976737.70546   -761078.39161
  24018886.3564   -1149904.04645   -794121.74061
  21740787.739     5218167.795 7   4066104.95922
  22954954.5214   -7886394.96346  -6100679.87861
 91  4 30 21  2 45.0010000  0  6G18G 2G11G16G19G 6
  23750474.466    16606454.014 6  12940062.50921
  21454319.0914  -11500113.45547  -8961096.74563
  23695211.5914    -950710.45046   -740797.42261
  24022680.192    -1129974.308 5   -778592.13221
  21745253.7634    5241628.93447   4084386.33462
  22950444.3494   -7910105.49046  -6119155.54861
 91  4 30 21  3  0.0010000  0  6G18G 2G11G16G19G 6
  23761381.638    16663766.739 6  12984721.60421
  21451681.1464  -11513978.20847  -8971900.41063
  23700192.3254    -924538.98546   -720404.07161
  24026493.833    -1109929.048 5   -762972.50121
  21749731.5524    5265149.32446   4102713.88062
  22945933.5834   -7933800.57646  -6137619.18361
 91  4 30 21  3 15.0010000  0  6G18G 2G11G16G19G 6
  23772299.442    16721127.409 6  13029418.04821
  21449059.5524  -11527758.09047  -8982637.94263
  23705199.9584    -898222.49546   -699897.72761
  24030330.528    -1089767.727 5   -747262.43621
  21754215.3104    5288730.04447   4121088.43862
  22941427.9034   -7957479.30546  -6156070.08061
 91  4 30 21  3 30.0010000  0  6G18G 2G11G16G19G 6
  23783221.1144   16778536.61746  13074152.31161
  21446452.0524  -11541452.27047  -8993308.69863
  23710235.5444    -871760.41046   -679277.93161
  24034184.7944   -1069489.93245   -731461.62061
  21758714.833     5312371.874 7   4139510.61722
  22936927.5754   -7981140.86746  -6174507.60561
 91  4 30 21  3 45.0010000  0  6G18G 2G11G16G19G 6
  23794154.4974   16835991.49046  13118922.15761
  21443862.4974  -11555063.31747  -9003914.67363
  23715297.067     -845155.498 6   -658546.84221
  24038066.8724   -1049098.06645   -715571.90761
  21763224.114     5336072.387 6   4157978.52522
  22932427.4354   -8004787.66646  -6192933.62261
 91  4 30 21  4  0.0010000  0  6G18G 2G11G16G19G 6
  23805096.442    16893495.094 5  13163729.97021
  21441288.9354  -11568587.95247  -9014453.31163
  23720387.4974    -818404.58846   -637701.99461
  24041972.317    -1028589.071 5   -699590.93421
  21767746.5994    5359835.11947   4176494.91662
  22927930.5674   -8028416.38446  -6211345.54961
 91  4 30 21  4 15.0010000  0  6G18G 2G11G16G19G 6
  23816046.169    16951043.278 6  13208572.51921
  21438730.6854  -11582030.02147  -9024927.61563
  23725505.755     -791511.697 6   -616746.50921
  24045898.9584   -1007967.16945   -683521.97061
  21772279.2714    5383656.14746   4195056.72362
  22923438.9354   -8052030.92346  -6229746.42561
 91  4 30 21  4 30.0010000  0  6G18G 2G11G16G19G 6
  23827007.2084   17008637.76945  13253451.16161
  21436190.0284  -11595387.35647  -9035335.89263
  23730649.3644    -764474.90746   -595678.89161
  24049842.8884    -987230.51745   -667363.59161
  21776822.4584    5407537.63747   4213665.64862
  22918944.1924   -8075629.01746  -6248134.49461
 91  4 30 21  4 45.0010000  0  6G18G 2G11G16G19G 6
  23837977.185    17066277.439 6  13298364.99021
  21433663.5834  -11608661.22947  -9045679.13263
  23735823.638     -737295.592 6   -574500.21721
  24053812.661     -966380.620 5   -651116.98521
  21781379.4194    5431478.43246   4232320.78862
  22914456.044    -8099211.845 6  -6266510.66821
 91  4 30 21  5  0.0010000  0  6G18G 2G11G16G19G 6
  23848953.8024   17123964.60746  13343315.84161
  21431153.3494  -11621848.81147  -9055955.13563
  23741024.341     -709971.090 6   -553208.40921
  24057796.6774    -945414.65045   -634779.91661
  21785950.185     5455481.480 6   4251024.44222
  22909973.9194   -8122776.50546  -6284872.68261
 91  4 30 21  5 15.0010000  0  6G18G 2G11G16G19G 6
  23859942.255    17181698.990 6  13388303.47021
  21428659.7084  -11634950.16147  -9066163.94763
  23746249.1304    -682501.56446   -531803.59261
  24061810.6774    -924333.18945   -618352.86661
  21790528.935     5479546.942 6   4269776.72622
  22905491.724    -8146322.948 6  -6303220.50221
 91  4 30 21  5 30.0010000  0  6G18G 2G11G16G19G 6
  23870934.489    17239479.198 6  13433326.81821
  21426183.8414  -11647966.61947  -9076306.60663
  23751504.5284    -654888.49546   -510286.92461
  24065843.3724    -903137.62545   -601836.90361
  21795116.450     5503673.408 7   4288576.54322
  22901013.3564   -8169852.42446  -6321555.11061
 91  4 30 21  5 45.0010000  0  6G18G 2G11G16G19G 6
  23881940.294    17297302.628 6  13478383.84921
  21423722.1224  -11660900.33047  -9086384.78763
  23756785.3334    -627134.16746   -488660.18161
  24069895.9354    -881830.05745   -585233.66961
  21799720.927     5527858.955 6   4307422.39822
  22896539.622    -8193367.128 6  -6339878.19921
 91  4 30 21  6  0.0010000  0  6G18G 2G11G16G19G 6
  23892953.5674   17355172.54046  13523477.10161
  21421277.7944  -11673747.62747  -9096395.63163
  23762094.575     -599235.262 6   -466920.78921
  24073973.692     -860407.359 5   -568540.71621
  21804336.677     5552107.093 6   4326317.03022
  22892067.7554   -8216863.34846  -6358186.88361
 91  4 30 21  6 15.0010000  0  6G18G 2G11G16G19G 6
  23903972.864    17413087.747 6  13568605.62621
  21418849.0364  -11686509.82347  -9106340.16763
  23767430.763     -571193.218 6   -445069.86521
  24078074.3884    -838871.06445   -551759.24961
  21808960.739     5576416.717 6   4345259.57422
  22887600.200    -8240342.315 6  -6376482.12321
 91  4 30 21  6 30.0010000  0  6G18G 2G11G16G19G 6
  23915002.0134   17471047.03845  13613768.51061
  21416435.8334  -11699188.09147  -9116219.30663
  23772796.419     -543009.238 6   -423108.34121
  24082196.599     -817222.349 5   -534890.17621
  21813595.7784    5600786.84246   4364249.25462
  22883136.3494   -8263805.01346  -6394764.68361
 91  4 30 21  6 45.0010000  0  6G18G 2G11G16G19G 6
  23926042.052    17529052.035 6  13658967.01521
  21414039.5674  -11711780.16347  -9126031.28063
  23778185.247     -514681.438 6   -401034.75021
  24086330.466     -795459.247 5   -517931.98721
  21818249.778     5625219.543 6   4383287.69822
  22878674.841    -8287249.256 6  -6413032.87321
 91  4 30 21  7  0.0010000  0  6G18G 2G11G16G19G 6
  23937087.7314   17587100.73946  13704199.56361
  21411661.0284  -11724287.79247  -9135777.45263
  23783602.849     -486211.633 6   -378850.50621
  24090497.3024    -773583.64745   -500886.13161
  21822910.700     5649713.392 6   4402373.79522
  22874214.9424   -8310676.58846  -6431287.88061
 91  4 30 21  7 15.0010000  0  6G18G 2G11G16G19G 6
  23948141.630    17645194.753 5  13749467.43621
  21409295.9894  -11736709.31547  -9145456.52963
  23789048.7004    -457598.17046   -356554.31361
  24094681.997     -751594.578 5   -483751.85621
  21827583.474     5674270.173 6   4421508.92622
  22869760.6144   -8334085.27546  -6449528.35261
 91  4 30 21  7 30.0010000  0  6G18G 2G11G16G19G 6
  23959207.4034   17703334.40946  13794770.85661
  21406949.0134  -11749044.00247  -9155067.94363
  23794519.403     -428840.683 6   -334145.90121
  24098887.9894    -729491.50845   -466528.74861
  21832269.692     5698890.504 6   4440693.57322
  22865311.3564   -8357474.61146  -6467753.75161
 91  4 30 21  7 45.0010000  0  6G18G 2G11G16G19G 6
  23970277.6694   17761516.22645  13840107.13361
  21404616.8884  -11761294.96447  -9164614.11663
  23800018.021     -399942.512 6   -311627.86121
  24103116.044     -707277.623 5   -449219.30321
  21836964.599     5723571.482 6   4459925.47922
  22860862.372    -8380847.732 6  -6485966.51921
 91  4 30 21  8  0.0010000  0  6G18G 2G11G16G19G 6
  23981357.5914   17819742.22045  13885477.83561
  21402301.5604  -11773460.03847  -9174093.36463
  23805545.896     -370901.681 6   -288998.66021
  24107364.528     -684951.093 5   -431822.06721
  21841675.044     5748315.176 6   4479206.25722
  22856419.2314   -8404202.39146  -6504164.89561
 91  4 30 21  8 15.0010000  0  6G18G 2G11G16G19G 6
  23992444.638    17878006.621 5  13930878.47421
  21400001.8964  -11785544.86647  -9183510.08263
  23811098.1064    -341723.88546   -266262.72861
  24111633.4664    -662517.59845   -414341.47261
  21846391.942     5773116.153 6   4498531.66722
  22851975.380    -8427544.043 6  -6522353.13721
 91  4 30 21  8 30.0010000  0  6G18G 2G11G16G19G 6
  24003540.5994   17936313.61745  13976312.29261
  21397719.2004  -11797545.17647  -9192860.94463
  23816675.7714    -312404.90546   -243416.79161
  24115922.583     -639972.793 5   -396774.17621
  21851121.028     5797978.802 6   4517905.13822
  22847539.3024   -8450868.22546  -6540527.77061
 91  4 30 21  8 45.0010000  0  6G18G 2G11G16G19G 6
  24014646.567    17994659.553 5  14021776.45721
  21395450.9894  -11809464.23047  -9202148.48763
  23822282.8334    -282948.24746   -220463.56761
  24120234.2084    -617320.34745   -379122.99161
  21855867.317     5822900.137 6   4537324.33722
  22843101.7554   -8474178.13846  -6558691.28261
 91  4 30 21  9  0.0010000  0  6G18G 2G11G16G19G 6
  24025754.5754   18053041.31345  14067268.53061
  21393197.9424  -11821305.01247  -9211375.03863
  23827913.388     -253357.080 6   -197405.52821
  24124566.4504    -594563.61945   -361390.53361
  21860619.364     5847877.201 6   4556786.95922
  22838668.9974   -8497476.70546  -6576845.94761
 91  4 30 21  9 15.0010000  0  6G18G 2G11G16G19G 6
  24036872.646    18111461.064 5  14112790.20721
  21390959.9584  -11833065.05547  -9220538.67963
  23833570.638     -223629.094 6   -174240.87621
  24128915.1384    -571700.46945   -343575.16561
  21865382.841     5872912.605 6   4576295.04822
  22834238.0134   -8520761.36646  -6594989.78561
 91  4 30 21  9 30.0010000  0  6G18G 2G11G16G19G 6
  24047994.6924   18169913.89145  14158337.65861
  21388735.7944  -11844749.02447  -9229643.04463
  23839250.630     -193769.208 6   -150973.45821
  24133286.536     -548735.611 5   -325680.55121
  21870155.3334    5898001.60246   4595844.88662
  22829809.935    -8544036.748 6  -6613126.39421
 91  4 30 21  9 45.0010000  0  6G18G 2G11G16G19G 6
  24059124.802    18228399.153 5  14203910.39721
  21386527.286   -11856357.135 7  -9238688.30023
  23844960.2714    -163777.83246   -127603.56261
  24137676.2394    -525669.47845   -307707.00361
  21874941.708     5923144.124 7   4615436.43822
  22825380.778    -8567303.067 6  -6631255.93521
 91  4 30 21 10  0.0010000  0  6G18G 2G11G16G19G 6
  24070262.5674   18286919.78845  14249510.67761
  21384333.8024  -11867886.53147  -9247672.21763
  23850691.388     -133652.181 6   -104129.04221
  24142083.442     -502499.540 5   -289652.57021
  21879737.4744    5948343.16346   4635072.02562
  22820957.1384   -8590557.24446  -6649376.01061
 91  4 30 21 10 15.0010000  0  6G18G 2G11G16G19G 6
  24081403.2474   18345474.78945  14295137.74861
  21382153.9814  -11879337.76747  -9256595.23063
  23856449.075     -103393.105 6    -80550.55021
  24146514.646     -479226.564 5   -271517.86621
  21884543.6854    5973598.12847   4654751.18762
  22816533.310    -8613799.842 6  -6667487.07321
 91  4 30 21 10 30.0010000  0  6G18G 2G11G16G19G 6
  24092554.2714   18404062.43345  14340790.25061
  21379990.2714  -11890712.38147  -9265458.53963
  23862232.7944     -73002.30846    -56869.41761
  24150962.716     -455852.643 5   -253304.47921
  21889358.6534    5998907.56047   4674472.78862
  22812112.075    -8637032.331 6  -6685590.25821
 91  4 30 21 10 45.0010000  0  6G18G 2G11G16G19G 6
  24103709.224    18462684.120 5  14386469.28021
  21377840.7004  -11902008.77647  -9274260.89663
  23868041.0284     -42478.34446    -33084.53361
  24155428.0364    -432375.98245   -235011.05861
  21894187.1464    6024273.09747   4694238.10362
  22807693.388    -8660252.948 6  -6703684.19021
 91  4 30 21 11  0.0010000  0  6G18G 2G11G16G19G 6
  24114870.005    18521335.928 5  14432171.77621
  21375703.7394  -11913230.40547  -9283004.99763
  23873876.2314     -11824.92046     -9198.76861
  24159915.083     -408800.276 5   -216640.46721
  21899024.8334    6049691.52746   4714044.63762
  22803278.0834   -8683465.11746  -6721771.53261
 91  4 30 21 11 15.0010000  0  6G18G 2G11G16G19G 6
  24126036.5604   18580023.79945  14477902.38261
  21373585.2714  -11924371.27247  -9291686.16563
  23879734.7314      18963.90446     14792.48761
  24164421.5604    -385120.06745   -198188.43661
  21903871.7554    6075168.98246   4733897.17362
  22798862.653    -8706662.698 6  -6739847.51821
 91  4 30 21 11 30.0010000  0  6G18G 2G11G16G19G 6
  24137211.1774   18638745.11245  14523659.03561
  21371478.864   -11935433.864 7  -9300306.33923
  23885618.7554      49885.46246     38887.17961
  24168945.575     -361337.832 5   -179656.91621
  21908731.5444    6100702.89947   4753793.69862
  22794449.4504   -8729848.11446  -6757914.01861
 91  4 30 21 11 45.0010000  0  6G18G 2G11G16G19G 6
  24148394.2714   18697501.79545  14569443.25861
  21369389.3884  -11946416.06247  -9308863.87063
  23891527.544       80941.649 6     63086.78821
  24173491.278     -337451.880 5   -161044.55021
  21913601.0524    6126295.48146   4773735.93062
  22790041.6694   -8753019.19546  -6775969.35061
 91  4 30 21 12  0.0010000  0  6G18G 2G11G16G19G 6
  24159581.6774   18756293.24245  14615254.56261
  21367314.6064  -11957317.87547  -9317358.76163
  23897462.481      112132.137 6     87391.04021
  24178058.8644    -313462.73045   -142351.79861
  21918480.9354    6151946.57746   4793723.76662
  22785633.599    -8776176.000 6  -6794013.56221
 91  4 30 21 12 15.0010000  0  6G18G 2G11G16G19G 6
  24170773.7084   18815119.24145  14661092.78461
  21365255.9274  -11968139.55147  -9325791.20563
  23903425.083      143456.569 6    111799.67321
  24182642.536     -289370.517 5   -123578.74621
  21923375.2634    6177656.20746   4813757.20962
  22781230.911    -8799318.604 6  -6812046.70721
 91  4 30 21 12 30.0010000  0  6G18G 2G11G16G19G 6
  24181977.060    18873981.394 5  14706959.18421
  21363212.2474  -11978879.11447  -9334159.66763
  23909412.700      174916.846 6    136314.15121
  24187250.4194    -265173.43145   -104723.94661
  21928277.6694    6203426.69446   4833838.07262
  22776831.1534   -8822444.88846  -6830067.13361
 91  4 30 21 12 45.0010000  0  6G18G 2G11G16G19G 6
  24193183.974    18932874.422 5  14752849.64321
  21361182.755   -11989541.770 7  -9342468.20823
  23915424.505      206507.595 6    160930.28921
  24191872.0284    -240876.99245    -85791.73461
  21933192.4114    6229253.05146   4853962.47562
  22772432.0754   -8845559.84046  -6848078.72661
 91  4 30 21 13  0.0010000  0  6G18G 2G11G16G19G 6
  24204398.2394   18991800.11445  14798765.55461
  21359168.5284  -12000125.31447  -9350715.09563
  23921457.817      238230.696 6    185649.57521
  24196512.130     -216479.084 5    -66780.47721
  21938120.2554    6255137.56746   4874132.19262
  22768034.372    -8868661.199 6  -6866079.73621
 91  4 30 21 13 15.0010000  0  6G18G 2G11G16G19G 6
  24215617.708    19050761.385 5  14844709.18421
  21357170.8174  -12010626.63047  -9358897.91263
  23927523.4034     270089.03846    210474.24861
  24201174.255     -191977.144 5    -47688.13021
  21943057.9974    6281083.03946   4894349.40662
  22763642.333    -8891745.974 6  -6884067.81721
 91  4 30 21 13 30.0010000  0  6G18G 2G11G16G19G 6
  24226845.583    19109757.879 5  14890680.25821
  21355187.8564  -12021046.08047  -9367016.93663
  23933608.778      302082.298 6    235404.03921
  24205855.1924    -167371.40745    -28514.91361
  21948004.1774    6307089.51746   4914614.15962
  22759250.567    -8914814.100 6  -6902042.93221
 91  4 30 21 13 45.0010000  0  6G18G 2G11G16G19G 6
  24238077.0284   19168788.92945  14936678.25461
  21353220.7004  -12031383.85747  -9375072.32163
  23939724.200      334209.761 6    260438.40721
  24210556.466     -142662.641 5     -9261.43821
  21952965.9664    6333156.67746   4934926.19862
  22754865.880    -8937865.962 6  -6920005.37121
 91  4 30 21 14  0.0010000  0  6G18G 2G11G16G19G 6
  24249318.778    19227855.626 5  14982704.03821
  21351268.5914  -12041638.78147  -9383063.14363
  23945862.825      366472.672 6    285578.32521
  24215284.2554    -117849.59245     10073.31661
  21957938.5914    6359285.94746   4955286.63162
  22750482.0834   -8960900.07946  -6937953.98061
 91  4 30 21 14 15.0010000  0  6G18G 2G11G16G19G 6
  24260567.099    19286959.350 5  15028758.67121
  21349332.739   -12051809.259 7  -9390988.16723
  23952028.6224     398872.55946    310824.98461
  24220022.622      -92930.757 5     29490.50321
  21962921.9974    6385479.12046   4975696.85662
  22746101.481    -8983914.760 6  -6955887.44621
 91  4 30 21 14 30.0010000  0  6G18G 2G11G16G19G 6
  24271821.239    19346099.968 5  15074842.04821
  21347415.411   -12061895.214 7  -9398847.32423
  23958219.521      431409.175 6    336178.16921
  24224786.208      -67906.504 5     48989.82121
  21967917.9974    6411736.24546   4996156.91762
  22741725.786    -9006909.859 6  -6973805.65721
 91  4 30 21 14 45.0010000  0  6G18G 2G11G16G19G 6
  24283080.0284   19405273.84645  15120951.34561
  21345509.685   -12071899.982 7  -9406643.22223
  23964436.021      464078.931 6    361635.10121
  24229566.974      -42780.736 5     68568.26721
  21972927.5134    6438053.95646   5016664.18762
  22737354.349    -9029888.598 6  -6991711.11421
 91  4 30 21 15  0.0010000  0  6G18G 2G11G16G19G 6
  24294347.3884   19464478.29345  15167084.45561
  21343622.208   -12081825.954 7  -9414377.72123
  23970677.692      496879.110 6    387193.66921
  24234367.2474     -17555.78645     88223.97861
  21977945.3644    6464429.94346   5037216.87162
  22732984.083    -9052853.359 6  -7009605.68421
 91  4 30 21 15 15.0010000  0  6G18G 2G11G16G19G 6
  24305619.5834   19523721.10045  15213247.47661
  21341748.817   -12091665.148 7  -9422044.59623
  23976945.731      529817.576 6    412859.97921
  24239187.575        7775.769 5    107962.77221
  21982977.0524    6490872.40446   5057821.35662
  22728618.497    -9075796.007 6  -7027483.02421
 91  4 30 21 15 30.0010000  0  6G18G 2G11G16G19G 6
  24316901.3024   19583001.59845  15259439.84661
  21339893.8024  -12101418.17747  -9429644.33463
  23983241.474      562893.617 6    438633.50321
  24244027.5834      33213.51845    127784.29761
  21988024.1224    6517381.01046   5078477.38162
  22724256.817    -9098716.903 6  -7045343.41021
 91  4 30 21 15 45.0010000  0  6G18G 2G11G16G19G 6
  24328188.825    19642316.465 5  15305659.00321
  21338053.0834  -12111087.68147  -9437178.98463
  23989558.942      596104.213 6    464511.87221
  24248889.185       58754.363 5    147686.16721
  21993080.4274    6543953.02346   5099182.80962
  22719896.849    -9121618.814 6  -7063189.00721
 91  4 30 21 16  0.0010000  0  6G18G 2G11G16G19G 6
  24339478.6224   19701662.71145  15351902.61861
  21336229.2944  -12120676.86847  -9444651.05363
  23995906.177      629446.108 6    490492.55321
  24253770.114       84394.808 5    167665.66021
  21998145.8024    6570585.33746   5119935.22862
  22715543.771    -9144504.789 6  -7081022.18321
 91  4 30 21 16 15.0010000  0  6G18G 2G11G16G19G 6
  24350782.427    19761043.376 5  15398173.03921
  21334418.9894  -12130182.35147  -9452057.89563
  24002275.8804     662922.52346    516578.05861
  24258669.685      110138.019 5    187725.21921
  22003228.0284    6597281.27446   5140737.22162
  22711192.130    -9167371.290 6  -7098840.18521
 91  4 30 21 16 30.0010000  0  6G18G 2G11G16G19G 6
  24362089.3724   19820459.33745  15444470.97861
  21332627.052   -12139602.885 7  -9459398.54323
  24008672.528      696534.334 6    542769.06621
  24263586.1224     135984.88545    207865.53261
  22008318.310     6624042.338 6   5161589.97022
  22706844.411    -9190216.952 6  -7116641.95321
 91  4 30 21 16 45.0010000  0  6G18G 2G11G16G19G 6
  24373402.161    19879909.082 5  15490795.24121
  21330849.5994  -12148939.68247  -9466673.94263
  24015093.747      730280.273 6    569064.58521
  24268527.841      161934.044 5    228085.55321
  22013423.9194    6650867.27046   5182492.48162
  22702500.935    -9213042.855 6  -7134428.32021
 91  4 30 21 17  0.0010000  0  6G18G 2G11G16G19G 6
  24384722.2164   19939392.85345  15537145.99961
  21329089.5604  -12158192.43048  -9473883.84963
  24021542.4744     764160.47246    595464.72961
  24273480.638      187985.443 5    248385.26521
  22018538.6774    6677756.64246   5203445.20362
  22698160.935    -9235848.670 6  -7152199.03921
 91  4 30 21 17 15.0010000  0  6G18G 2G11G16G19G 6
  24396045.2244   19998907.94545  15583521.17161
  21327343.2554  -12167363.87448  -9481030.40263
  24028013.4424     798171.95946    621967.16861
  24278456.356      214136.231 5    268762.39121
  22023669.2244    6704707.92646   5224446.16662
  22693823.560    -9258636.888 6  -7169956.03721
 91  4 30 21 17 30.0010000  0  6G18G 2G11G16G19G 6
  24407377.2314   20058458.43345  15629923.93361
  21325615.7004  -12176449.54248  -9488110.11863
  24034511.622      832319.132 6    648575.33321
  24283453.7244     240390.58245    289220.23961
  22028812.8334    6731725.63546   5245498.89462
  22689491.294    -9281402.915 6  -7187695.75021
 91  4 30 21 17 45.0010000  0  6G18G 2G11G16G19G 6
  24418716.7784   20118043.83445  15676353.90261
  21323902.560   -12185449.726 8  -9495123.22323
  24041035.0054     866601.51946    675288.87261
  24288472.7244     266748.25345    309758.58961
  22033965.0994    6758809.56346   5266603.22262
  22685164.044    -9304147.003 6  -7205418.36621
 91  4 30 21 18  0.0010000  0  6G18G 2G11G16G19G 6
  24430063.0284   20177665.95645  15722812.46261
  21322206.1464  -12194362.16148  -9502067.95163
  24047584.310      901021.080 6    702109.28521
  24293501.896      293210.950 5    330378.79321
  22039130.942     6785962.007 7   5287760.94722
  22680840.177    -9326866.728 6  -7223121.99821
 91  4 30 21 18 15.0010000  0  6G18G 2G11G16G19G 6
  24441415.614    20237320.569 5  15769296.34921
  21320526.403   -12203190.716 8  -9508947.31923
  24054161.685      935573.493 6    729033.21421
  24298560.724      319774.612 5    351077.64021
  22044310.2944    6813179.03746   5308968.99262
  22676520.646    -9349565.933 6  -7240809.63921
 91  4 30 21 18 30.0010000  0  6G18G 2G11G16G19G 6
  24452773.310    20297008.588 5  15815806.26921
  21318862.8174  -12211934.34648  -9515760.51263
  24060761.005      970259.729 6    756061.43521
  24303630.903      346439.873 5    371855.67121
  22049502.661     6840461.832 6   5330228.28422
  22672203.450    -9372243.460 6  -7258480.39321
 91  4 30 21 18 45.0010000  0  6G18G 2G11G16G19G 6
  24464137.1534   20356727.08545  15862339.92561
  21317214.755   -12220595.970 8  -9522509.80523
  24067386.958     1005076.727 6    783191.54721
  24308728.7634     373203.84345    392710.60761
  22054705.9744    6867807.64646   5351536.68062
  22667894.364    -9394902.052 6  -7276136.39421
 91  4 30 21 19  0.0010000  0  6G18G 2G11G16G19G 6
  24475507.997    20416479.736 5  15908900.20321
  21315581.911   -12229171.666 8  -9529192.14123
  24074036.919     1040028.160 6    810426.40921
  24313844.2474     400070.20545    413645.32861
  22059921.0604    6895220.57446   5372897.37062
  22663584.263    -9417537.652 6  -7293774.47421
 91  4 30 21 19 15.0010000  0  6G18G 2G11G16G19G 6
  24486884.0674   20476263.44145  15955484.68061
  21313966.130   -12237664.276 8  -9535809.73123
  24080709.630     1075110.953 6    837763.63321
  24318969.185      427035.453 5    434657.13521
  22065152.716     6922697.925 6   5394308.26722
  22659281.099    -9440152.974 6  -7311396.75721
 91  4 30 21 19 30.0010000  0  6G18G 2G11G16G19G 6
  24498269.122    20536080.460 5  16002095.10421
  21312366.599   -12246071.417 8  -9542360.72723
  24087413.333     1110327.363 6    865204.96421
  24324119.052      454101.865 5    455747.73221
  22070396.2084    6950242.11346   5415771.23962
  22654982.771    -9462745.553 6  -7329001.31221
 91  4 30 21 19 45.0010000  0  6G18G 2G11G16G19G 6
  24509657.8884   20595929.94845  16048730.84261
  21310782.130   -12254393.745 8  -9548845.63423
  24094140.825     1145676.624 6    892749.82921
  24329293.1144     481269.17645    476916.96661
  22075647.442     6977852.654 6   5437285.92022
  22650688.692    -9485315.767 6  -7346588.44821
 91  4 30 21 20  0.0010000  0  6G18G 2G11G16G19G 6
  24521052.458    20655810.017 5  16095390.42121
  21309214.7084  -12262632.81748  -9555265.66163
  24100891.833     1181156.921 6    920396.79021
  24334480.091      508535.105 5    498163.05821
  22080916.7004    7005528.08546   5458851.16162
  22646396.981    -9507865.195 6  -7364159.38221
 91  4 30 21 20 15.0010000  0  6G18G 2G11G16G19G 6
  24532455.966    20715720.230 5  16142073.47221
  21307663.247   -12270788.686 8  -9561620.86223
  24107668.247     1216767.914 6    948145.59621
  24339689.606      535899.128 5    519485.56521
  22086192.7004    7033268.42146   5480466.97262
  22642109.950    -9530393.810 6  -7381714.09721
 91  4 30 21 20 30.0010000  0  6G18G 2G11G16G19G 6
  24543858.7164   20775661.09245  16188780.41861
  21306126.856   -12278860.726 8  -9567910.73923
  24114472.8884    1252510.01346    975996.57461
  24344913.5914     563361.86045    540884.99061
  22091485.4744    7061074.36646   5502133.90662
  22637827.083    -9552900.731 6  -7399251.91621
 91  4 30 21 20 45.0010000  0  6G18G 2G11G16G19G 6
  24555272.013    20835634.084 5  16235512.37321
  21304606.747   -12286847.180 8  -9574133.92423
  24121297.341     1288384.808 6   1003950.95021
  24350156.8104     590924.79545    562362.49961
  22096788.1614    7088947.82746   5523853.45762
  22633549.2554   -9575384.18646  -7416771.44361
 91  4 30 21 21  0.0010000  0  6G18G 2G11G16G19G 6
  24566691.9584   20895640.30945  16282270.25061
  21303104.286   -12294746.844 8  -9580289.48123
  24128149.5754    1324393.28646   1032009.49461
  24355423.4744     618588.95145    583918.88661
  22102104.278     7116890.132 6   5545626.65022
  22629274.380    -9597842.770 6  -7434271.59421
 91  4 30 21 21 15.0010000  0  6G18G 2G11G16G19G 6
  24578115.396    20955678.663 5  16329053.16021
  21301616.731   -12302560.508 8  -9586378.02823
  24135026.1774    1360534.35146   1060171.35861
  24360708.638      646353.332 5    605553.35921
  22107436.2244    7144900.35946   5567452.77662
  22625006.638    -9620277.211 6  -7451752.92821
 91  4 30 21 21 30.0010000  0  6G18G 2G11G16G19G 6
  24589546.396    21015748.425 5  16375860.53521
  21300145.966   -12310288.757 8  -9592400.01523
  24141931.052     1396807.293 6   1088435.97321
  24366010.333      674216.837 5    627265.08521
  22112781.2394    7172978.32046   5589331.67362
  22620741.177    -9642687.873 6  -7469215.73621
 91  4 30 21 21 45.0010000  0  6G18G 2G11G16G19G 6
  24600982.442    21075845.904 5  16422689.49221
  21298690.9894  -12317935.00848  -9598358.10863
  24148856.310     1433208.394 6   1116800.44921
  24371327.919      702175.779 5    649051.16721
  22118134.1924    7201120.52546   5611260.63362
  22616480.458    -9665078.237 6  -7486662.72721
 91  4 30 21 22  0.0010000  0  6G18G 2G11G16G19G 6
  24612425.841    21135971.258 5  16469540.19121
  21297251.224   -12325498.623 8  -9604251.81123
  24155809.411     1469737.887 6   1145264.96521
  24376668.099      730230.409 5    670911.81621
  22123501.1224    7229327.65146   5633240.17662
  22612224.1694   -9687447.54946  -7504093.31161
 91  4 30 21 22 15.0010000  0  6G18G 2G11G16G19G 6
  24623873.552    21196126.942 5  16516414.49421
  21295827.989   -12332977.280 8  -9610079.31023
  24162786.458     1506398.212 6   1173831.44121
  24382027.067      758382.950 5    692848.75621
  22128881.3494    7257602.28846   5655272.32962
  22607972.919    -9709793.133 6  -7521505.40921
 91  4 30 21 22 30.0010000  0  6G18G 2G11G16G19G 6
  24635324.864    21256313.639 5  16563312.97921
  21294422.638   -12340370.086 8  -9615839.91323
  24169785.583     1543190.150 6   1202500.45921
  24387402.3174     786634.31945
  22134275.0604    7285945.46846
  22603724.349    -9732113.959 6  -7538898.21821
 91  4 30 21 22 45.0010000  0  6G18G 2G11G16G19G 6
  24646785.4194   21316526.28045  16610231.68161
  21293030.052   -12347681.868 8  -9621537.38423
  24176812.528     1580108.462 6   1231267.95021
  24392798.755      814979.378 5
  22139680.6464    7314352.32946
  22599479.763    -9754414.812 6  -7556275.45721
 91  4 30 21 23  0.0010000  0  6G18G 2G11G16G19G 6
  24658251.1384   21376772.14245  16657176.25761
  21291655.739   -12354904.860 8  -9627165.66823
  24183858.208     1617160.734 6   1260139.83621
  24398207.6774     843425.06545
  22145099.8724    7342830.82046
  22595241.802    -9776687.727 6  -7573630.93121
 91  4 30 21 23 15.0010000  0  6G18G 2G11G16G19G 6
  24669720.0444   21437048.00845  16704144.23961
  21290296.677   -12362042.370 8  -9632727.34223
  24190937.427     1654343.591 6   1289113.46921
  24403640.2554     871968.57045
  22150533.1854    7371377.67446
  22591008.497    -9798935.889 6  -7590967.10921
 91  4 30 21 23 30.0010000  0  6G18G 2G11G16G19G 6
  24681197.0754   21497353.37945  16751135.16961
  21288954.919   -12369094.581 8  -9638222.54523
  24198037.2944    1691656.46846   1318188.42561
  24409091.1144     900609.15545
  22155979.9814    7399992.86146   5766225.87162
  22586778.481    -9821159.327 6  -7608284.02721
 91  4 30 21 23 45.0010000  0  6G18G 2G11G16G19G 6
  24692674.005    21557684.683 5  16798146.32721
  21287628.497   -12376064.922 8  -9643653.95723
  24205163.669     1729095.637 6   1347361.78521
  24414561.263      929343.144 5
  22161436.5994    7428673.09546
  22582554.856    -9843361.414 6  -7625584.30321
 91  4 30 21 24  0.0010000  0  6G18G 2G11G16G19G 6
  24704163.8964   21618044.31545  16845179.55561
  21286318.372   -12382950.772 8  -9649019.53123
  24212309.896     1766663.456 6   1376635.39221
  24420044.177      958172.714 5
  22166905.8494    7457420.92346   5810974.95862
  22578334.567    -9865539.417 6  -7642865.82121
 91  4 30 21 24 15.0010000  0  6G18G 2G11G16G19G 6
  24715653.435    21678431.880 5  16892234.58821
  21285024.974   -12389752.081 8  -9654319.23023
  24219485.9744    1804359.79546   1406009.15461
  24425548.5674     987097.75845
  22172388.4894    7486236.65646   5833428.75262
  22574116.458    -9887693.024 6  -7660128.31821
 91  4 30 21 24 30.0010000  0  6G18G 2G11G16G19G 6
  24727150.692    21738844.679 5  16939309.23221
  21283745.677   -12396471.313 8  -9659554.97623
  24226682.239     1842181.976 6   1435480.97121
  24431072.653     1016115.659 5
  22177884.5914    7515117.90046   5855933.58462
  22569906.442    -9909824.768 6  -7677373.78621
 91  4 30 21 24 45.0010000  0  6G18G 2G11G16G19G 6
  24738654.286    21799284.360 5  16986404.85621
  21282484.091   -12403106.975 8  -9664725.59623
  24233904.372     1880131.435 6   1465051.95521
  24436608.200     1045227.654 5        -0.46131
  22183394.4664    7544066.23846   5878490.70262
  22565699.536    -9931932.673 6  -7694600.67721
 91  4 30 21 25  0.0010000  0  6G18G 2G11G16G19G 6
  24750157.9424   21859744.73245  17033516.61861
  21281235.153   -12409664.670 8  -9669835.46723
  24241148.317     1918202.197 6   1494717.47221
  24442167.0134    1074427.48145     22752.54861
  22188914.4424    7573075.99246   5901095.67662
  22561496.224    -9954022.607 6  -7711813.56721
 91  4 30 21 25 15.0010000  0  6G18G 2G11G16G19G 6
  24761669.278    21920227.423 5  17080645.74221
  21280002.067   -12416142.646 8  -9674883.22123
  24248415.114     1956395.889 6   1524478.77521
  24447737.3724    1103717.16245     45575.57061
  22194446.8334    7602149.19546   5923750.09062
  22557295.622    -9976092.395 6  -7729010.75821
 91  4 30 21 25 30.0010000  0  6G18G 2G11G16G19G 6
  24773182.731    21980734.160 5  17127793.61221
  21278785.560   -12422538.951 8  -9679867.33323
  24255706.661     1994714.164 6   1554337.15021
  24453334.552     1133098.258 5     68469.80121
  22199991.9424    7631287.88546   5946455.53262
  22553100.935    -9998139.977 6  -7746190.64221
 91  4 30 21 25 45.0010000  0  5G 2G11G16G19G 6
  21277582.325   -12428858.669 8  -9684791.76823
  24263021.263     2033151.632 6   1584288.40721
  24458942.5524    1162565.13045     91430.90161
  22205549.5214    7660486.93546   5969208.00962
  22548906.403   -10020170.424 6  -7763357.17721
 91  4 30 21 26  0.0010000  0  5G 2G11G16G19G 6
  21276396.427   -12435097.005 8  -9689652.79223
  24270362.067     2071712.915 6   1614336.13421
  24464565.7244    1192122.45345    114462.46761
  22211116.271     7689751.459 6   5992011.50722
  22544718.583   -10042178.721 6  -7780506.45421
 91  4 30 21 26 15.0010000  0  5G 2G11G16G19G 6
  21275223.739   -12441256.497 8  -9694452.38023
  24277722.950     2110395.474 6   1644478.37121
  24470204.653     1221767.566 5    137562.45321
  22216698.2004    7719078.96846   6014864.08562
  22540535.6854  -10064167.12546  -7797640.23761
 91  4 30 21 26 30.0010000  0  5G 2G11G16G19G 6
  21274067.474   -12447336.805 8  -9699190.26323
  24285106.716     2149199.269 6   1674715.07421
  24475867.0444    1251500.51645    160730.86361
  22222291.0054    7748469.91046   6037766.07662
  22536355.825   -10086135.168 6  -7814758.14222
 91  4 30 21 26 45.0010000  0  5G 2G11G16G19G 6
  21272923.435   -12453340.650 8  -9703868.56423
  24292512.325     2188121.298 6   1705043.91021
  24481540.974     1281318.049 5    183965.18721
  22227895.3964    7777921.58146   6060715.40262
  22532178.099   -10108085.509 6  -7831862.25921
 91  4 30 21 27  0.0010000  0  5G 2G11G16G19G 6
  21271796.466   -12459265.890 8  -9708485.61923
  24299941.911     2227163.565 6   1735466.43521
  24487230.0754    1311222.33845    207267.13861
  22233511.5054    7807436.41246   6083713.93362
  22528005.935   -10130015.937 6  -7848950.85521
 91  4 30 21 27 15.0010000  0  5G 2G11G16G19G 6
  21270684.653   -12465112.528 8  -9713041.41923
  24307394.536     2266325.743 6   1765982.40621
  24492936.966     1341213.095 5    230636.45321
  22239140.8964    7837014.48546   6106761.75162
  22523836.255   -10151926.245 6  -7866023.77521
 91  4 30 21 27 30.0010000  0  5G 2G11G16G19G 6
  21269586.724   -12470877.922 8  -9717533.91223
  24314868.466     2305610.350 6   1796593.76321
  24498660.1694    1371292.86545    254075.10061
  22244780.0604    7866658.52846   6129860.96862
  22519671.458   -10173813.550 6  -7883078.76821
 91  4 30 21 27 45.0010000  0  5G 2G11G16G19G 6
  21268504.458   -12476567.221 8  -9721967.11223
  24322367.3104    2345011.88046   1827296.25461
  24504399.153     1401455.989 5    277578.72221
  22250435.4114    7896363.31946   6153007.52662
  22515509.591   -10195682.801 6  -7900119.70221
 91  4 30 21 28  0.0010000  0  5G 2G11G16G19G 6
  21267435.208   -12482181.967 8  -9726342.22023
  24329888.685     2384528.648 6   1858088.51321
  24510156.6224    1431700.74045    301145.96161
  22256098.0674    7926127.48146   6176200.33962
  22511351.380   -10217535.592 6  -7917147.80221
 91  4 30 21 28 15.0010000  0  5G 2G11G16G19G 6
  21266382.481   -12487717.883 8  -9730655.89823
  24337427.6534    2424164.70146   1888973.74261
  24515927.1224    1462031.06045    324779.85561
  22261775.2474    7955955.43746   6199442.87062
  22507195.552   -10239367.355 6  -7934159.52121
 91  4 30 21 28 30.0010000  0  5G 2G11G16G19G 6
  21265342.724   -12493181.079 8  -9734912.91123
  24344995.427     2463913.669 6   1919946.94021
  24521714.911     1492440.583 5    348475.46821
  22267459.5364    7985841.08646   6222730.35662
  22503044.317   -10261184.168 6  -7951159.58921
 91  4 30 21 28 45.0010000  0  5G 2G11G16G19G 6
  21264317.192   -12498572.510 8  -9739114.00423
  24352576.286     2503774.320 6   1951007.17521
  24527515.9744    1522927.89745    372231.69061
  22273160.2554    8015783.57946   6246062.13162
  22498895.521   -10282986.757 6  -7968148.57321
 91  4 30 21 29  0.0010000  0  5G 2G11G16G19G 6
  21263305.403   -12503887.483 8  -9743255.51923
  24360186.778     2543751.196 6   1982157.97021
  24533332.247     1553497.665 5    396052.17621
  22278869.2164    8045787.87946   6269442.06362
  22494748.5914  -10304770.19746  -7985122.63761
 91  4 30 21 29 15.0010000  0  5G 2G11G16G19G 6
  21262307.661   -12509128.937 8  -9747339.74823
  24367815.630     2583841.141 6   2013396.85821
  24539164.349     1584146.866 5    419934.56621
  22284591.6144    8075851.15346   6292867.94862
  22490605.825   -10326537.278 6  -8002083.95521
 91  4 30 21 29 30.0010000  0  5G 2G11G16G19G 6
  21261323.872   -12514297.741 8  -9751367.36523
  24375465.599     2624043.115 6   2044723.05521
  24545013.0754    1614874.40245    443877.98961
  22290319.7394    8105972.67346   6316339.23162
  22486469.6304  -10348288.66846  -8019033.05061
 91  4 30 21 29 45.0010000  0  5G 2G11G16G19G 6
  21260353.294   -12519396.863 8  -9755340.68623
  24383136.216     2664353.730 6   2076133.90321
  24550875.841     1645676.733 5    467879.68521
  22296064.9814    8136149.41746   6339853.54662
  22482333.591   -10370027.371 7  -8035972.25321
 91  4 30 21 30  0.0010000  0  5G 2G11G16G19G 6
  21259397.091   -12524422.343 8  -9759256.62123
  24390829.333     2704776.759 6   2107632.34621
  24556746.864     1676557.411 5    491942.45321
  22301822.2474    8166385.45546   6363414.05861
  22478198.622   -10391749.212 6  -8052898.31721
 91  4 30 21 30 15.0010000  0  5G 2G11G16G19G 6
  21258454.560   -12529376.729 8  -9763117.16023
  24398539.255     2745309.723 6   2139216.46321
  24562644.974     1707514.147 5    516064.46121
  22307582.4504    8196678.59446   6387019.06362
  22474067.396   -10413456.305 6  -8069812.89521
 91  4 30 21 30 30.0010000  0  5G 2G11G16G19G 6
  21257525.513   -12534258.075 8  -9766920.78623
  24406276.1614    2785954.04346   2170887.33361
  24568546.2944    1738548.33245    540246.84661
  22313357.4584    8227030.59746   6410669.93662
  22469938.3884  -10435146.71646  -8086714.47261
 91  4 30 21 30 45.0010000  0  5G 2G11G16G19G 6
  21256610.935   -12539065.628 8  -9770666.90723
  24414033.724     2826710.088 6   2202645.26821
  24574470.208     1769660.327 5    564489.83121
  22319145.0134    8257442.15646   6434367.21962
  22465815.028   -10456819.719 6  -8103602.48821
 91  4 30 21 31  0.0010000  0  5G 2G11G16G19G 6
  21255711.552   -12543796.542 8  -9774353.31123
  24421809.669     2867580.588 6   2234492.41021
  24580404.771     1800852.797 5    588795.53921
  22324945.8174    8287916.43146   6458113.37161
  22461693.6144  -10478472.18446  -8120474.49861
 91  4 30 21 31 15.0010000  0  5G 2G11G16G19G 6
  21254826.310   -12548445.462 8  -9777975.82723
  24429608.9814    2908570.73546   2266432.74661
  24586358.3024    1832130.67945    613167.79661
  22330758.4974    8318459.02146   6481912.75662
  22457577.7714  -10500098.53546  -8137326.15861
 91  4 30 21 31 30.0010000  0  5G 2G11G16G19G 6
  21253956.185   -12553019.994 8  -9781540.37423
  24437431.146     2949672.627 6   2298460.18521
  24592325.4194    1863486.04245    637600.44361
  22336578.200     8349062.309 6   6505759.42922
  22453467.427   -10521706.325 6  -8154163.35521
 91  4 30 21 31 45.0010000  0  5G 2G11G16G19G 6
  21253100.161   -12557516.713 8  -9785044.29123
  24445273.544     2990889.528 6   2330577.23221
  24598306.6924    1894922.21845    662096.02861
  22342417.0754    8379729.63546   6529656.01562
  22449361.052   -10543291.828 7  -8170983.18821
 91  4 30 21 32  0.0010000  0  5G 2G11G16G19G 6
  21252257.739   -12561938.357 8  -9788489.70523
  24453138.614     3032218.388 6   2362781.52921
  24604303.380     1926436.210 5    686652.28621
  22348266.9894    8410458.35246   6553600.42862
  22445256.130   -10564857.654 7  -8187787.68521
 91  4 30 21 32 15.0010000  0  5G 2G11G16G19G 6
  21251431.497   -12566285.036 8  -9791876.70823
  24461024.841     3073659.004 6   2395072.88921
  24610313.0994    1958027.87644    711269.05761
  22354124.8644    8441248.86346   6577592.99061
  22441156.5444  -10586403.63946  -8204576.72461
 91  4 30 21 32 30.0010000  0  4G 2G11G19G 6
  21250617.575   -12570559.093 8  -9795207.12123
  24468931.1614    3115208.76546   2427449.32261
  22359996.2554    8472098.82246   6601631.88661
  22437058.3564  -10607932.02146  -8221352.04261
 91  4 30 21 32 45.0010000  0  4G 2G11G19G 6
  21249818.044   -12574761.071 8  -9798481.36623
  24476858.3174    3156866.89146   2459910.18161
  22365876.614     8503007.894 6   6625716.83422
  22432966.310   -10629443.094 7  -8238113.87722
 91  4 30 21 33  0.0010000  0  4G 2G11G19G 6
  21249032.575   -12578891.325 8  -9801699.72523
  24484805.677     3198632.666 6   2492454.93121
  22371770.091     8533975.517 6   6649847.40422
  22428875.880   -10650937.271 7  -8254862.54321
 91  4 30 21 33 15.0010000  0  4G 2G11G19G 6
  21248260.083   -12582949.287 8  -9804861.75423
  24492772.6854    3240506.35246   2525083.77061
  22377673.0284    8565002.36746   6674024.13262
  22424790.021   -10672413.682 7  -8271597.36622
 91  4 30 21 33 30.0010000  0  4G 2G11G19G 6
  21247502.669   -12586931.650 8  -9807964.87323
  24500762.1224    3282491.04746   2557799.10261
  22383589.583     8596091.940 6   6698249.72722
  22420706.0134  -10693869.00247  -8288315.75662
 91  4 30 21 33 45.0010000  0  4G 2G11G19G 6
  21246757.497   -12590846.033 8  -9811015.02123
  24508771.942     3324579.036 6   2590594.93121
  22389515.0214    8627236.64546   6722518.28562
  22416627.177   -10715310.501 7  -8305023.37522
 91  4 30 21 34  0.0010000  0  4G 2G11G19G 6
  21246026.528   -12594689.013 8  -9814009.53423
  24516803.6144    3366773.43046   2623473.66661
  22395458.1924    8658440.07246   6746832.60662
  22412549.2164  -10736734.60847  -8321717.44761
 91  4 30 21 34 15.0010000  0  4G 2G11G19G 6
  21245308.716   -12598462.125 8  -9816949.60223
  24524850.185     3409072.420 5   2656433.90021
  22401402.802     8689700.853 6   6771191.60722
  22408474.396   -10758142.672 7  -8338399.00822
 91  4 30 21 34 30.0010000  0  4G 2G11G19G 6
  21244603.833   -12602161.361 8  -9819832.10523
  24532921.278     3451479.952 6   2689478.71121
  22407363.1384    8721023.11346   6795598.51862
  22404405.8804  -10779530.40747  -8355064.73662
 91  4 30 21 34 45.0010000  0  4G 2G11G19G 6
  21243914.255   -12605784.656 8  -9822655.43423
  24541011.7084    3493997.62746   2722609.35861
  22413335.739     8752408.936 6   6820054.96521
  22400340.9974  -10800895.79747  -8371713.05262
 91  4 30 21 35  0.0010000  0  4G 2G11G19G 6
  21243237.849   -12609336.947 8  -9825423.43123
  24549125.231     3536620.341 6   2755821.83921
  22419319.7944    8783853.64346   6844557.30162
  22396276.8884  -10822243.41346  -8388347.51462
 91  4 30 21 35 15.0010000  0  4G 2G11G19G 6
  21242575.825   -12612820.478 8  -9828137.85323
  24557255.1384    3579345.53546   2789114.19061
  22425312.825     8815354.930 6   6869103.71421
  22392217.9584  -10843575.42347  -8404969.82062
 91  4 30 21 35 30.0010000  0  4G 2G11G19G 6
  21241927.044   -12616232.268 8  -9830796.37323
  24565403.552     3622176.089 5   2822488.62921
  22431319.5994    8846916.06746   6893696.77062
  22388162.3564  -10864888.55046  -8421577.40662
 91  4 30 21 35 45.0010000  0  4G 2G11G19G 6
  21241290.333   -12619570.133 8  -9833397.28523
  24573575.091     3665113.760 5   2855946.53221
  22437339.6854    8878539.08146   6918338.04061
  22384111.755   -10886180.542 7  -8438168.52922
 91  4 30 21 36  0.0010000  0  4G 2G11G19G 6
  21240669.919   -12622836.666 8  -9835942.61823
  24581763.0364    3708155.74945   2889485.72961
  22443369.4814    8910221.46946   6943025.58261
  22380062.5054  -10907453.91547  -8454745.14162
 91  4 30 21 36 15.0010000  0  4G 2G11G19G 6
  21240061.794   -12626032.783 8  -9838433.08323
  24589972.942     3751301.077 5   2923105.44921
  22449408.5524    8941962.58046   6967758.87661
  22376016.231   -10928709.214 7  -8471307.66822
 91  4 30 21 36 30.0010000  0  4G 2G11G19G 6
  21239466.536   -12629158.774 8  -9840868.90123
  24598206.052     3794548.955 5   2956805.08621
  22455455.8494    8973762.14946   6992537.72261
  22371975.153   -10949946.612 7  -8487856.24222
 91  4 30 21 36 45.0010000  0  4G 2G11G19G 6
  21238885.138   -12632213.339 8  -9843249.06423
  24606451.724     3837900.678 5   2990585.63821
  22461520.4744    9005621.62846   7017363.25761
  22367938.466   -10971164.581 7  -8504389.68222
 91  4 30 21 37  0.0010000  0  3G11G19G 6
  24614722.724     3881349.199 6   3024441.61921
  22467592.755     9037534.419 6   7042230.32422
  22363902.771   -10992369.515 7  -8520912.96722
 91  4 30 21 37 15.0010000  0  4G 2G11G19G 6
  21237760.0134         -0.59358
  24623010.4664    3924896.76146   3058374.78461
  22473677.028     9069503.445 6   7067141.21321
  22359871.833   -11013558.757 7  -8537424.01622
 91  4 30 21 37 30.0010000  0  4G 2G11G19G 6
  21237217.919       -2854.545 8
  24631313.8884    3968544.33546   3092385.86461
  22479770.1614    9101529.74846   7092096.73262
  22355840.802   -11034731.072 7  -8553921.88022
 91  4 30 21 37 45.0010000  0  4G 2G11G19G 6
  21236686.224       -5639.940 8        -0.23333
  24639641.8414    4012291.71346   3126474.72261
  22485876.0524    9133613.43046   7117096.96661
  22351815.591   -11055886.137 7  -8570406.29822
 91  4 30 21 38  0.0010000  0  4G 2G11G19G 6
  21236168.896       -8357.903 8     -2118.10523
  24647986.4584    4056137.65846   3160640.37961
  22491992.185     9165753.484 6   7142141.12521
  22347792.2244  -11077024.72747  -8586877.88662
 91  4 30 21 38 15.0010000  0  4G 2G11G19G 6
  21235665.856      -11003.116 8     -4179.29323
  24656346.333     4100087.238 6   3194886.79721
  22498120.599     9197955.343 6   7167233.44121
  22343774.2474  -11098141.54647  -8603332.50962
 91  4 30 21 38 30.0010000  0  4G 2G11G19G 6
  21235176.950      -13578.806 8     -6186.30723
  24664730.255     4144136.885 6   3229211.18621
  22504257.0754    9230215.95346   7192371.54461
  22339759.4744  -11119239.53047  -8619772.45362
 91  4 30 21 38 45.0010000  0  4G 2G11G19G 6
  21234700.622      -16080.240 8     -8135.46023
  24673131.513     4188291.209 6   3263617.14621
  22510410.396     9262540.159 6   7217559.19322
  22335749.653   -11140313.625 7  -8636193.78322
 91  4 30 21 39  0.0010000  0  4G 2G11G19G 6
  21234237.247      -18512.776 8    -10030.92123
  24681551.3724    4232544.39846   3298100.14761
  22516571.2474    9294922.47246   7242792.12761
  22331742.419   -11161369.234 7  -8652600.70822
 91  4 30 21 39 15.0010000  0  4G 2G11G19G 6
  21233786.614      -20873.163 8    -11870.16823
  24689990.5754    4276899.55546   3332662.59361
  22522748.864     9327366.399 6   7268073.06621
  22327740.810   -11182402.892 7  -8668990.52922
 91  4 30 21 39 30.0010000  0  4G 2G11G19G 6
  21233351.646      -23162.332 8    -13653.92123
  24698455.935     4321355.573 6   3367303.63521
  22528930.5604    9359871.28046   7293401.50461
  22323743.286   -11203415.250 7  -8685363.75522
 91  4 30 21 39 45.0010000  0  4G 2G11G19G 6
  21232928.653      -25390.836 8    -15390.40223
  24706931.2554    4365901.58846   3402014.81461
  22535129.013     9392426.608 6   7318769.25121
  22319745.591   -11224416.704 7  -8701728.46322
 91  4 30 21 40  0.0010000  0  4G 2G11G19G 6
  21232515.974      -27552.900 8    -17075.10723
  24715426.1774    4410543.17246   3436800.45161
  22541333.8804    9425038.25446   7344180.88961
  22315751.927   -11245401.100 7  -8718079.90222
 91  4 30 21 40 15.0010000  0  3G11G19G 6
  24723940.2004    4455279.25446   3471659.72861
  22547549.872     9457705.331 6   7369635.70921
  22311761.849   -11266369.178 7  -8734418.61622
 91  4 30 21 40 30.0010000  0  4G 2G11G19G 6
  21231731.3884         -0.69258
  24732468.7474    4500106.70646   3506590.19961
  22553775.7864    9490425.15146   7395131.63061
  22307774.708   -11287323.548 7  -8750746.65222
 91  4 30 21 40 45.0010000  0  4G 2G11G19G 6
  21231356.2864      -1966.83148
  24741018.810     4545029.928 6   3541595.29521
  22560012.6144    9523202.57646   7420672.44261
  22303791.224   -11308259.397 7  -8767060.25222
 91  4 30 21 41  0.0010000  0  4G 2G11G19G 6
  21230995.716       -3868.255 8        -0.24233
  24749583.903     4590045.813 6   3576672.59621
  22566261.5364    9556034.80446   7446255.95961
  22299809.763   -11329179.278 7  -8783361.41122
 91  4 30 21 41 15.0010000  0  4G 2G11G19G 6
  21230646.356       -5702.034 8     -1429.14323
  24758166.8804    4635157.15946   3611824.28361
  22572521.5754    9588924.96146   7471884.60961
  22295832.849   -11350080.156 7  -8799647.76722
 91  4 30 21 41 30.0010000  0  4G 2G11G19G 6
  21230310.458       -7465.014 8     -2802.87623
  24766769.825     4680366.754 6   3647052.52221
  22578788.8024    9621876.42946   7497561.03961
  22291859.419   -11370958.622 7  -8815916.65222
 91  4 30 21 41 45.0010000  0  4G 2G11G19G 6
  21229987.513       -9158.153 8     -4122.19123
  24775392.138     4725673.325 6   3682356.32321
  22585073.099     9654888.061 6   7523284.34921
  22287891.224   -11391815.490 7  -8832168.71222
 91  4 30 21 42  0.0010000  0  4G 2G11G19G 6
  21229680.083      -10780.117 8     -5386.04223
  24784031.7004    4771078.18546   3717736.73161
  22591366.622     9687961.464 6   7549055.78721
  22283925.825   -11412649.064 7  -8848402.62222
 91  4 30 21 42 15.0010000  0  4G 2G11G19G 6
  21229383.896      -12332.838 8     -6595.93723
  24792693.286     4816579.085 6   3753191.95221
  22597673.216     9721094.859 6   7574873.97921
  22279964.778   -11433461.178 7  -8864619.80822
 91  4 30 21 42 30.0010000  0  4G 2G11G19G 6
  21229102.099      -13815.362 8     -7751.13323
  24801369.114     4862176.705 6   3788722.55221
  22603991.091     9754289.375 6   7600739.79021
  22276008.224   -11454250.570 7  -8880819.28722
 91  4 30 21 42 45.0010000  0  4G 2G11G19G 6
  21228832.817      -15229.426 8     -8852.98424
  24810064.208     4907869.013 6   3824326.92921
  22610315.4274    9787543.31146   7626651.91361
  22272057.122   -11475018.722 7  -8897002.21022
 91  4 30 21 43  0.0010000  0  4G 2G11G19G 6
  21228576.763      -16573.006 8     -9899.91023
  24818776.966     4953657.775 6   3860006.46521
  22616654.731     9820858.663 6   7652611.88321
  22268107.856   -11495763.566 7  -8913166.97822
 91  4 30 21 43 15.0010000  0  4G 2G11G19G 6
  21228333.317      -17850.375 8    -10895.24623
  24827509.747     4999538.611 6   3895757.75021
  22623004.0054    9854231.38846   7678616.56161
  22264165.021   -11516489.082 7  -8929316.69122
 91  4 30 21 43 30.0010000  0  4G 2G11G19G 6
  21228104.552      -19056.816 8    -11835.31323
  24836256.669     5045515.813 6   3931584.12221
  22629371.1694    9887666.03346   7704669.49861
  22260227.231   -11537190.317 7  -8945447.47722
 91  4 30 21 43 45.0010000  0  4G 2G11G19G 6
  21227888.060      -20193.331 8    -12720.88923
  24845027.099     5091588.234 6   3967484.70021
  22635744.481     9921161.853 6   7730770.09821
  22256290.356   -11557868.048 7  -8961559.94822
 91  4 30 21 44  0.0010000  0  4G 2G11G19G 6
  21227685.552      -21261.542 8    -13553.24323
  24853809.7554    5137753.80946   4003457.83861
  22642127.3024    9954717.32046   7756917.17661
  22252360.864   -11578523.858 7  -8977655.33522
 91  4 30 21 44 15.0010000  0  4G 2G11G19G 6
  21227495.747      -22262.442 8    -14333.14924
  24862611.935     5184011.143 6   4039502.50021
  22648525.630     9988331.465 6   7783109.97421
  22248433.653   -11599158.596 7  -8993734.30722
 91  4 30 21 44 30.0010000  0  4G 2G11G19G 6
  21227317.989      -23195.853 8    -15060.46223
  24871432.4744    5230360.60746   4075618.94861
  22654935.0524   10022004.81946   7809348.91161
  22244511.231   -11619771.538 7  -9009796.29522
 91  4 30 21 44 45.0010000  0  4G 2G11G19G 6
  21227151.474      -24063.660 8    -15736.65723
  24880268.841     5276799.888 6   4111805.38421
  22661351.2944   10055735.49046   7835632.51561
  22240591.091   -11640364.594 7  -9025842.78622
 91  4 30 21 45  0.0010000  0  4G 2G11G19G 6
  21226997.755      -24867.620 8    -16363.09923
  24889122.622     5323326.903 5   4148060.19121
  22667782.2314   10089521.74246   7861959.42761
  22236678.091   -11660939.269 7  -9041874.95922
 91  4 30 21 45 15.0010000  0  4G 2G11G19G 6
  21226856.575      -25604.377 8    -16937.18023
  24897992.5754    5369944.73645   4184385.74761
  22674221.4584   10123367.03946   7888332.35061
  22232765.927   -11681492.028 7  -9057890.05222
 91  4 30 21 45 30.0010000  0  4G 2G11G19G 6
  21226731.419      -26275.947 8    -17460.46224
  24906882.0674    5416651.20545   4220780.38561
  22680674.794    10157269.525 6   7914749.82921
  22228859.427   -11702024.531 7  -9073889.36322
 91  4 30 21 45 45.0010000  0  4G 2G11G19G 6
  21226617.606      -26879.696 8    -17930.90123
  24915784.599     5463448.730 5   4257245.97121
  22687135.4194   10191231.97446   7941214.03962
  22224955.864   -11722533.951 7  -9089870.68722
 91  4 30 21 46  0.0010000  0  4G 2G11G19G 6
  21226512.677      -27422.478 8    -18353.83023
  24924707.6384    5510330.05745   4293776.85261
  22693607.8804   10225247.49046   7967719.60662
  22221057.146   -11743027.026 7  -9105839.27122
 91  4 30 21 46 15.0010000  0  4G 2G11G19G 6
  21226420.317      -27896.874 8    -18723.47023
  24933647.864     5557302.525 5   4330378.76621
  22700092.3724   10259323.57746   7994272.36162
  22217162.036   -11763495.964 7  -9121789.04922
 91  4 30 21 46 30.0010000  0  4G 2G11G19G 6
  21226341.411      -28306.868 8    -19042.93123
  24942604.481     5604361.762 5   4367048.28021
  22706591.2314   10293456.53646   8020869.43462
  22213271.114   -11783944.647 7  -9137723.04622
 91  4 30 21 46 45.0010000  0  4G 2G11G19G 6
  21226275.856      -28653.486 8    -19313.00623
  24951575.3884    5651506.48645   4403784.41461
  22713094.2944   10327645.24346   8047509.95262
  22209383.364   -11804373.896 7  -9153641.89422
 91  4 30 21 47  0.0010000  0  4G 2G11G19G 6
  21226224.896      -28934.161 8    -19531.69423
  24960562.0134    5698738.86945   4440588.84561
  22719611.3414   10361892.56546   8074196.13862
  22205499.521   -11824780.973 7  -9169543.46722
 91  4 30 21 47 15.0010000  0  4G 2G11G19G 6
  21226185.630      -29148.021 8    -19698.32023
  24969566.052     5746059.573 5   4477462.10321
  22726141.2474   10396199.23746   8100928.57162
  22201619.810   -11845164.737 7  -9185426.87422
 91  4 30 21 47 30.0010000  0  4G 2G11G19G 6
  21226154.919      -29295.008 8
  24978589.3644    5793468.63545   4514404.20361
  22732679.1924   10430565.62746   8127707.53862
  22197744.614   -11865524.717 7  -9201291.74822
 91  4 30 21 47 45.0010000  0  4G 2G11G19G 6
  21226142.091      -29379.364 8
  24987619.9664    5840961.38945   4551411.53261
  22739229.1304   10464987.43346   8154529.69262
  22193875.497   -11885865.196 7  -9217141.42622
 91  4 30 21 48  0.0010000  0  4G 2G11G19G 6
  21226138.044      -29398.267 8
  24996682.2474    5888540.43645   4588486.09961
  22745791.669    10499467.523 6   8181397.25222
  22190007.653   -11906182.891 7  -9232973.35022
 91  4 30 21 48 15.0010000  0  3G 2G19G 6
  21226146.239      -29354.374 8
  22752361.9744   10534003.49546   8208308.36562
  22186147.419   -11926480.443 7  -9248789.57422
 91  4 30 21 48 30.0010000  0  3G 2G19G 6
  21226165.021      -29243.895 8
  22758947.989    10568599.149 6   8235265.97122
  22182288.536   -11946753.745 7  -9264586.90622
 91  4 30 21 48 45.0010000  0  3G 2G19G 6
  21226197.7164     -29070.70148
  22765540.091    10603250.630 6   8262267.08222
  22178434.083   -11967006.622 7  -9280368.32222
 91  4 30 21 49  0.0010000  0  3G 2G19G 6
  21226245.786      -28832.463 8
  22772145.7244   10637960.54946   8289313.73162
  22174584.442   -11987236.356 7  -9296131.70322
 91  4 30 21 49 15.0010000  0  3G 2G19G 6
  21226299.810      -28532.340 8    -19218.41123
  22778761.0134   10672725.76846   8316403.47062
  22170739.646   -12007445.764 7  -9311879.24722
 91  4 30 21 49 30.0010000  0  3G 2G19G 6
  21226369.731      -28168.834 8    -18935.14223
  22785387.0604   10707547.83846   8343537.51262
  22166896.880   -12027633.357 7  -9327609.79322
 91  4 30 21 49 45.0010000  0  3G 2G19G 6
  21226449.591      -27742.523 8    -18602.92924
  22792024.286    10742426.252 6   8370715.44622
  22163060.372   -12047799.401 7  -9343323.54722
 91  4 30 21 50  0.0010000  0  3G 2G19G 6
  21226545.325      -27249.744 8    -18218.92323
  22798672.692    10777364.672 6   8397940.14322
  22159227.583   -12067940.197 7  -9359017.62822
 91  4 30 21 50 15.0010000  0  3G 2G19G 6
  21226654.724      -26686.255 8    -17779.82024
  22805335.560    10812367.667 6   8425215.16322
  22155399.278   -12088051.113 7  -9374688.42522
 91  4 30 21 50 30.0010000  0  3G 2G19G 6
  21226772.630      -26054.669 8    -17287.65324
  22812007.833    10847432.490 6   8452538.35822
  22151579.6224  -12108134.44447  -9390337.73462
 91  4 30 21 50 45.0010000  0  3G 2G19G 6
  21226907.075      -25355.615 8    -16742.91523
  22818693.2084   10882558.60646   8479909.31962
  22147762.247   -12128190.715 7  -9405965.95322
 91  4 30 21 51  0.0010000  0  3G 2G19G 6
  21227052.349      -24586.245 8    -16143.38823
  22825387.388    10917749.122 6   8507330.45322
  22143951.450   -12148216.622 7  -9421570.50522
 91  4 30 21 51 15.0010000  0  3G 2G19G 6
  21227212.692      -23747.124 8    -15489.50723
  22832095.763    10953003.429 6   8534801.29522
  22140144.255   -12168212.723 7  -9437151.84322
 91  4 30 21 51 30.0010000  0  3G 2G19G 6
  21227385.646      -22836.981 8    -14780.28424
  22838818.7474   10988322.92346   8562322.93862
  22136345.638   -12188177.518 7  -9452708.78122
 91  4 30 21 51 45.0010000  0  3G 2G19G 6
  21227571.708      -21858.098 8    -14017.49623
  22845552.989    11023705.313 6   8589893.58222
  22132552.9814  -12208112.97347  -9468242.86162
 91  4 30 21 52  0.0010000  0  3G 2G19G 6
  21227769.458      -20807.463 8    -13198.79624
  22852294.403    11059153.853 6   8617515.77722
  22128764.560   -12228015.843 7  -9483751.55022
 91  4 30 21 52 15.0010000  0  3G 2G19G 6
  21227983.700      -19688.743 8    -12327.04523
  22859054.2244   11094665.12146   8645186.85262
  22124983.5994  -12247889.48947  -9499237.46662
 91  4 30 21 52 30.0010000  0  3G 2G19G 6
  21228209.606      -18502.060 8    -11402.33823
  22865824.0674   11130238.86846   8672906.61662
  22121205.1464  -12267733.93947  -9514700.63362
 91  4 30 21 52 45.0010000  0  3G 2G19G 6
  21228449.560      -17242.081 8    -10420.51423
  22872606.036    11165880.497 6   8700679.27022
  22117438.2164  -12287543.64247  -9530136.72562
 91  4 30 21 53  0.0010000  0  3G 2G19G 6
  21228703.247      -15910.232 8     -9382.68923
  22879402.7004   11201588.77046   8728503.85662
  22113674.5214  -12307319.70847  -9545546.60762
 91  4 30 21 53 15.0010000  0  3G 2G19G 6
  21228970.450      -14506.938 8     -8289.19123
  22886210.8804   11237363.33546   8756380.09662
  22109916.278   -12327062.241 7  -9560930.35822
 91  4 30 21 53 30.0010000  0  3G 2G19G 6
  21229250.067      -13035.272 8     -7142.41623
  22893026.380    11273201.240 6   8784305.69321
  22106165.825   -12346774.168 7  -9576290.25722
 91  4 30 21 53 45.0010000  0  3G 2G19G 6
  21229542.989      -11495.553 8     -5942.61523
  22899859.8964   11309102.16546   8812280.40661
  22102422.099   -12366455.651 7  -9591626.43722
 91  4 30 21 54  0.0010000  0  3G 2G19G 6
  21229848.489       -9887.425 8     -4689.50623
  22906704.0604   11345066.65246   8840304.64361
  22098682.4814  -12386105.95747  -9606938.32562
 91  4 30 21 54 15.0010000  0  3G 2G19G 6
  21230167.9814      -8211.00848     -3383.18163
  22913561.0134   11381094.61846   8868378.34661
  22094948.458   -12405725.002 7  -9622225.85222
 91  4 30 21 54 30.0010000  0  3G 2G19G 6
  21230500.310       -6466.913 8     -2024.12623
  22920428.0834   11417185.41446   8896501.00461
  22091222.216   -12425313.233 7  -9637489.36522
 91  4 30 21 54 45.0010000  0  3G 2G19G 6
  21230845.075       -4655.706 8      -612.77323
  22927308.6064   11453338.69946   8924672.36061
  22087498.0674  -12444870.95047  -9652729.10662
 91  4 30 21 55  0.0010000  0  3G 2G19G 6
  21231202.325       -2779.002 8       849.62123
  22934201.4664   11489552.77446   8952891.08261
  22083781.8964  -12464399.58047  -9667946.17862
 91  4 30 21 55 15.0010000  0  3G 2G19G 6
  21231571.653        -835.432 8      2364.10723
  22941102.1384   11525829.12646   8981158.33162
  22080072.1774  -12483897.62547  -9683139.42062
 91  4 30 21 55 30.0010000  0  3G 2G19G 6
  21231953.442        1172.057 8      3928.41123
  22948015.3494   11562164.99246   9009471.96061
  22076367.9974  -12503367.51947  -9698310.72762
 91  4 30 21 55 45.0010000  0  3G 2G19G 6
  21232348.591        3246.635 8      5544.98723
  22954944.4814   11598563.75546   9037834.59261
  22072668.403   -12522805.924 7  -9713457.49222
 91  4 30 21 56  0.0010000  0  3G 2G19G 6
  21232754.911        5386.190 8      7212.19023
  22961883.7314   11635023.40946   9066244.67861
  22068976.591   -12542214.570 7  -9728581.06622
 91  4 30 21 56 15.0010000  0  3G 2G19G 6
  21233173.724        7590.555 8      8929.89723
  22968830.5994   11671543.61546   9094701.93861
  22065287.450   -12561593.493 7  -9743681.48722
 91  4 30 21 56 30.0010000  0  3G 2G19G 6
  21233606.356        9858.905 8     10697.46523
  22975789.8334   11708123.50146   9123205.70661
  22061605.841   -12580943.433 7  -9758759.31422
 91  4 30 21 56 45.0010000  0  3G 2G19G 6
  21234050.794       12193.139 8     12516.36823
  22982766.3174   11744765.11546   9151757.57562
  22057928.685   -12600262.199 7  -9773812.85322
 91  4 30 21 57  0.0010000  0  3G 2G19G 6
  21234507.481       14589.667 8     14383.81623
  22989749.9814   11781465.34046   9180355.11161
  22054257.4814  -12619553.00647  -9788844.61262
 91  4 30 21 57 15.0010000  0  3G 2G19G 6
  21234975.919       17048.285 8     16299.64423
  22996744.349    11818223.885 6   9208998.08821
  22050592.1774  -12638815.73047  -9803854.48662
 91  4 30 21 57 30.0010000  0  3G 2G19G 6
  21235453.896       19568.163 8     18263.20223
  23003750.1384   11855039.91946   9237685.86561
  22046931.9354  -12658051.05447  -9818843.01362
 91  4 30 21 57 45.0010000  0  3G 2G19G 6
  21235945.786       22152.631 8     20277.09323
  23010767.2314   11891916.83846   9266421.08961
  22043279.060   -12677255.414 7  -9833807.40422
 91  4 30 21 58  0.0010000  0  3G 2G19G 6
  21236448.294       24795.382 8     22336.40023
  23017797.763    11928848.515 6   9295198.97721
  22039628.021   -12696434.867 7  -9848752.39022
 91  4 30 21 58 15.0010000  0  3G 2G19G 6
  21236963.114       27495.293 8     24440.24823
  23024831.614    11965833.703 6   9324018.55921
  22035983.349   -12715590.466 7  -9863678.78622
 91  4 30 21 58 30.0010000  0  3G 2G19G 6
  21237487.583       30253.528 8     26589.54224
  23031881.060    12002873.803 6   9352880.92921
  22032341.7084  -12734720.68347  -9878585.40662
 91  4 30 21 58 45.0010000  0  3G 2G19G 6
  21238024.146       33070.988 8     28784.98623
  23038940.927    12039969.632 6   9381786.72221
  22028708.130   -12753824.318 7  -9893471.31222
 91  4 30 21 59  0.0010000  0  3G 2G19G 6
  21238570.794       35946.810 8     31025.90623
  23046012.3334   12077120.56646   9410735.46161
  22025077.638   -12772901.962 7  -9908336.96322
 91  4 30 21 59 15.0010000  0  3G 2G19G 6
  21239128.911       38883.671 8     33314.39123
  23053089.849    12114329.439 6   9439729.34221
  22021450.7944  -12791950.55647  -9923179.98462
 91  4 30 21 59 30.0010000  0  3G 2G19G 6
  21239701.075       41881.677 8     35650.51923
  23060181.646    12151596.338 6   9468768.43521
  22017831.9664  -12810969.96147  -9938000.25862
 91  4 30 21 59 45.0010000  0  3G 2G19G 6
  21240282.239       44944.268 8     38036.97223
  23067286.786    12188924.635 6   9497855.37421
  22014219.0524  -12829956.54747  -9952794.96462
 91  4 30 22  0  0.0010000  0  3G 2G19G 6
  21240876.513       48066.262 8     40469.71723
  23074400.497    12226309.206 6   9526986.15721
  22010611.0994  -12848915.12547  -9967567.84262
 91  4 30 22  0 15.0010000  0  3G 2G19G 6
  21241482.403       51247.271 8     42948.44323
  23081522.700    12263749.975 6   9556160.74321
  22007007.8334  -12867845.66447  -9982318.87363
 91  4 30 22  0 30.0010000  0  3G 2G19G 6
  21242099.544       54489.702 8     45475.03124
  23088660.130    12301249.654 6   9585381.22221
  22003411.9814  -12886745.49147  -9997045.97462
 91  4 30 22  0 45.0010000  0  3G 2G19G 6
  21242727.786       57793.490 8     48049.43523
  23095805.606    12338807.987 6   9614647.41121
  21999820.5284  -12905614.59447 -10011749.13362
 91  4 30 22  1  0.0010000  0  3G 2G19G 6
  21243368.528       61158.086 8     50671.22124
  23102969.8884   12376424.19446   9643958.68361
  21996236.614   -12924453.423 7 -10026428.69922
 91  4 30 22  1 15.0010000  0  3G 2G19G 6
  21244018.810       64582.897 8     53339.92524
  23110132.6304   12414097.93946   9673314.79261
  21992657.7554  -12943262.18547 -10041084.83962
 91  4 30 22  1 30.0010000  0  3G 2G19G 6
  21244684.981       68071.133 8     56058.05523
  23117316.075    12451832.585 6   9702718.35821
  21989084.513   -12962037.352 7 -10055714.79723
 91  4 30 22  1 45.0010000  0  3G 2G19G 6
  21245359.888       71622.809 8     58825.61423
  23124506.810    12489628.150 6   9732169.40121
  21985518.4974  -12980778.72147 -10070318.42562
 91  4 30 22  2  0.0010000  0  3G 2G19G 6
  21246047.849       75236.299 8     61641.34024
  23131711.560    12527483.008 6   9761666.64021
  21981957.2634  -12999487.79347 -10084896.88363
 91  4 30 22  2 15.0010000  0  3G 2G19G 6
  21246746.810       78912.290 8     64505.77223
  23138926.4114   12565398.00646   9791210.74161
  21978404.2634  -13018163.48947 -10099449.33663
 91  4 30 22  2 30.0010000  0  3G 2G19G 6
  21247458.864       82654.592 8     67421.87123
  23146154.099    12603377.218 6   9820804.87921
  21974856.7084  -13036801.55447 -10113972.46663
 91  4 30 22  2 45.0010000  0  3G 2G19G 6
  21248183.341       86461.201 8     70388.08123
  23153391.013    12641418.660 6   9850447.50621
  21971317.5524  -13055403.70647 -10128467.61063
 91  4 30 22  3  0.0010000  0  3G 2G19G 6
  21248920.669       90335.830 8     73407.29324
  23160642.888    12679526.050 6   9880141.52721
  21967785.2634  -13073966.04247 -10142931.73263
 91  4 30 22  3 15.0010000  0  3G 2G19G 6
  21249671.036       94278.930 8     76479.85923
  23167909.778    12717699.945 6   9909887.36321
  21964260.6774  -13092488.00847 -10157364.39363
 91  4 30 22  3 30.0010000  0  3G 2G19G 6
  21250434.833       98294.776 8     79609.10723
  23175187.349    12755944.606 6   9939688.34721
  21960744.2314  -13110965.18147 -10171762.15263
 91  4 30 22  3 45.0010000  0  4G13G 2G19G 6
  24583742.2474         -0.59054
  21251213.255      102386.102 8     82797.16823
  23182478.286    12794262.865 6   9969546.67921
  21957236.4114  -13129394.26747 -10186122.44263
 91  4 30 22  4  0.0010000  0  4G13G 2G19G 6
  24573205.5054     -55405.00144
  21252005.013      106546.095 8     86038.74624
  23189784.169    12832647.988 6   9999457.10621
  21953738.5444  -13147782.00447 -10200450.51363
 91  4 30 22  4 15.0010000  0  4G13G 2G19G 6
  24562668.4814    -110775.32244
  21252810.786      110779.349 8     89337.40423
  23197100.122    12871104.612 6  10029423.25821
  21950249.1694  -13166123.41747 -10214742.48563
 91  4 30 22  4 30.0010000  0  4G13G 2G19G 6
  24552134.8884    -166113.07044
  21253630.114      115084.139 8     92691.80424
  23204431.5914   12909631.14246  10059443.87261
  21946765.7944  -13184420.04747 -10228999.56063
 91  4 30 22  4 45.0010000  0  4G13G 2G19G 6
  24541607.864     -221423.114 4
  21254461.763      119455.216 8     96097.85623
  23211777.1224   12948222.28046  10089514.82761
  21943291.560   -13202676.785 7 -10243225.55123
 91  4 30 22  5  0.0010000  0  4G13G 2G19G 6
  24531090.802     -276702.569 4
  21255306.716      123894.916 8     99557.38123
  23219134.9354   12986880.46546  10119638.03261
  21939827.2164  -13220891.05947 -10257418.45463
 91  4 30 22  5 15.0010000  0  4G13G 2G19G 6
  24520576.669     -331950.076 4        -0.19231
  21256164.513      128403.947 8    103070.93223
  23226502.528    13025606.418 6  10149814.05321
  21936367.5444  -13239061.92547 -10271577.53563
 91  4 30 22  5 30.0010000  0  4G13G 2G19G 6
  24510067.544     -387167.615 4    -43026.56221
  21257035.146      132979.708 8    106636.47723
  23233887.1774   13064397.62546  10180040.90561
  21932918.1464  -13257191.79147 -10285704.66463
 91  4 30 22  5 45.0010000  0  4G13G 2G19G 6
  24499568.028     -442354.838 4    -86029.31721
  21257917.880      137622.223 8    110254.04123
  23241277.0284   13103254.32146  10210318.79361
  21929474.8174  -13275280.23647 -10299799.51963
 91  4 30 22  6  0.0010000  0  4G13G 2G19G 6
  24489070.5054    -497515.61645   -129011.52061
  21258814.263      142327.188 8    113920.26423
  23248685.958    13142172.230 6  10240644.37821
  21926042.0994  -13293331.22347 -10313865.18463
 91  4 30 22  6 15.0010000  0  4G13G 2G19G 6
  24478579.481     -552648.796 5   -171972.18121
  21259721.513      147095.178 8    117635.60223
  23256100.888    13181152.188 6  10271018.31121
  21922614.3024  -13311343.96147 -10327901.04563
 91  4 30 22  6 30.0010000  0  4G13G 2G19G 6
  24468092.942     -607750.259 5   -214908.14221
  21260641.755      151930.021 8    121403.03023
  23263532.4274   13220197.87846  10301443.46361
  21919194.6924  -13329314.46347 -10341903.99563
 91  4 30 22  6 45.0020000  0  4G13G 2G19G 6
  24457612.5644    -662824.01945   -257822.50861
  21261573.674      156831.315 8    125222.23923
  23270973.244    13259311.117 6  10331921.26121
  21915780.8614  -13347244.41147 -10355875.34763
 91  4 30 22  7  0.0020000  0  4G13G 2G19G 6
  24447137.525     -717861.882 5   -300708.88921
  21262519.150      161798.707 8    129092.95323
  23278430.2994   13298487.08346  10362447.92361
  21912378.9944  -13365130.89447 -10369812.83063
 91  4 30 22  7 15.0020000  0  4G13G 2G19G 6
  24436672.361     -772869.629 5   -343571.80321
  21263476.549      166829.670 8    133013.20123
  23285896.111    13337725.660 6  10393023.38321
  21908982.6974  -13382977.50147 -10383719.24163
 91  4 30 22  7 30.0020000  0  4G13G 2G19G 6
  24426207.9394    -827846.65345   -386410.81161
  21264445.658      171924.464 8    136983.18923
  23293377.768    13377027.169 6  10423647.87721
  21905594.5334  -13400783.77847 -10397594.22663
 91  4 30 22  7 45.0020000  0  4G13G 2G19G 6
  24415755.1194    -882795.55945   -429227.89161
  21265427.291      177080.071 8    141000.56223
  23300864.0414   13416388.60646  10454319.06361
  21902211.1584  -13418552.53647 -10411439.97663
 91  4 30 22  8  0.0020000  0  4G13G 2G19G 6
  24405304.1664    -937713.08645   -472020.51161
  21266420.658      182299.322 8    145067.52723
  23308368.0644   13455813.04546  10485039.33961
  21898839.2604  -13436280.54647 -10425253.97663
 91  4 30 22  8 15.0020000  0  4G13G 2G19G 6
  24394860.525     -992596.624 5   -514786.68421
  21267425.635      187584.328 8    149185.73123
  23315883.0184   13495302.47446  10515810.25661
  21895473.4554  -13453965.53947 -10439034.45663
 91  4 30 22  8 30.0020000  0  4G13G 2G19G 6
  24384418.244    -1047444.306 5   -557524.89921
  21268444.439      192936.486 8    153356.26223
  23323413.3774   13534858.25546  10546632.88061
  21892116.1894  -13471605.85547 -10452780.11763
 91  4 30 22  8 45.0020000  0  4G13G 2G19G 6
  24373989.955    -1102258.946 5   -600237.33421
  21269475.064      198352.460 8    157576.51723
  23330947.9474   13574477.21846  10577504.73861
  21888766.1744  -13489204.57547 -10466493.37463
 91  4 30 22  9  0.0020000  0  4G13G 2G19G 6
  24363564.8694   -1157041.08845   -642924.49261
  21270518.494      203831.058 8    161845.57323
  23338500.3144   13614158.34946  10608425.04761
  21885426.4394  -13506762.51347 -10480174.85063
 91  4 30 22  9 15.0020000  0  4G13G 2G19G 6
  24353145.416    -1211789.935 5   -685585.72121
  21271572.283      209372.599 8    166163.67423
  23346063.3694   13653902.08446  10639394.13061
  21882092.8614  -13524278.99247 -10493824.01963
 91  4 30 22  9 30.0020000  0  4G13G 2G19G 6
  24342733.143    -1266503.010 5   -728219.00121
  21272638.939      214979.382 8    170532.61124
  23353641.6434   13693710.60945  10670413.69461
  21878768.1354  -13541751.62147 -10507439.02063
 91  4 30 22  9 45.0020000  0  4G13G 2G19G 6
  24332328.541    -1321181.416 5   -770825.34921
  21273718.064      220649.816 8    174951.14724
  23361226.8614   13733582.32746  10701482.49961
  21875450.7294  -13559181.72147 -10521020.88563
 91  4 30 22 10  0.0020000  0  4G13G 2G19G 6
  24321930.721    -1375826.436 4   -813405.59821
  21274808.760      226382.046 8    179417.83824
  23368827.5494   13773515.68146  10732599.33661
  21872142.1114  -13576570.85347 -10534570.81963
 91  4 30 22 10 15.0020000  0  4G13G 2G19G 6
  24311537.1824   -1430440.91544   -855962.11661
  21275910.424      232172.595 8    183929.97124
  23376433.7214   13813507.08846  10763761.40761
  21868839.4554  -13593922.11647 -10548091.25463
 91  4 30 22 10 30.0020000  0  4G13G 2G19G 6
  24301147.205    -1485024.931 4   -898494.84621
  21277023.830      238021.054 8    188487.22724
  23384058.6664   13853556.12046  10794968.39061
  21865546.4394  -13611235.64347 -10561582.27863
 91  4 30 22 10 45.0020000  0  4G13G 2G19G 6
  24290768.393    -1539579.895 5   -941004.97221
  21278146.174      243925.496 8    193088.10624
  23391686.9084   13893660.84346  10826218.75561
  21862257.9394  -13628513.18647 -10575045.26663
 91  4 30 22 11  0.0020000  0  4G13G 2G19G 6
  24280393.135    -1594105.044 5   -983491.88721
  21279282.158      249886.187 8    197732.81523
  23399332.7054   13933821.56546  10857512.76161
  21858976.7364  -13645754.23447 -10588479.81863
 91  4 30 22 11 15.0020000  0  4G13G 2G19G 6
  24270022.1044   -1648604.79045  -1025958.94461
  21280425.604      255898.330 8    202417.61624
  23406981.9324   13974033.81146  10888846.90361
  21855702.7294  -13662963.17747 -10601889.34863
 91  4 30 22 11 30.0020000  0  4G13G 2G19G 6
  24259652.932    -1703082.439 5  -1068408.83921
  21281579.580      261957.676 8    207139.20124
  23414644.9324   14014293.62346  10920218.12061
  21852433.5724  -13680143.80247 -10615276.81563
 91  4 30 22 11 45.0020000  0  4G13G 2G19G 6
  24249291.4244   -1757531.53045  -1110836.45461
  21282740.596      268070.646 8    211902.56924
  23422313.9474   14054607.24046  10951631.27061
  21849170.6584  -13697289.57747 -10628637.12463
 91  4 30 22 12  0.0020000  0  4G13G 2G19G 6
  24238938.104    -1811953.740 5  -1153243.12621
  21283915.205      274235.067 8    216706.02724
  23429998.4164   14094972.29646  10983084.49561
  21845914.1824  -13714402.59247 -10641971.90963
 91  4 30 22 12 15.0020000  0  4G13G 2G19G 6
  24228586.8544   -1866344.86845  -1195625.56861
  21285097.439      280454.684 8    221552.49223
  23437688.3854   14135392.56146  11014580.73761
  21842664.3774  -13731478.84947 -10655278.05063
 91  4 30 22 12 30.0020000  0  4G13G 2G19G 6
  24218240.9634   -1920704.49545  -1237983.44761
  21286292.9714     286729.56448    226442.02064
  23445392.1354   14175868.24846  11046120.16961
  21839421.6584  -13748517.81447 -10668555.13363
 91  4 30 22 12 45.0020000  0  4G13G 2G19G 6
  24207904.924    -1975028.385 5  -1280313.51621
  21287497.814      293063.188 8    231377.32724
  23453104.510    14216403.052 6  11077705.66121
  21836187.0724  -13765515.72747 -10681800.22363
 91  4 30 22 13  0.0020000  0  4G13G 2G19G 6
  24197574.814    -2029315.000 5  -1322614.51521
  21288714.439      299456.620 8    236359.23624
  23460829.5334   14256998.04746  11109338.05561
  21832961.0184  -13782471.16847 -10695012.22563
 91  4 30 22 13 15.0020000  0  4G13G 2G19G 6
  24187249.541    -2083560.735 5  -1364883.69821
  21289942.705      305912.957 8    241390.16124
  23468567.1274   14297656.50246  11141019.90061
  21829742.7604  -13799380.82347 -10708188.54763
 91  4 30 22 13 30.0020000  0  4G13G 2G19G 6
  24176936.674    -2137757.158 5  -1407114.42321
  21291184.338      312440.418 8    246476.50924
  23476322.549    14338386.438 6  11172757.43521
  21826534.8304  -13816236.18447 -10721322.56163
 91  4 30 22 13 45.0020000  0  4G13G 2G19G 6
  24166633.4244   -2191908.03545  -1449309.64061
  21292440.166      319034.903 8    251615.08224
  23484082.0334   14379183.78546  11204547.51161
  21823336.8694  -13833041.27647 -10734417.40663
 91  4 30 22 14  0.0020000  0  4G13G 2G19G 6
  24156337.8544   -2246014.22845  -1491470.06361
  21293707.322      325694.651 8    256804.51024
  23491854.236    14420046.899 6  11236388.82221
  21820148.1974  -13849797.46647 -10747474.14863
 91  4 30 22 14 15.0020000  0  4G13G 2G19G 6
  24146050.3694   -2300079.68645  -1533598.73261
  21294986.189      332415.524 8    262041.56424
  23499644.9394   14460971.51446  11268278.06461
  21816968.4394  -13866508.76147 -10760495.90563
 91  4 30 22 14 30.0020000  0  4G13G 2G19G 6
  24135766.8694   -2354108.95145  -1575699.23261
  21296275.596      339192.331 8    267322.20824
  23507443.5644   14501952.65846  11300211.35361
  21813795.5184  -13883179.80047 -10773486.29363
 91  4 30 22 14 45.0020000  0  4G13G 2G19G 6
  24125491.2914   -2408102.85045  -1617772.13561
  21297576.127      346023.589 8    272645.28224
  23515249.8694   14542988.96946  11332187.64061
  21810631.8304  -13899811.92347 -10786446.35563
 91  4 30 22 15  0.0020000  0  4G13G 2G19G 6
  24115221.4244   -2462067.87945  -1659822.56661
  21298885.275      352902.199 8    278005.25424
  23523070.5724   14584073.55946  11364201.53961
  21807471.5494  -13916411.65547 -10799381.18263
 91  4 30 22 15 15.0020000  0  4G13G 2G19G 6
  24104956.979    -2516000.904 5  -1701848.05021
  21300203.064      359831.415 8    283404.66024
  23530898.330    14625209.337 6  11396255.32221
  21804319.6434  -13932975.90847 -10812288.35963
 91  4 30 22 15 30.0020000  0  4G13G 2G19G 6
  24094702.822    -2569898.042 5  -1743845.55121
  21301531.893      366814.419 8    288845.97624
  23538738.002    14666399.581 6  11428351.53721
  21801175.4244  -13949500.99547 -10825165.01763
 91  4 30 22 15 45.0020000  0  4G13G 2G19G 6
  24084451.8854   -2623760.25445  -1785815.85661
  21302870.494      373849.886 8    294328.17524
  23546584.3694   14707643.15346  11460489.31561
  21798039.0334  -13965987.83047 -10838011.87363
 91  4 30 22 16  0.0020000  0  4G13G 2G19G 6
  24074211.7754   -2677585.51145  -1827757.33261
  21304220.283      380939.345 8    299852.44424
  23554444.322    14748941.431 5  11492669.72621
  21794908.6274  -13982434.98447 -10850827.80263
 91  4 30 22 16 15.0020000  0  4G13G 2G19G 6
  24063974.8774   -2731372.31845  -1869668.86061
  21305578.643      388083.572 8    305419.39324
  23562313.057    14790295.560 6  11524893.64321
  21791785.4714  -13998841.04047 -10863611.71063
 91  4 30 22 16 30.0020000  0  4G13G 2G19G 6
  24053744.400    -2785122.787 5  -1911552.09421
  21306948.354      395280.049 8    311027.05224
  23570192.4474   14831703.01946  11557159.12661
  21788672.1044  -14015208.22047 -10876365.32663
 91  4 30 22 16 45.0020000  0  4G13G 2G19G 6
  24043525.658    -2838832.646 5  -1953403.62121
  21308328.330      402532.552 8    316678.37424
  23578082.2444   14873167.60546  11589469.13561
  21785565.2294  -14031532.56647 -10889085.56763
 91  4 30 22 17  0.0020000  0  4G13G 2G19G 6
  24033310.330    -2892506.466 5  -1995227.11521
  21309719.479      409835.974 8    322369.37024
  23585981.7994   14914684.23146  11621819.68261
  21782465.8224  -14047818.79247 -10901776.10163
 91  4 30 22 17 15.0020000  0  4G13G 2G19G 6
  24023102.6434   -2946138.88345  -2037018.37961
  21311119.346      417195.320 8    328103.94524
  23593891.064    14956257.646 5  11654214.48321
  21779375.3694  -14064061.99647 -10914433.11163
 91  4 30 22 17 30.0020000  0  4G13G 2G19G 6
  24012904.4244   -2999729.20645  -2078776.78861
  21312530.439      424610.824 8    333882.28024
  23601816.861    14997888.225 6  11686653.82121
  21776291.5724  -14080261.28747 -10927055.90763
 91  4 30 22 17 45.0020000  0  4G13G 2G19G 6
  24002715.8074   -3053276.16845  -2120501.43361
  21313952.479      432083.359 8    339705.04924
  23609748.1744   15039576.82645  11719138.37061
  21773218.0494  -14096415.75947 -10939643.77563
 91  4 30 22 18  0.0020000  0  4G13G 2G19G 6
  23992536.072    -3106775.162 5  -2162188.67521
  21315385.424      439617.004 8    345575.44424
  23617696.6894   15081327.63045  11751671.40061
  21770152.9634  -14112520.85747 -10952193.17563
 91  4 30 22 18 15.0020000  0  4G13G 2G19G 6
  23982363.119    -3160228.392 5  -2203840.26721
  21316830.346      447208.757 8    351491.11624
  23625651.080    15123138.143 6  11784250.95821
  21767097.6504  -14128579.28347 -10964706.20263
 91  4 30 22 18 30.0020000  0  4G13G 2G19G 6
  23972200.268    -3213637.088 5  -2245457.18021
  21318285.768      454857.018 8    357450.81924
  23633615.689    15165006.505 6  11816875.57821
  21764050.1504  -14144592.36247 -10977183.89863
 91  4 30 22 18 45.0020000  0  5G13G 2G15G19G 6
  23962046.213    -3266998.692 5  -2287037.38221
  21319751.408      462564.298 8    363456.51224
  24786314.9164         -0.38855
  23641599.119    15206935.133 6  11849547.16621
  21761013.0104  -14160557.31147 -10989624.08663
 91  4 30 22 19  0.0020000  0  5G13G 2G15G19G 6
  23951901.4714   -3320315.09845  -2328582.36961
  21321230.064      470328.167 8    369506.30024
  24783479.1434     -14882.94545
  23649588.0104   15248921.62346  11882263.84461
  21757983.2754  -14176476.30847 -11002028.46763
 91  4 30 22 19 15.0020000  0  5G13G 2G15G19G 6
  23941763.846    -3373587.322 5  -2370092.91921
  21322718.010      478147.006 8    375598.92424
  24780664.0644     -29665.79545
  23657588.768    15290964.486 6  11915024.44021
  21754962.1974  -14192350.81347 -11014398.17963
 91  4 30 22 19 30.0020000  0  5G13G 2G15G19G 6
  23931634.393    -3426813.718 5  -2411567.78321
  21324216.463      486021.960 8    381735.27624
  24777877.5334     -44347.51045
  23665599.939    15333064.891 5  11947829.87621
  21751951.5414  -14208179.18047 -11026731.94363
 91  4 30 22 19 45.0020000  0  5G13G 2G15G19G 6
  23921513.2994   -3479993.92845  -2453006.66561
  21325725.799      493952.823 8    387915.18424
  24775099.072      -58927.725 5
  23673621.6194   15375222.60845  11980679.97061
  21748946.5104  -14223961.26047 -11039029.63763
 91  4 30 22 20  0.0020000  0  5G13G 2G15G19G 6
  23911399.4004   -3533130.88545  -2494411.82561
  21327244.143      501936.260 8    394136.06324
  24772342.0104     -73409.43245        -0.00571
  23681656.3304   15417434.37645  12013572.18261
  21745951.7834  -14239700.13447 -11051293.66563
 91  4 30 22 20 15.0020000  0  5G13G 2G15G19G 6
  23901299.244    -3586220.088 5  -2535779.77121
  21328774.721      509976.059 8    400400.86223
  24769607.6584     -87788.43745    -11204.34761
  23689699.463    15459704.023 5  12046509.49421
  21742965.1824  -14255391.92547 -11063521.00563
 91  4 30 22 20 30.0020000  0  5G13G 2G15G19G 6
  23891207.166    -3639259.912 5  -2577109.28321
  21330315.674      518073.577 8    406710.63724
  24766885.572     -102063.054 5    -22327.36421
  23697752.2134   15502032.90945  12079492.95161
  21739989.5414  -14271034.77947 -11075710.21663
 91  4 30 22 20 45.0020000  0  5G13G 2G15G19G 6
  23881121.9474   -3692250.18945  -2618400.12161
  21331867.400      526228.649 8    413065.25724
  24764193.5494    -116233.13045    -33368.92361
  23705820.299    15544420.922 5  12112522.48821
  21737022.5724  -14286628.65447 -11087861.25563
 91  4 30 22 21  0.0020000  0  5G13G 2G15G19G 6
  23871048.1894   -3745192.94945  -2659653.99861
  21333429.799      534438.537 8    419462.59224
  24761515.439     -130300.910 5    -44330.75121
  23713895.7684   15586865.48545  12145596.10461
  21734062.9634  -14302175.88647 -11099975.95363
 91  4 30 22 21 15.0020000  0  5G13G 2G15G19G 6
  23860983.8074   -3798088.01445  -2700870.67861
  21335002.330      542703.122 8    425902.54624
  24758857.564     -144266.351 5    -55212.82421
  23721983.213    15629366.290 5  12178713.52721
  21731113.572   -14317676.535 7 -11112054.35223
 91  4 30 22 21 30.0020000  0  5G13G 2G15G19G 6
  23850925.580    -3850936.544 5  -2742051.12621
  21336583.830      551020.680 8    432383.77524
  24756218.979     -158130.609 5    -66016.06821
  23730080.682    15671921.665 5  12211873.47221
  21728172.5334  -14333131.99347 -11124097.53863
 91  4 30 22 21 45.0020000  0  5G13G 2G15G19G 6
  23840877.9164   -3903728.33245  -2783187.35161
  21338179.799      559400.777 8    438913.74324
  24753605.7214    -171883.49545    -76732.52961
  23738190.3074   15714541.42745  12245083.58961
  21725243.080   -14348532.307 7 -11136097.75023
 91  4 30 22 22  0.0020000  0  5G13G 2G15G19G 6
  23830840.4324   -3956473.23645  -2824287.03161
  21339784.760      567833.383 8    445484.62024
  24751012.244     -185534.913 5    -87369.92821
  23746314.533    15757215.446 5  12278335.98921
  21722318.8464  -14363887.10847 -11148062.50963
 91  4 30 22 22 15.0020000  0  5G13G 2G15G19G 6
  23820813.2134   -4009168.93345  -2865348.38361
  21341399.010      576320.667 8    452098.09924
  24748430.596     -199082.719 5    -97926.60221
  23754443.588    15799945.756 5  12311632.25621
  21719407.0024  -14379194.29547 -11159990.15963
 91  4 30 22 22 30.0020000  0  5G13G 2G15G19G 6
  23810794.393    -4061821.589 5  -2906376.17921
  21343023.752      584855.452 8    458748.59724
  24745868.9164    -212533.56045   -108407.71761
  23762587.1434   15842725.46145  12344967.01561
  21716501.6354  -14394460.53347 -11171885.89563
 91  4 30 22 22 45.0020000  0  5G13G 2G15G19G 6
  23800781.9004   -4114427.78545  -2947367.78761
  21344657.127      593440.749 8    465438.45724
  24743327.2364    -225883.82245   -118810.45161
  23770735.3774   15885557.36845  12378342.43861
  21713605.0414  -14409682.40847 -11183747.06563
 91  4 30 22 23  0.0020000  0  5G13G 2G15G19G 6
  23790781.275    -4166983.167 5  -2988319.81821
  21346301.955      602080.454 8    472170.70724
  24740803.7754    -239129.21745   -129131.44361
  23778900.3544   15928445.54445  12411761.70661
  21710717.2994  -14424855.74247 -11195570.41163
 91  4 30 22 23 15.0020000  0  5G13G 2G15G19G 6
  23780788.5104   -4219490.93945  -3029234.75261
  21347954.260      610770.798 8    478942.42024
  24738304.822     -252272.995 5   -139373.25921
  23787068.1434   15971386.20745  12445221.88061
  21707838.7364  -14439983.96747 -11207358.60763
 91  4 30 22 23 30.0020000  0  5G13G 2G15G19G 6
  23770806.666    -4271947.195 5  -3070109.54021
  21349618.596      619515.461 8    485756.45624
  24735824.580     -265311.434 5   -149532.99521
  23795250.8144   16014383.08645  12478725.84961
  21704970.4554  -14455063.32447 -11219108.72363
 91  4 30 22 23 45.0020000  0  5G13G 2G15G19G 6
  23760832.5104   -4324353.31345  -3110945.24961
  21351293.197      628312.654 8    492611.42623
  24733358.5724    -278245.66745   -159611.53461
  23803442.5724   16057434.39345  12512272.23661
  21702110.1114  -14470095.17747 -11230821.82563
 91  4 30 22 24  0.0020000  0  5G13G 2G15G19G 6
  23750871.510    -4376710.105 5  -3151742.54821
  21352976.557      637161.006 8    499506.26324
  24730923.580     -291077.097 5   -169609.96821
  23811646.1504   16100538.66745  12545859.88661
  21699256.9324  -14485080.78447 -11242498.88763
 91  4 30 22 24 15.0020000  0  5G13G 2G15G19G 6
  23740915.877    -4429015.859 5  -3192500.04721
  21354670.643      646061.805 8    506441.96324
  24728495.064     -303803.839 5   -179526.84421
  23819860.6354   16143697.36745  12579489.94661
  21696413.7994  -14500018.46047 -11254138.59863
 91  4 30 22 24 30.0020000  0  5G13G 2G15G19G 6
  23730973.3304   -4481267.92645  -3233215.74961
  21356375.604      655017.204 8    513420.20824
  24726096.838     -316423.511 5   -189360.28121
  23828082.111    16186912.719 5  12613164.17521
  21693581.3224  -14514905.73647 -11265739.04463
 91  4 30 22 24 45.0020000  0  5G13G 2G15G19G 6
  23721042.705    -4533464.344 5  -3273888.06521
  21358088.354      664028.637 8    520442.11723
  24723717.807     -328934.292 5   -199108.87321
  23836314.213    16230186.056 5  12646883.57521
  21690758.4864  -14529740.97147 -11277298.93063
 91  4 30 22 25  0.0020000  0  5G13G 2G15G19G 6
  23711118.8074   -4585605.63945  -3314517.44061
  21359814.244      673095.072 8    527506.88424
  24721358.2364    -341337.06945   -208773.29661
  23844563.697    16273516.219 5  12680647.25821
  21687944.1974  -14544524.78147 -11288818.74963
 91  4 30 22 25 15.0020000  0  5G13G 2G15G19G 6
  23701208.033    -4637693.046 5  -3355104.80921
  21361550.939      682214.815 8    534613.19424
  24719015.9714    -353633.10945   -218354.54761
  23852820.1194   16316901.78145  12714454.09261
  21685141.4714  -14559258.69147 -11300299.68763
 91  4 30 22 25 30.0020000  0  5G13G 2G15G19G 6
  23691308.400    -4689722.034 5  -3395646.68521
  21363297.080      691392.012 8    541764.26624
  24716702.666     -365817.705 5   -227848.95121
  23861086.6744   16360346.87945  12748307.31561
  21682349.0024  -14573938.10847 -11311738.16463
 91  4 30 22 25 45.0020000  0  5G13G 2G15G19G 6
  23681413.7364   -4741697.65445  -3436146.95461
  21365053.080      700620.997 8    548955.69724
  24714396.877     -377895.882 5   -237260.43421
  23869365.0184   16403845.87445  12782202.54461
  21679563.9244  -14588568.36247 -11323138.32963
 91  4 30 22 26  0.0020000  0  5G13G 2G15G19G 6
  23671532.744    -4793618.786 5  -3476604.77521
  21366819.541      709902.459 8    556188.01924
  24712119.3304    -389866.72945   -246588.31461
  23877654.432    16447399.489 5  12816140.34321
  21676790.3304  -14603148.50847 -11334499.45763
 91  4 30 22 26 15.0020000  0  5G13G 2G15G19G 6
  23661665.2684   -4845485.36845  -3517020.08561
  21368595.869      719236.128 8    563461.01824
  24709866.8694    -401730.45145   -255832.71761
  23885950.143    16491007.189 5  12850120.28721
  21674024.4164  -14617678.52247 -11345821.51563
 91  4 30 22 26 30.0020000  0  5G13G 2G15G19G 6
  23651803.8224   -4897299.03745  -3557394.16261
  21370380.8074     728619.71748    570772.91964
  24707627.869     -413488.882 5   -264995.04521
  23894257.197    16534667.143 5  12884140.94921
  21671269.5644  -14632160.43547 -11357106.09463
 91  4 30 22 26 45.0020000  0  5G13G 2G15G19G 6
  23641955.5724   -4949056.10745  -3597724.14161
  21372176.479      738056.260 8    578126.07924
  24705410.6504    -425138.55045   -274072.60361
  23902576.088    16578382.235 5  12918204.58521
  21668522.3774  -14646590.97747 -11368350.64463
 91  4 30 22 27  0.0020000  0  5G13G 2G15G19G 6
  23632119.0334   -5000753.63545  -3638007.71661
  21373982.736      747548.756 8    585522.84024
  24703212.479     -436676.384 5   -283063.07121
  23910906.197    16622155.317 5  12952313.39921
  21665787.1974  -14660966.83147 -11379552.58063
 91  4 30 22 27 15.0020000  0  5G13G 2G15G19G 6
  23622292.471    -5052389.211 5  -3678243.03321
  21375800.971      757098.858 8    592964.49024
  24701039.932     -448100.224 5   -291964.68521
  23919249.197    16665988.029 5  12986468.67821
  21663062.1504  -14675285.78547 -11390710.17963
 91  4 30 22 27 30.0020000  0  5G13G 2G15G19G 6
  23612476.6434   -5103968.19145  -3718434.23061
  21377627.385      766700.942 8    600446.64424
  24698885.4554    -459415.34145   -300781.59261
  23927597.635    16709874.860 5  13020666.12721
  21660347.158   -14689553.421 7 -11401827.79323
 91  4 30 22 27 45.0020000  0  5G13G 2G15G19G 6
  23602672.1974   -5155492.53145  -3758582.84361
  21379463.814      776352.254 8    607967.15924
  24696755.525     -470624.195 5   -309515.70021
  23935958.8074   16753813.10945  13054903.64961
  21657640.908   -14703772.127 7 -11412907.27623
 91  4 30 22 28  0.0020000  0  5G13G 2G15G19G 6
  23592877.4554   -5206955.92645  -3798684.00161
  21381310.713      786058.834 8    615530.73924
  24694644.916     -481720.474 5   -318162.08621
  23944335.244    16797808.718 5  13089185.85921
  21654946.182   -14717935.764 7 -11423943.85123
 91  4 30 22 28 15.0020000  0  5G13G 2G15G19G 6
  23583097.299    -5258359.515 5  -3838738.53021
  21383168.658      795819.047 8    623136.11324
  24692553.455     -492705.219 5   -326721.55521
  23952714.7134   16841860.15145  13123511.55861
  21652260.330   -14732045.525 7 -11434938.44723
 91  4 30 22 28 30.0020000  0  5G13G 2G15G19G 6
  23573325.924    -5309703.006 5  -3878746.24821
  21385035.025      805632.717 8    630783.14624
  24690481.057     -503578.529 5   -335194.19121
  23961110.0104   16885967.26545  13157880.64261
  21649587.1504  -14746101.10247 -11445890.81563
 91  4 30 22 28 45.0020000  0  5G13G 2G15G19G 6
  23563567.291    -5360987.275 5  -3918707.79721
  21386913.494      815498.714 8    638470.94824
  24688430.807     -514340.942 5   -343580.41321
  23969513.463    16930128.985 5  13192292.29221
  21646921.760   -14760103.354 7 -11456801.63623
 91  4 30 22 29  0.0020000  0  5G13G 2G15G19G 6
  23553819.8464   -5412204.33645  -3958616.99161
  21388801.932      825424.764 8    646205.54624
  24686407.2994    -524984.58645   -351874.08561
  23977928.2914   16974352.94645  13226752.44161
  21644269.799   -14774044.532 7 -11467664.86423
 91  4 30 22 29 15.0020000  0  5G13G 2G15G19G 6
  23544085.479    -5463361.475 5  -3998479.49321
  21390702.150      835402.797 8    653980.65124
  24684404.189     -535517.140 5   -360081.19321
  23986355.057    17018631.004 5  13261254.73621
  21641626.658   -14787932.443 7 -11478486.58923
 91  4 30 22 29 30.0020000  0  5G13G 2G15G19G 6
  23534363.7834   -5514456.86545  -4038293.87561
  21392609.955      845434.118 8    661797.28024
  24682423.9084    -545936.94445   -368200.43861
  23994792.2054   17062964.71745  13295800.41561
  21638993.377   -14801765.292 7 -11489265.41223
 91  4 30 22 29 45.0020000  0  5G13G 2G15G19G 6
  23524649.4164   -5565490.41845  -4078060.06561
  21394528.361      855518.467 8    669655.22324
  24680462.041     -556244.142 5   -376231.94621
  24003236.4394   17107353.57745  13330389.05661
  21636371.549   -14815543.286 7 -11500001.48723
 91  4 30 22 30  0.0020000  0  5G13G 2G15G19G 6
  23514953.4004   -5616459.60146  -4117776.10161
  21396459.1824     865657.78848    677556.00464
  24678518.939     -566436.399 5   -384173.91421
  24011696.8614   17151799.61945  13365022.24661
  21633761.557   -14829263.746 7 -11510692.73023
 91  4 30 22 30 15.0020000  0  5G13G 2G15G19G 6
  23505262.6434   -5667366.15945  -4157443.34161
  21398398.049      875849.866 8    685497.89424
  24676603.8224    -576515.55945   -392027.75161
  24020164.5574   17196300.69045  13399698.34561
  21631160.502   -14842928.847 7 -11521340.83823
 91  4 30 22 30 30.0020000  0  5G13G 2G15G19G 6
  23495586.549    -5718211.466 5  -4197062.86121
  21400347.1974     886092.93748    693479.51764
  24674708.791     -586482.930 5   -399794.46021
  24028645.4944   17240854.96245  13434415.88861
  21628571.244   -14856540.147 7 -11531947.01823
 91  4 30 22 30 45.0020000  0  5G13G 2G15G19G 6
  23485924.596    -5768991.635 5  -4236631.59921
  21402306.385      896390.424 8    701503.54624
  24672828.7684    -596334.76445   -407471.15461
  24037131.5024   17285465.84245  13469177.54461
  21625991.2524  -14870093.83247 -11542508.30663
 91  4 30 22 31  0.0020000  0  5G13G 2G15G19G 6
  23476272.041    -5819708.522 6  -4276151.04721
  21404276.260      906740.101 8    709568.24124
  24670980.939     -606073.128 5   -415059.40421
  24045629.768    17330131.168 5  13503981.61121
  21623422.236   -14883591.882 7 -11553026.24323
 91  4 30 22 31 15.0020000  0  5G13G 2G15G19G 6
  23466635.752    -5870357.487 6  -4315617.56321
  21406256.736      917145.965 8    717676.71724
  24669145.2994    -615693.50345   -422555.74161
  24054140.658    17374855.008 5  13538831.28221
  21620864.291   -14897029.753 7 -11563497.28723
 91  4 30 22 31 30.0020000  0  5G13G 2G15G19G 6
  23457011.8544   -5920936.67846  -4355029.70961
  21408247.650      927609.485 8    725830.12124
  24667340.2834    -625194.45445   -429959.01261
  24062663.775    17419638.687 5  13573727.56421
  21618320.830   -14910405.696 7 -11573920.07223
 91  4 30 22 31 45.0020000  0  5G13G 2G15G19G 6
  23447399.213    -5971450.351 6  -4394390.79121
  21410249.377      938126.083 8    734024.88624
  24665550.8464    -634580.03045   -437272.38061
  24071197.674    17464477.839 5  13608667.08321
  21615786.275   -14923724.199 7 -11584298.10123
 91  4 30 22 32  0.0020000  0  5G13G 2G15G19G 6
  23437799.541    -6021895.404 6  -4433698.40321
  21412261.049      948698.311 8    742263.00124
  24663791.619     -643847.303 5   -444493.58021
  24079741.3144   17509374.86145  13643651.68761
  21613262.6434  -14936982.30347 -11594629.06663
 91  4 30 22 32 15.0020000  0  5G13G 2G15G19G 6
  23428211.861    -6072272.496 6  -4472953.08321
  21414282.291      959325.104 8    750543.63124
  24662050.674     -652996.907 5   -451623.05221
  24088296.127    17554328.841 5  13678680.67421
  21610750.361   -14950180.925 7 -11604913.68223
 91  4 30 22 32 30.0020000  0  5G13G 2G15G19G 6
  23418636.4944   -6122581.37146  -4512154.58961
  21416315.791      970006.105 8    758866.50124
  24660329.236     -662029.078 5   -458661.04221
  24096864.0184   17599339.12445  13713753.52961
  21608251.104   -14963319.900 7 -11615151.82324
 91  4 30 22 32 45.0020000  0  5G13G 2G15G19G 6
  23409077.4244   -6172820.79146  -4551301.98061
  21418358.033      980742.243 8    767232.33524
  24658632.0494    -670942.47945   -465606.47861
  24105435.666    17644406.834 5  13748871.14321
  21605761.377   -14976398.058 7 -11625342.57024
 91  4 30 22 33  0.0020000  0  5G13G 2G15G19G 6
  23399531.7994   -6222994.06946  -4590397.82761
  21420411.244      991529.797 8    775638.23324
  24656960.666     -679740.504 5   -472462.02521
  24114023.518    17689528.243 5  13784030.61521
  21603283.252   -14989418.742 7 -11635488.53323
 91  4 30 22 33 15.0020000  0  5G13G 2G15G19G 6
  23389995.3774   -6273099.64346  -4629440.91961
  21422474.135     1002369.763 8    784084.97224
  24655307.7914    -688422.04345   -479226.79261
  24122617.6194   17734704.28945  13819232.63261
  21600817.791   -15002380.958 7 -11645588.93624
 91  4 30 22 33 30.0020000  0  5G13G 2G15G19G 6
  23380472.721    -6323142.333 6  -4668435.02621
  21424545.807     1013256.751 8    792568.35224
  24653674.010     -696991.905 5   -485904.52621
  24131226.0804   17779929.81945  13854473.22061
  21598361.1744  -15015289.56047 -11655647.55864
 91  4 30 22 33 45.0020000  0  5G13G 2G15G19G 6
  23370959.8774   -6373121.41246  -4707379.55861
  21426626.760     1024191.310 8    801088.79724
  24652066.033     -705449.432 5   -492494.73621
  24139841.9084   17825205.13145  13889752.59261
  21595914.775   -15028143.772 7 -11665663.80124
 91  4 30 22 34  0.0020000  0  5G13G 2G15G19G 6
  23361465.166    -6423033.566 6  -4746271.93121
  21428716.916     1035176.248 8    809648.50124
  24650477.8694    -713791.46845   -498994.95861
  24148467.0024   17870532.96945  13925072.89761
  21593479.549   -15040940.482 7 -11675635.23723
 91  4 30 22 34 15.0020000  0  5G13G 2G15G19G 6
  23351978.4324   -6472879.16846  -4785112.44261
  21430816.205     1046210.670 8    818246.76224
  24648912.9554    -722018.58345   -505405.62361
  24157103.0804   17915912.48845  13960433.47561
  21591055.361   -15053680.322 7 -11685562.36324
 91  4 30 22 34 30.0020000  0  5G13G 2G15G19G 6
  23342504.7754   -6522656.52146  -4823899.78661
  21432925.0964    1057295.78248    826884.52264
  24647372.0964    -730129.37245   -511725.66961
  24165751.8694   17961344.95545  13995835.29461
  21588642.3224  -15066361.68947 -11695443.91964
 91  4 30 22 34 45.0020000  0  5G13G 2G15G19G 6
  23333043.6664   -6572369.71046  -4862637.12861
  21435043.908     1068427.084 8    835558.27424
  24645847.5254    -738127.85145   -517958.17461
  24174402.5024   18006825.92945  14031274.93061
  21586240.494   -15078988.816 7 -11705283.21124
 91  4 30 22 35  0.0020000  0  5G13G 2G15G19G 6
  23323596.025    -6622015.756 6  -4901322.15521
  21437171.174     1079607.116 8    844269.99724
  24644345.6824    -746011.39245   -524101.11661
  24183069.1894   18052357.76945  14066754.19361
  21583847.510   -15091558.888 7 -11715078.04824
 91  4 30 22 35 15.0020000  0  5G13G 2G15G19G 6
  23314163.7444   -6671593.92646  -4939954.30061
  21439307.791     1090836.077 8    853019.85324
  24642870.088     -753779.337 5   -530153.97521
  24191740.994    18097940.678 5  14102273.25721
  21581466.236   -15104071.288 7 -11724827.95224
 91  4 30 22 35 30.0020000  0  5G13G 2G15G19G 6
  23304741.963    -6721105.939 6  -4978534.87621
  21441454.049     1102111.952 8    861806.25924
  24641409.330     -761433.436 5   -536118.13821
  24200428.361    18143572.742 5  14137830.62321
  21579096.385   -15116527.825 7 -11734534.32424
 91  4 30 22 35 45.0020000  0  5G13G 2G15G19G 6
  23295330.510    -6770549.022 6  -5017061.75021
  21443609.244     1113437.079 8    870631.04224
  24639977.9474    -768970.98045   -541991.48161
  24209118.8544   18189256.16145  14173427.99961
  21576735.658   -15128925.998 7 -11744195.21924
 91  4 30 22 36  0.0020000  0  5G13G 2G15G19G 6
  23285934.2994   -6819919.57246  -5055532.10561
  21445774.5724    1124814.87648    879496.87164
  24638569.5964    -776388.29245   -547771.13961
  24217824.3074   18234994.43745  14209068.12561
  21574388.963   -15141261.817 7 -11753807.52024
 91  4 30 22 36 15.0020000  0  5G13G 2G15G19G 6
  23276554.174    -6869221.980 6  -5093949.36221
  21447948.5024    1136240.10748    888399.65564
  24637180.1894    -783690.03845   -553460.73461
  24226536.4324   18280782.30045  14244746.88561
  21572052.283   -15153540.445 7 -11763375.26524
 91  4 30 22 36 30.0020000  0  5G13G 2G15G19G 6
  23267185.533    -6918457.361 6  -5132314.39821
  21450131.791     1147711.130 8    897338.12224
  24635809.900     -790877.852 5   -559061.55221
  24235260.1274   18326618.20145  14280463.07661
  21569726.768   -15165763.046 7 -11772899.34624
 91  4 30 22 36 45.0020000  0  5G13G 2G15G19G 6
  23257827.2294   -6967621.40046  -5170623.84961
  21452323.018     1159232.071 8    906315.49324
  24634461.5494    -797947.50445   -564570.26661
  24243989.9084   18372505.98145  14316219.69761
  21567411.393   -15177925.478 7 -11782376.54624
 91  4 30 22 37  0.0020000  0  5G13G 2G15G19G 6
  23248487.510    -7016713.200 6  -5208877.00621
  21454525.7364    1170803.40248    915332.12464
  24633142.4634    -804898.04845   -569986.21561
  24252734.4324   18418446.41445  14352017.33861
  21565108.775   -15190026.694 7 -11791806.04524
 91  4 30 22 37 15.0020000  0  5G13G 2G15G19G 6
  23239160.143    -7065730.730 6  -5247072.29121
  21456736.3614    1182426.67848    924389.23264
  24631840.080     -811727.711 5   -575307.95221
  24261486.2524   18464440.97445  14387857.16161
  21562819.775   -15202064.801 7 -11801186.36824
 91  4 30 22 37 30.0020000  0  5G13G 2G15G19G 6
  23229845.846    -7114675.540 6  -5285210.92021
  21458958.2054    1194099.95548    933485.30864
  24630563.8224    -818438.18845   -580536.82661
  24270249.8544   18510487.52045  14423737.50261
  21560540.002   -15214041.722 7 -11810519.01424
 91  4 30 22 37 45.0020000  0  5G13G 2G15G19G 6
  23220546.0884   -7163543.70046  -5323289.82461
  21461190.3614    1205826.52948    942622.89564
  24629312.736     -825025.674 5   -585669.86521
  24279019.549    18556589.297 5  14459660.85921
  21558272.947   -15225953.741 7 -11819801.08924
 91  4 30 22 38  0.0020000  0  5G13G 2G15G19G 6
  23211260.0334   -7212338.98346  -5361311.94961
  21463431.6194    1217602.30048    951798.83464
  24628080.994     -831494.007 5   -590710.03821
  24287801.9164   18602742.12545  14495624.01061
  21556017.314   -15237804.522 7 -11829035.44224
 91  4 30 22 38 15.0020000  0  5G13G 2G15G19G 6
  23201989.1114   -7261060.00246  -5399276.18661
  21465681.9474    1229428.27448    961013.88764
  24626871.275     -837842.051 5   -595656.49621
  24296597.580    18648947.083 5  14531627.77421
  21553774.400   -15249592.969 7 -11838221.22524
 91  4 30 22 38 30.0020000  0  5G13G 2G15G19G 6
  23192732.9244   -7309707.91146  -5437183.47561
  21467941.299     1241302.750 8    970266.73724
  24625686.5104    -844071.23145   -600510.33661
  24305400.846    18695202.510 5  14567670.87321
  21551542.291   -15261320.423 7 -11847359.47924
 91  4 30 22 38 45.0020000  0  5G13G 2G15G19G 6
  23183489.314    -7358281.259 6  -5475032.65621
  21470210.064     1253226.749 8    979558.17824
  24624527.729     -850180.113 5   -605270.42821
  24314208.088    18741509.534 5  14603754.15621
  21549323.314   -15272985.372 7 -11856449.03224
 91  4 30 22 39  0.0020000  0  5G13G 2G15G19G 6
  23174258.900    -7406781.832 6  -5512825.13021
  21472488.268     1265197.781 8    988886.26624
  24623387.0964    -856170.98345   -609938.58161
  24323031.783    18787865.748 5  14639875.77821
  21547114.689   -15284590.081 7 -11865491.64023
 91  4 30 22 39 15.0020000  0  5G13G 2G15G19G 6
  23165043.947    -7455207.166 6  -5550558.98321
  21474775.6434    1277218.12948    998252.78164
  24622269.0724    -862041.54645   -614512.97861
  24331862.4084   18834273.24545  14676037.36461
  21544918.135   -15296132.106 7 -11874485.40324
 91  4 30 22 39 30.0020000  0  5G13G 2G15G19G 6
  23155842.5574   -7503558.54246  -5588235.20761
  21477072.002     1289286.302 8   1007656.56424
  24621171.9164    -867792.88445   -618994.47761
  24340699.9794   18880730.27545  14712237.54461
  21542734.197   -15307612.696 7 -11883431.29524
 91  4 30 22 39 45.0020000  0  5G13G 2G15G19G 6
  23146655.049    -7551834.626 6  -5625852.75421
  21479377.533     1301403.138 8   1017098.26624
  24620102.9714    -873423.83345   -623382.15261
  24349553.1044   18927237.80045  14748477.08461
  21540561.744   -15319030.699 7 -11892328.41724
 91  4 30 22 40  0.0020000  0  5G13G 2G15G19G 6
  23137483.869    -7600035.541 6  -5663411.74921
  21481691.9864    1313567.89748   1026577.30664
  24619051.4794    -878934.61845   -627676.21361
  24358410.939    18973795.221 5  14784755.47821
  21538400.025   -15330386.175 7 -11901176.81524
 91  4 30 22 40 15.0020000  0  5G13G 2G15G19G 6
  23128326.3544   -7648158.62046  -5700910.08861
  21484017.705     1325782.826 8   1036095.44624
  24618028.6504    -884322.86645   -631874.78261
  24367282.447    19020404.695 5  14821074.45021
  21536251.658   -15341676.752 7 -11909974.64424
 91  4 30 22 40 30.0020000  0  5G13G 2G15G19G 6
  23119182.416    -7696206.816 6  -5738350.06521
  21486350.6504    1338044.62648   1045650.10564
  24617024.3464    -889591.67845   -635980.29561
  24376162.3544   19067062.89645  14857431.40061
  21534114.604   -15352905.596 7 -11918724.36824
 91  4 30 22 40 45.0020000  0  5G13G 2G15G19G 6
  23110054.5964   -7744175.64246  -5775728.20261
  21488693.4394    1350357.29048   1055244.39864
  24616046.7524    -894736.62445   -639989.26861
  24385051.033    19113773.757 5  14893829.36621
  21531990.408   -15364068.437 7 -11927422.66123
 91  4 30 22 41  0.0020000  0  5G13G 2G15G19G 6
  23100939.018    -7792064.408 6  -5813043.94721
  21491046.221     1362721.034 8   1064878.49524
  24615089.1354    -899757.28045   -643901.42761
  24393945.580    19160537.443 5  14930268.50021
  21529878.580   -15375164.599 7 -11936068.99923
 91  4 30 22 41 15.0020000  0  5G13G 2G15G19G 6
  23091841.314    -7839873.490 6  -5850297.60721
  21493408.8544    1375135.13948   1074551.83364
  24614156.3934    -904654.24545   -647717.18261
  24402859.361    19207353.355 5  14966748.32721
  21527780.1504  -15386194.45747 -11944663.66463
 91  4 30 22 41 30.0020000  0  5G13G 2G15G19G 6
  23082761.650    -7887603.449 6  -5887489.62021
  21495780.4394    1387598.34548   1084263.43164
  24613247.705     -909428.422 5   -651437.26721
  24411774.713    19254220.057 5  15003267.73121
  21525693.518   -15397159.080 7 -11953207.50123
 91  4 30 22 41 45.0020000  0  5G13G 2G15G19G 6
  23073693.377    -7935253.344 6  -5924619.25021
  21498160.533     1400111.508 8   1094013.95924
  24612364.807     -914078.769 5   -655060.86221
  24420700.7754   19301138.32045  15039827.31661
  21523620.330   -15408057.275 7 -11961699.57523
 91  4 30 22 42  0.0020000  0  5G13G 2G15G19G 6
  23064640.135    -7982823.913 6  -5961687.05221
  21500551.244     1412673.494 8   1103802.53224
  24611504.760     -918606.117 5   -658588.62021
  24429641.8384   19348107.03245  15076426.20361
  21521559.385   -15418889.854 7 -11970140.52624
 91  4 30 22 42 15.0020000  0  5G13G 2G15G19G 6
  23055601.838    -8030318.667 6  -5998695.79021
  21502950.424     1425280.161 8   1113625.92024
  24610661.674     -923014.328 5   -662023.53021
  24438588.666    19395122.098 5  15113061.21921
  21519508.400   -15429660.839 7 -11978533.47223
 91  4 30 22 42 30.0020000  0  5G13G 2G15G19G 6
  23046578.5414   -8077732.91546  -6035641.79261
  21505359.4324    1437935.81848   1123487.48264
  24609851.221     -927299.048 5   -665362.22321
  24447547.830    19442187.741 5  15149735.63521
  21517471.104   -15440365.438 7 -11986874.69623
 91  4 30 22 42 45.0020000  0  5G13G 2G15G19G 6
  23037573.494    -8125064.008 6  -6072522.99421
  21507776.4714    1450642.74148   1133388.99064
  24609055.979     -931457.674 5   -668602.65721
  24456510.744    19489306.078 5  15186451.11221
  21515448.3304  -15451001.28947 -11995162.34463
 91  4 30 22 43  0.0020000  0  5G13G 2G15G19G 6
  23028578.838    -8172311.443 6  -6109339.00821
  21510204.447     1463401.007 8   1143330.50824
  24608289.6744    -935489.86546   -671744.58261
  24465489.502    19536477.216 4  15223207.73321
  21513437.314   -15461567.929 7 -12003396.06923
 91  4 30 22 43 15.0020000  0  5G13G 2G15G19G 6
  23019605.432    -8219479.016 6  -6146092.80221
  21512641.658     1476206.294 8   1153308.66524
  24607544.385     -939399.580 5   -674791.06321
  24474470.650    19583696.799 5  15260002.10921
  21511438.775   -15472069.460 7 -12011579.05323
 91  4 30 22 43 30.0020000  0  5G13G 2G15G19G 6
  23010645.8464   -8266566.40846  -6182784.11961
  21515087.111     1489058.223 8   1163323.16824
  24606827.2834    -943186.72546   -677742.01961
  24483470.307    19630964.748 5  15296834.15921
  21509453.369   -15482505.640 7 -12019711.11823
 91  4 30 22 43 45.0020000  0  5G13G 2G15G19G 6
  23001698.1434   -8313572.60646  -6219412.16461
  21517541.7754    1501957.69148   1173374.70964
  24606127.0104    -946850.32445   -680596.70961
  24492473.5804   19678281.74145  15333704.42461
  21507480.229   -15492875.220 7 -12027791.29123
 91  4 30 22 44  0.0020000  0  5G13G 2G15G19G 6
  22992770.713    -8360495.122 6  -6255975.00621
  21520006.471     1514906.861 8   1183464.98624
  24605457.908     -950388.118 6   -683353.38421
  24501489.033    19725649.716 5  15370614.42421
  21505518.0964  -15503176.09047 -12035817.90964
 91  4 30 22 44 15.0020000  0  5G13G 2G15G19G 6
  22983855.5494   -8407335.13746  -6292473.57061
  21522478.9394    1527904.17348   1193592.77364
  24604801.5494    -953801.43345   -686013.05061
  24510511.064    19773067.096 5  15407562.92121
  21503570.932   -15513409.501 7 -12043791.96823
 91  4 30 22 44 30.0020000  0  5G13G 2G15G19G 6
  22974959.205    -8454091.710 6  -6328907.11021
  21524962.971     1540949.964 8   1203758.33524
  24604176.0254    -957089.56045   -688575.18461
  24519541.580    19820534.216 5  15444550.16521
  21501636.650   -15523574.517 7 -12051712.73623
 91  4 30 22 44 45.0020000  0  5G13G 2G15G19G 6
  22966077.205    -8500767.053 6  -6365277.36221
  21527453.721     1554041.770 8   1213959.75324
  24603578.9714    -960254.99445   -691041.69761
  24528584.9944   19868048.62345  15481574.26561
  21499716.2754  -15533673.60747 -12059582.13263
 91  4 30 22 45  0.0020000  0  5G13G 2G15G19G 6
  22957211.3694   -8547356.83846  -6401580.94061
  21529954.3144    1567183.68648   1224200.21764
  24602993.8224    -963293.18545   -693409.06761
  24537639.088    19915614.366 4  15518638.36621
  21497806.674   -15543702.380 7 -12067396.73523
 91  4 30 22 45 15.0020000  0  5G13G 2G15G19G 6
  22948360.8854   -8593863.31246  -6437819.60061
  21532463.846     1580372.666 8   1234477.35524
  24602444.424     -966206.691 5   -695679.27121
  24546701.0254   19963228.45445  15555740.13561
  21495911.2524  -15553663.42347 -12075158.55963
 91  4 30 22 45 30.0020000  0  5G13G 2G15G19G 6
  22939527.768    -8640286.151 6  -6473993.10321
  21534982.885     1593608.714 8   1244791.17224
  24601911.7994    -968995.65945   -697852.44061
  24555767.580    20010890.878 5  15592879.56321
  21494028.5104  -15563556.41747 -12082867.35964
 91  4 30 22 45 45.0020000  0  5G13G 2G15G19G 6
  22930710.3774   -8686624.15346  -6510100.48661
  21537510.939     1606892.273 8   1255142.01324
  24601406.166     -971659.130 5   -699927.82021
  24564846.1664   20058602.10245  15630057.02061
  21492159.494   -15573380.494 7 -12090522.45923
 91  4 30 22 46  0.0020000  0  5G13G 2G15G19G 6
  22921909.658    -8732874.591 6  -6546139.64121
  21540047.830     1620225.800 8   1265531.78624
  24600926.025     -974194.419 5   -701903.32221
  24573935.408    20106364.505 5  15667274.34621
  21490302.783   -15583132.913 7 -12098121.72423
 91  4 30 22 46 15.0020000  0  5G13G 2G15G19G 6
  22913121.346    -8779044.875 6  -6582116.34021
  21542593.072     1633601.854 8   1275954.70024
  24600466.744     -976608.904 5   -703784.68521
  24583031.8144   20154170.45145  15704525.61861
  21488459.3144  -15592821.02647 -12105670.87663
 91  4 30 22 46 30.0020000  0  5G13G 2G15G19G 6
  22904352.4244   -8825128.03746  -6618025.15161
  21545148.236     1647027.129 8   1286415.96524
  24600029.0254    -978895.68645   -705566.53961
  24592136.4944   20202026.40245  15741815.84861
  21486629.400   -15602437.954 7 -12113164.56323
 91  4 30 22 46 45.0020000  0  5G13G 2G15G19G 6
  22895601.9244   -8871124.59646  -6653866.47161
  21547710.916     1660500.261 8   1296914.52824
  24599614.0574    -981055.66645   -707249.58761
  24601256.1434   20249931.19745  15779144.14461
  21484813.010   -15611984.428 7 -12120603.35123
 91  4 30 22 47  0.0020000  0  5G13G 2G15G19G 6
  22886864.7604   -8917031.87746  -6689638.23061
  21550284.400     1674023.733 8   1307452.31324
  24599230.658     -983086.311 5   -708831.86621
  24610388.9004   20297887.10245  15816512.25861
  21483010.986   -15621457.950 7 -12127985.28623
 91  4 30 22 47 15.0020000  0  5G13G 2G15G19G 6
  22878146.5644   -8962852.20546  -6725342.24061
  21552866.893     1687594.731 8   1318027.13124
  24598869.7914    -984990.27445   -710315.41561
  24619518.1584   20345891.13845  15853917.87461
  21481220.627   -15630861.026 7 -12135312.33623
 91  4 30 22 47 30.0020000  0  5G13G 2G15G19G 6
  22869443.2754   -9008584.00046  -6760977.25961
  21555459.002     1701214.292 8   1328639.78924
  24598533.400     -986765.934 5   -711698.99821
  24628662.213    20393944.724 5  15891362.11621
  21479445.861   -15640192.143 7 -12142583.30923
 91  4 30 22 47 45.0020000  0  5G13G 2G15G19G 6
  22860756.6744   -9054223.75746  -6796540.55861
  21558060.455     1714885.473 8   1339292.66724
  24598215.635     -988410.505 5   -712980.43521
  24637815.9634   20442050.75445  15928847.20661
  21477684.635   -15649448.041 7 -12149795.67523
 91  4 30 22 48  0.0020000  0  5G13G 2G15G19G 6
  22852088.9554   -9099776.62946  -6832036.15661
  21560670.213     1728603.105 8   1349981.74224
  24597931.5644    -989928.92345   -714163.56661
  24646982.635    20490203.872 5  15966368.99421
  21475935.307   -15658633.746 7 -12156953.34423
 91  4 30 22 48 15.0020000  0  5G13G 2G15G19G 6
  22843437.4474   -9145239.43746  -6867461.57761
  21563291.674     1742369.752 8   1360709.01524
  24597663.588     -991318.440 5   -715246.25921
  24656154.330    20538406.574 5  16003929.42621
  21474201.494   -15667746.363 7 -12164054.06223
 91  4 30 22 48 30.0020000  0  5G13G 2G15G19G 6
  22834803.408    -9190610.268 6  -6902815.31621
  21565920.338     1756186.759 8   1371475.52524
  24597426.705     -992577.173 5   -716227.04721
  24665334.5574   20586660.32445  16041529.62761
  21472482.221   -15676784.068 7 -12171096.40823
 91  4 30 22 48 45.0020000  0  5G13G 2G15G19G 6
  22826185.9474   -9235893.73546  -6938100.98861
  21568558.127     1770049.007 8   1382277.28824
  24597215.1194    -993709.93546   -717109.66761
  24674525.291    20634959.985 5  16079165.61221
  21470775.791   -15685751.598 7 -12178084.06723
 91  4 30 22 49  0.0020000  0  5G13G 2G15G19G 6
  22817586.197    -9281089.606 6  -6973318.39421
  21571204.104     1783956.704 8   1393114.46724
  24597018.627     -994716.233 5   -717893.75721
  24683728.494    20683305.664 5  16116837.44821
  21469082.377   -15694648.603 7 -12185016.77623
 91  4 30 22 49 15.0020000  0  5G13G 2G15G19G 6
  22809002.330    -9326196.210 6  -7008466.25621
  21573859.4084    1797911.02948   1403987.97764
  24596851.5024    -995595.04046   -718578.49161
  24692933.604    20731698.418 5  16154545.95921
  21467402.979   -15703473.531 7 -12191893.32123
 91  4 30 22 49 30.0020000  0  5G13G 2G15G19G 6
  22800435.385    -9371212.223 6  -7043543.53021
  21576524.4244    1811912.99648   1414898.60964
  24596709.8224    -996345.22145   -719162.99261
  24702151.002    20780139.059 5  16192291.79921
  21465737.768   -15712225.303 7 -12198712.86623
 91  4 30 22 49 45.0020000  0  5G13G 2G15G19G 6
  22791886.2834   -9416137.23646  -7078549.88061
  21579197.463     1825962.298 8   1425846.12824
  24596592.1894    -996966.83545   -719647.32761
  24711379.3144   20828627.23745  16230074.67961
  21464085.682   -15720903.918 7 -12205475.40123
 91  4 30 22 50  0.0020000  0  5G13G 2G15G19G 6
  22783353.2604   -9460972.02446  -7113485.92861
  21581879.541     1840057.930 8   1436829.74824
  24596495.947     -997460.502 5   -720031.94821
  24720615.4864   20877162.03345  16267893.86961
  21462448.666   -15729509.924 7 -12212181.35623
 91  4 30 22 50 15.0020000  0  5G13G 2G15G19G 6
  22774838.4084   -9505713.33846  -7148349.14161
  21584571.3854    1854202.70748   1447851.65964
  24596426.189     -997823.199 5   -720314.53421
  24729856.4554   20925746.21945  16305751.56461
  21460825.814   -15738040.245 7 -12218828.34823
 91  4 30 22 50 30.0020000  0  5G13G 2G15G19G 6
  22766344.1744   -9550363.75246  -7183141.51661
  21587271.7994    1868393.54948   1458909.46764
  24596382.025     -998057.855 5   -720497.32321
  24739112.2914   20974376.76044  16343645.35561
  21459215.596   -15746497.688 7 -12225418.54023
 91  4 30 22 50 45.0020000  0  5G13G 2G15G19G 6
  22757864.3854   -9594918.98746  -7217859.73861
  21589981.252     1882634.586 8   1470006.39024
  24596361.6114    -998160.39545
  24748375.5414   21023057.56844  16381578.32861
  21457621.338   -15754877.857 7 -12231948.52123
 91  4 30 22 51  0.0020000  0  5G13G 2G15G19G 6
  22749405.2444   -9639380.73946  -7252505.10761
  21592701.2294    1896923.39048   1481140.53064
  24596368.0804    -998132.65645
  24757652.400    21071786.315 4  16419548.65121
  21456042.010   -15763182.731 7 -12238419.82823
 91  4 30 22 51 15.0020000  0  5G13G 2G15G19G 6
  22740961.4554   -9683748.06546  -7287076.90061
  21595429.5104    1911260.70548   1492312.47764
  24596402.400     -997973.661 5
  24766934.682    21120563.767 4  16457556.92321
  21454475.518   -15771411.285 7 -12244831.66423
 91  4 30 22 51 30.0020000  0  5G13G 2G15G19G 6
  22732536.6504   -9728017.56646  -7321572.46861
  21598167.861     1925649.618 8   1503524.62524
  24596451.8144    -997680.40745
  24776230.1584   21169392.79045  16495605.38161
  21452923.791   -15779560.323 7 -12251181.54723
 91  4 30 22 51 45.0020000  0  5G13G 2G15G19G 6
  22724131.7054   -9772190.75746  -7355992.98361
  21600914.4864    1940088.09448   1514775.39564
  24596538.6894    -997254.39245   -719871.06361
  24785529.049    21218271.211 5  16533692.34321
  21451389.408   -15787631.619 7 -12257470.84823
 91  4 30 22 52  0.0020000  0  5G13G 2G15G19G 6
  22715742.2684   -9816269.56346  -7390339.96161
  21603671.7684    1954574.03648   1526063.14964
  24596642.7524    -996697.64445   -719437.18161
  24794838.6744   21267196.83644  16571816.07761
  21449867.619   -15795626.993 7 -12263700.98923
 91  4 30 22 52 15.0020000  0  5G13G 2G15G19G 6
  22707374.0414   -9860252.55346  -7424612.26661
  21606437.877     1969108.255 8   1537388.52624
  24596771.705     -996009.243 5   -718900.75321
  24804152.869    21316170.556 4  16609977.28221
  21448360.650   -15803545.076 7 -12269870.90723
 91  4 30 22 52 30.0020000  0  5G13G 2G15G19G 6
  22699021.2834   -9904139.09146  -7458809.41961
  21609212.7914    1983691.06748   1548751.76064
  24596926.955     -995188.909 5   -718261.48721
  24813484.9394   21365192.73944  16648176.26561
  21446869.775   -15811385.305 7 -12275980.15123
 91  4 30 22 52 45.0020000  0  5G13G 2G15G19G 6
  22690688.9794   -9947926.97746  -7492929.70461
  21611997.2604    1998324.33348   1560154.31464
  24597107.1194    -994234.38945   -717517.64561
  24822821.6194   21414264.81444  16686414.10361
  21445390.963   -15819145.726 7 -12282027.22223
 91  4 30 22 53  0.0020000  0  5G13G 2G15G19G 6
  22682374.7754   -9991617.27946  -7526973.94661
  21614791.5574    2013006.53248   1571594.99664
  24597315.807     -993146.952 5   -716670.23821
  24832171.580    21463385.536 4  16724689.87421
  21443929.760   -15826827.368 7 -12288012.90223
 91  4 30 22 53 15.0020000  0  5G13G 2G15G19G 6
  22674079.5574  -10035210.41446  -7560942.47661
  21617593.5644    2027736.79548   1583073.12964
  24597549.5964    -991927.19245   -715719.75761
  24841527.174    21512553.740 4  16763002.62921
  21442483.010   -15834431.014 7 -12293937.79723
 91  4 30 22 53 30.0020000  0  5G13G 2G15G19G 6
  22665803.182   -10078704.836 6  -7594834.09021
  21620406.2754    2042516.32548   1594589.65364
  24597805.1824    -990573.99545   -714665.27461
  24850890.6974   21561770.63344  16801353.33161
  21441051.643   -15841955.121 7 -12299800.71723
 91  4 30 22 53 45.0020000  0  5G13G 2G15G19G 6
  22657545.361   -10122097.669 6  -7628646.53421
  21623228.7684    2057347.55048   1606146.46064
  24598087.236     -989084.548 5   -713504.64621
  24860269.1194   21611038.73744  16839743.93461
  21439635.525   -15849396.900 7 -12305599.48723
 91  4 30 22 54  0.0020000  0  5G13G 2G15G19G 6
  22649306.986   -10165393.343 6  -7662383.28521
  21626059.330     2072225.715 8   1617739.84724
  24598399.8854    -987463.67146   -712241.58461
  24869654.744    21660353.010 4  16878170.49721
  21438233.697   -15856760.735 7 -12311337.52123
 91  4 30 22 54 15.0020000  0  5G13G 2G15G19G 6
  22641086.861   -10208588.304 6  -7696041.56221
  21628900.3304    2087154.06148   1629372.33064
  24598730.1894    -985707.85545   -710873.38261
  24879045.471    21709716.790 4  16916635.64021
  21436846.533   -15864043.264 7 -12317012.20323
 91  4 30 22 54 30.0020000  0  5G13G 2G15G19G 6
  22632884.8774  -10251685.47246  -7729623.63261
  21631750.4084    2102129.11148   1641041.20964
  24599091.127     -983820.236 5   -709402.48921
  24888449.2754   21759126.57144  16955136.64961
  21435475.791   -15871247.433 7 -12322625.82023
 91  4 30 22 54 45.0020000  0  5G13G 2G15G19G 6
  22624702.010   -10294682.109 6  -7763127.36321
  21634610.1044    2117153.55948   1652748.57864
  24599476.4164    -981798.12145   -707826.78561
  24897859.213    21808584.724 4  16993675.32221
  21434121.783   -15878370.634 7 -12328176.34923
 91  4 30 22 55  0.0020000  0  5G13G 2G15G19G 6
  22616539.7754  -10337578.44246  -7796552.93461
  21637477.1274    2132226.57248   1664493.78864
  24599887.6664    -979642.13046   -706146.77561
  24907282.510    21858090.538 4  17032251.15621
  21432780.869   -15885413.131 7 -12333663.98423
 91  4 30 22 55 15.0020000  0  5G13G 2G15G19G 6
  22608396.994   -10380374.495 6  -7829900.36521
  21640355.8694    2147347.68148   1676276.48064
  24600319.135     -977352.401 5   -704362.52521
  24916710.877    21907643.653 4  17070863.84521
  21431456.768   -15892375.034 7 -12339088.83723
 91  4 30 22 55 30.0020000  0  5G13G 2G15G19G 6
  22600270.596   -10423069.510 6  -7863169.06321
  21643241.1584    2162517.22348   1688096.90964
  24600779.7994    -974928.67845   -702473.88461
  24926154.236    21957243.974 4  17109513.31421
  21430148.557   -15899255.928 7 -12344450.55423
 91  4 30 22 55 45.0020000  0  5G13G 2G15G19G 6
  22592164.908   -10465661.128 6  -7896357.21021
  21646137.9164    2177737.30748   1699956.71964
  24601266.564     -972368.481 5   -700478.87321
  24935598.518    22006893.809 4  17148201.38821
  21428854.166   -15906053.311 7 -12349747.20223
 91  4 30 22 56  0.0020000  0  5G13G 2G15G19G 6
  22584080.7444  -10508152.24046  -7929467.03361
  21649043.9944    2193004.59648   1711853.31664
  24601783.2054    -969675.05145   -698380.07361
  24945054.9474   22056589.62044  17186925.26361
  21427574.979   -15912770.256 7 -12354981.16823
 91  4 30 22 56 15.0020000  0  5G13G 2G15G19G 6
  22576014.4324  -10550543.53946  -7962499.08761
  21651957.4324    2208318.14248   1723785.95664
  24602322.8464    -966849.29745   -696178.16361
  24954521.9944   22106330.32244  17225684.11561
  21426312.127   -15919407.532 7 -12360153.05523
 91  4 30 22 56 30.0020000  0  5G13G 2G15G19G 6
  22567966.447   -10592829.921 6  -7995449.37921
  21654881.4324    2223682.74048   1735758.37264
  24602883.7214    -963886.14545   -693869.17961
  24963998.416    22156120.444 4  17264481.46921
  21425066.814   -15925959.953 7 -12365258.82323
 91  4 30 22 56 45.0020000  0  5G13G 2G15G19G 6
  22559939.5254  -10635009.81646  -8028316.70661
  21657814.7684    2239099.46748   1747771.41664
  24603475.0184    -960784.28245   -691452.09861
  24973481.3544   22205961.16044  17303318.25861
  21423835.268   -15932426.229 7 -12370297.46123
 91  4 30 22 57  0.0020000  0  5G13G 2G15G19G 6
  22551933.400   -10677087.631 6  -8061104.48221
  21660757.2604    2254563.57548   1759821.37664
  24604091.025     -957548.597 5   -688930.74221
  24982975.150    22255847.704 4  17342190.73621
  21422619.682   -15938810.747 7 -12375272.39623
 91  4 30 22 57 15.0020000  0  5G13G 2G15G19G 6
  22543944.9634  -10719061.86746  -8093811.56061
  21663709.9794    2270076.31248   1771909.22764
  24604734.6974    -954177.63745   -686303.98961
  24992474.947    22305781.324 4  17381099.92021
  21421419.471   -15945112.020 7 -12380182.46523
 91  4 30 22 57 30.0020000  0  5G13G 2G15G19G 6
  22535976.916   -10760932.517 6  -8126437.90621
  21666670.3224    2285637.25648   1784034.64464
  24605400.9634    -950671.75845   -683572.11461
  25001989.3774   22355761.45343  17420045.33561
  21420237.143   -15951330.305 7 -12385027.86923
 91  4 30 22 57 45.0020000  0  5G13G 2G15G19G 6
  22528029.9864  -10802696.31346  -8158980.99961
  21669641.2364    2301249.26148   1796199.85064
  24606092.0724    -947027.78645   -680732.62961
  25011505.557    22405790.985 4  17459029.25521
  21419070.588   -15957462.237 7 -12389805.98023
 91  4 30 22 58  0.0020000  0  5G13G 2G15G19G 6
  22520101.229   -10844359.977 6  -8191446.05521
  21672620.4794    2316905.16548   1808399.26164
  24606811.018     -943252.680 5   -677790.97121
  25021034.760    22455862.539 4  17498045.90821
  21417918.463   -15963514.858 7 -12394522.28923
 91  4 30 22 58 15.0020000  0  5G13G 2G15G19G 6
  22512192.8694  -10885916.26646  -8223827.46561
  21675609.7604    2332612.03748   1820638.38364
  24607554.1974    -939339.38045   -674741.63261
  25030571.7754   22505983.14344  17537100.78861
  21416785.3074  -15969480.76247 -12399171.03663
 91  4 30 22 58 30.0020000  0  4G13G 2G15G 6
  22504304.9084  -10927367.42646  -8256126.94661
  21678606.9004    2348367.13048   1832915.08364
  24608324.127     -935290.262 5   -671586.46521
  21415665.096   -15975362.436 7 -12403754.14123
 91  4 30 22 58 45.0020000  0  4G13G 2G15G 6
  22496437.7604  -10968710.80146  -8288342.44361
  21681614.9554    2364172.56848   1845231.01164
  24609120.885     -931103.124 5   -668323.73121
  21414562.377   -15981157.370 7 -12408269.65723
 91  4 30 22 59  0.0020000  0  4G13G 2G15G 6
  22488590.3694  -11009947.90446  -8320475.13361
  21684632.0804    2380026.42548   1857584.66864
  24609946.3384    -926779.48845   -664954.62461
  21413475.244   -15986867.066 7 -12412718.75623
 91  4 30 22 59 15.0020000  0  4G13G 2G15G 6
  22480764.908   -11051072.820 6  -8352520.40621
  21687659.5644    2395934.47248   1869980.55264
  24610796.018     -922313.502 5   -661474.61021
  21412406.213   -15992485.724 7 -12417096.91223
 91  4 30 22 59 30.0020000  0  4G13G 2G15G 6
  22472960.2604  -11092085.97446  -8384478.59061
  21690696.5024    2411895.91148   1882418.04264
  24611671.9794    -917706.11245   -657884.40861
  21411353.604   -15998013.905 7 -12421404.57123
 91  4 30 22 59 45.0020000  0  4G13G 2G15G 6
  22465178.1194  -11132982.59346  -8416345.96861
  21693745.4244    2427915.18048   1894900.59564
  24612578.510     -912952.644 5   -654180.36721
  21410320.166   -16003446.824 7 -12425637.99823
 91  4 30 23  0  0.0020000  0  4G13G 2G15G 6
  22457418.2294  -11173763.50446  -8448123.18061
  21696805.0024    2443990.90148   1907427.13264
  24613508.479     -908054.255 5   -650363.42221
  21409304.932   -16008785.575 7 -12429798.04923
 91  4 30 23  0 15.0020000  0  4G13G 2G15G 6
  22449678.783   -11214428.510 6  -8479810.08521
  21699875.1354    2460123.08648   1919997.67164
  24614466.9004    -903011.02345   -646433.60661
  21408306.221   -16014029.866 7 -12433884.49323
 91  4 30 23  0 30.0020000  0  4G13G 2G15G 6
  22441962.4084  -11254978.06746  -8511407.01961
  21702954.9864    2476310.93648   1932611.58764
  24615455.8774    -897823.61245   -642391.43461
  21407325.189   -16019180.267 7 -12437897.77723
 91  4 30 23  0 45.0020000  0  4G13G 2G15G 6
  22434268.6044  -11295404.25746  -8542907.83261
  21706048.2524    2492561.99748   1945274.75864
  24616472.479     -892484.224 5   -638230.83721
  21406363.932   -16024228.817 7 -12441831.70023
 91  4 30 23  1  0.0020000  0  4G13G 2G15G 6
  22426599.3934  -11335708.82546  -8574313.86461
  21709150.9634    2508874.12048   1957985.51164
  24617516.385     -886994.944 5   -633953.45721
  21405424.127   -16029177.386 7 -12445687.70923
 91  4 30 23  1 15.0020000  0  4G13G 2G15G 6
  22418950.8854  -11375901.37846  -8605632.61461
  21712264.8384    2525237.47948   1970736.18764
  24618588.4794    -881365.43545   -629566.80061
  21404499.502   -16034035.587 7 -12449473.30523
 91  4 30 23  1 30.0020000  0  4G13G 2G15G 6
  22411322.8614  -11415984.02746  -8636865.73161
  21715388.2214    2541649.59748   1983524.85864
  24619686.127     -875597.946 5   -625072.63721
  21403590.393   -16038805.691 7 -12453190.25423
 91  4 30 23  1 45.0020000  0  4G13G 2G15G 6
  22403716.2444  -11455957.63846  -8668013.87661
  21718520.7364    2558109.31648   1996350.62164
  24620808.1974    -869693.73945   -620471.92061
  21402700.3544  -16043488.56847 -12456839.23563
 91  4 30 23  2  0.0020000  0  4G13G 2G15G 6
  22396131.5184  -11495822.12846  -8699076.99861
  21721661.7754    2574616.17748   2009213.11964
  24621958.197     -863653.081 5   -615764.89921
  21401826.385   -16048084.329 7 -12460420.33423
 91  4 30 23  2 15.0020000  0  4G13G 2G15G 6
  22388563.8694  -11535579.63146  -8730056.74861
  21724811.4394    2591167.93748   2022110.59964
  24623132.658     -857477.927 5   -610953.07521
  21400966.8854  -16052594.97147 -12463935.10863
 91  4 30 23  2 30.0020000  0  4G13G 2G15G 6
  22381020.1664  -11575233.29846  -8760955.59761
  21727968.3144    2607760.81948   2035040.12464
  24624332.5104    -851172.12445   -606039.44261
  21400123.947   -16057023.950 7 -12467386.24523
 91  4 30 23  2 45.0020000  0  4G13G 2G15G 6
  22373494.1354  -11614778.93346  -8791770.25561
  21731135.5254    2624398.63748   2048004.66664
  24625557.939     -844731.504 5   -601020.74921
  21399298.455   -16061367.261 7 -12470770.62423
 91  4 30 23  3  0.0020000  0  4G13G 2G15G 6
  22365988.5254  -11654219.83746  -8822503.31061
  21734309.3614    2641077.91348   2061001.51264
  24626807.463     -838159.626 5   -595899.78721
  21398487.150   -16065628.098 7 -12474090.74123
 91  4 30 23  3 15.0020000  0  4G13G 2G15G 6
  22358502.9714  -11693551.14446  -8853150.96561
  21737491.8304    2657803.17048   2074034.18964
  24628084.9864    -831451.93645   -590672.98561
  21397692.119   -16069801.630 7 -12477342.82723
 91  4 30 23  3 30.0020000  0  4G13G 2G15G 6
  22351039.338   -11732776.423 6  -8883716.00721
  21740681.2444    2674570.50848   2087099.65364
  24629388.205     -824611.998 5   -585343.15721
  21396914.994   -16073891.590 7 -12480529.79423
 91  4 30 23  3 45.0020000  0  4G13G 2G15G 6
  22343596.291   -11771894.413 6  -8914197.44021
  21743881.932     2691380.703 8   2100198.51924
  24630716.439     -817639.223 5   -579909.80221
  21396152.885   -16077896.846 7 -12483650.75423
 91  4 30 23  4  0.0020000  0  4G13G 2G15G 6
  22336172.2914  -11810901.55047  -8944592.50461
  21747089.4474    2708237.16648   2113333.43364
  24632065.9944    -810529.74745   -574369.92661
  21395407.275   -16081813.610 7 -12486702.76323
 91  4 30 23  4 15.0020000  0  4G13G 2G15G 6
  22328769.8614  -11849801.11347  -8974903.73161
  21750303.4794    2725136.29748   2126501.59764
  24633446.6824    -803287.48545   -568726.57261
  21394677.932   -16085645.314 7 -12489688.48923
 91  4 30 23  4 30.0020000  0  4G13G 2G15G 6
  22321387.033   -11888594.731 6  -9005132.40721
  21753528.4944    2742076.06948   2139701.42764
  24634846.5104    -795914.18545   -562981.12261
  21393964.307   -16089393.827 7 -12492609.39123
 91  4 30 23  4 45.0020000  0  4G13G 2G15G 6
  22314024.604   -11927284.826 7  -9035280.41821
  21756758.3464    2759053.54048   2152930.63264
  24636272.354     -788412.720 5   -557135.81121
  21393266.564   -16093061.569 7 -12495467.35523
 91  4 30 23  5  0.0020000  0  4G13G 2G15G 6
  22306683.2134  -11965867.99546  -9065345.11061
  21759997.9554    2776071.78248   2166191.60764
  24637726.783     -780779.644 5   -551187.94621
  21392585.080   -16096645.322 7 -12498259.87323
 91  4 30 23  5 15.0020000  0  4G13G 2G15G 6
  22299360.3854  -12004345.60446  -9095327.55061
  21763242.3144    2793129.25248   2179483.14864
  24639199.822     -773016.303 5   -545138.56821
  21391918.729   -16100146.197 7 -12500987.81023
 91  4 30 23  5 30.0020000  0  4G13G 2G15G 6
  22292058.3934  -12042719.52547  -9125229.19561
  21766495.7364    2810223.61848   2192803.43764
  24640708.7684    -765125.32445   -538989.74361
  21391267.455   -16103566.457 7 -12503652.93023
 91  4 30 23  5 45.0020000  0  4G13G 2G15G 6
  22284776.588   -12080990.533 7  -9155050.65221
  21769756.0574    2827353.80148   2206151.63564
  24642229.111     -757107.378 5   -532741.96021
  21390630.783   -16106906.783 7 -12506255.76723
 91  4 30 23  6  0.0020000  0  4G13G 2G15G 6
  22277512.0884  -12119156.95246  -9184790.60361
  21773022.5104    2844521.39848   2219528.98764
  24643782.260     -748961.007 5   -526394.10221
  21390012.744   -16110165.515 7 -12508795.01723
 91  4 30 23  6 15.0020000  0  4G13G 2G15G 6
  22270271.174   -12157212.861 7  -9214444.44321
  21776297.5414    2861732.03848   2232939.88264
  24645361.6664    -740680.58245   -519941.80061
  21389409.369   -16113336.643 7 -12511266.00723
 91  4 30 23  6 30.0020000  0  4G13G 2G15G 6
  22263048.354   -12195163.040 7  -9244015.90521
  21779580.1354    2878980.43048   2246380.19264
  24646957.721     -732271.173 5   -513388.98521
  21388821.979   -16116425.248 7 -12513672.69723
 91  4 30 23  6 45.0020000  0  4G13G 2G15G 6
  22255847.721   -12233007.239 7  -9273504.78021
  21782871.0644    2896266.54448   2259849.89664
  24648581.7684    -723732.85145   -506735.72161
  21388247.908   -16119431.003 7 -12516014.82823
 91  4 30 23  7  0.0020000  0  4G13G 2G15G 6
  22248666.752   -12270745.620 7  -9302911.20021
  21786166.4864    2913589.71648   2273348.48064
  24650233.541     -715066.025 5   -499982.33521
  21387690.330   -16122354.247 7 -12518292.66523
 91  4 30 23  7 15.0020000  0  4G13G 2G15G 6
  22241505.002   -12308374.086 7  -9332231.97721
  21789469.9164    2930953.72148   2286878.87564
  24651903.2054    -706266.60445   -493125.61061
  21387152.775   -16125191.086 7 -12520503.17623
 91  4 30 23  7 30.0020000  0  4G13G 2G15G 6
  22234365.861   -12345893.960 7  -9361468.13521
  21792782.5644    2948356.95048   2300439.83764
  24653608.5104    -697336.45145   -486167.04061
  21386629.111   -16127942.590 7 -12522647.19523
 91  4 30 23  7 45.0020000  0  4G13G 2G15G 6
  22227245.947   -12383307.196 7  -9390621.20321
  21796101.1274    2965797.22348   2314029.66864
  24655327.775     -688277.559 5   -479108.12421
  21386121.713   -16130610.938 7 -12524726.41123
 91  4 30 23  8  0.0020000  0  4G13G 2G15G 6
  22220146.971   -12420607.244 7  -9419686.06621
  21799428.4714    2983280.80748   2327653.24764
  24657080.158     -679083.586 5   -471943.95721
  21385629.783   -16133189.516 7 -12526735.67923
 91  4 30 23  8 15.0020000  0  4G13G 2G15G 6
  22213071.135   -12457797.784 7  -9448665.60321
  21802762.6114    3000803.81448   2341307.53964
  24658857.361     -669758.763 5   -464677.86121
  21385154.6504  -16135682.13647 -12528677.97163
 91  4 30 23  8 30.0020000  0  4G13G 2G15G 6
  22206014.666   -12494877.151 7  -9477558.51321
  21806105.3464    3018367.43548   2354993.48564
  24660650.346     -660301.460 5   -457308.51521
  21384699.463   -16138087.218 7 -12530552.04823
 91  4 30 23  8 45.0020000  0  4G13G 2G15G 6
  22198980.150   -12531844.738 7  -9506364.32221
  21809455.8224    3035972.21548   2368711.49964
  24662478.7604    -650711.21845   -449835.57561
  21384257.604   -16140404.129 7 -12532357.41923
 91  4 30 23  9  0.0020000  0  4G13G 2G15G 6
  22191967.393   -12568700.334 7  -9535082.86721
  21812813.2054    3053617.84848   2382461.34764
  24664333.3774    -640988.10346   -442259.12261
  21383832.6194  -16142632.73847 -12534093.98163
 91  4 30 23  9 15.0020000  0  4G13G 2G15G 6
  22184975.877   -12605441.493 7  -9563712.23621
  21816178.1274    3071306.40748   2396244.64064
  24666207.283     -631130.103 6   -434577.54221
  21383426.354   -16144770.610 7 -12535759.84623
 91  4 30 23  9 30.0020000  0  4G13G 2G15G 6
  22178005.486   -12642064.606 7  -9592249.62221
  21819552.7364    3089041.04448   2410063.84664
  24668110.572     -621133.886 6   -426788.26421
  21383037.666   -16146814.440 7 -12537352.43823
 91  4 30 23  9 45.0020000  0  4G13G 2G15G 6
  22171058.432   -12678576.379 7  -9620700.25321
  21822934.6744    3106814.86448   2423913.58364
  24670035.689     -611006.308 5   -418896.62321
  21382665.275   -16148770.848 7 -12538876.89323
 91  4 30 23 10  0.0020000  0  4G13G 2G15G 6
  22164130.752   -12714970.741 7  -9649059.39221
  21826325.5104    3124633.54448   2437798.27564
  24671989.955     -600741.307 6   -410897.91021
  21382311.0184  -16150633.79447 -12540328.52963
 91  4 30 23 10 15.0020000  0  4G13G 2G15G 6
  22157229.916   -12751241.277 7  -9677322.04421
  21829726.9324    3142503.43048   2451722.86364
  24673965.604     -590332.745 5   -402787.32421
  21381974.6504  -16152396.90547 -12541702.37063
 91  4 30 23 10 30.0020000  0  4G13G 2G15G 6
  22150349.908   -12787391.825 7  -9705491.19421
  21833136.9634    3160420.31748   2465684.07564
  24675975.7834    -579784.95946   -394568.26261
  21381656.275   -16154064.041 7 -12543001.42523
 91  4 30 23 10 45.0020000  0  4G13G 2G15G 6
  22143492.666   -12823425.067 7  -9733568.94521
  21836554.0494    3178381.20748   2479679.57764
  24678010.244     -569100.791 5   -386242.91521
  21381359.447   -16155637.954 7 -12544227.84023
 91  4 30 23 11  0.0020000  0  4G13G 2G15G 6
  22136658.549   -12859341.428 7  -9761555.62421
  21839979.4554    3196385.36948   2493708.80164
  24680070.057     -558280.852 5   -377811.78421
  21381077.041   -16157119.064 7 -12545381.93523
 91  4 30 23 11 15.0020000  0  4G13G 2G15G 6
  22129847.3074  -12895136.18047  -9789447.53761
  21843415.9554    3214437.00048   2507775.01264
  24682152.6744    -547320.55545   -369271.28561
  21380812.455   -16158502.774 7 -12546460.13323
 91  4 30 23 11 30.0020000  0  4G13G 2G15G 6
  22123059.127   -12930812.164 7  -9817246.90521
  21846858.7134    3232533.39648   2521876.10764
  24684267.924     -536223.119 5   -360623.92521
  21380568.5964  -16159791.75847 -12547464.52563
 91  4 30 23 11 45.0020000  0  4G13G 2G15G 6
  22116292.135   -12966368.689 7  -9844953.18521
  21850311.2524    3250674.65948   2536012.15964
  24686401.1584    -524988.38645   -351869.58461
  21380339.807   -16160985.649 7 -12548394.81923
 91  4 30 23 12  0.0020000  0  4G13G 2G15G 6
  22109546.721   -13001806.172 7  -9872566.70721
  21853770.5254    3268860.17648   2550182.69764
  24688569.229     -513616.808 5   -343008.60921
  21380132.119   -16162084.760 7 -12549251.25623
 91  4 30 23 12 15.0020000  0  4G13G 2G15G 6
  22102826.557   -13037124.222 7  -9900087.16521
  21857241.1894    3287090.05148   2564387.79464
  24690756.596     -502108.038 5   -334040.72021
  21379939.9474  -16163088.58447 -12550033.44263
 91  4 30 23 12 30.0020000  0  4G13G 2G15G 6
  22096128.8614  -13072323.28447  -9927514.90561
  21860718.0254    3305363.48048   2578626.83264
  24692974.018     -490463.088 5   -324966.70321
  21379768.314   -16163997.995 7 -12550742.06023
 91  4 30 23 12 45.0020000  0  4G13G 2G15G 6
  22089454.7294  -13107401.18147  -9954848.23661
  21864204.7994    3323682.46048   2592901.37264
  24695214.361     -478679.685 5   -315784.80521
  21379611.533   -16164810.760 7 -12551375.37023
 91  4 30 23 13  0.0020000  0  4G13G 2G15G 6
  22082799.588   -13142360.815 7  -9982089.40421
  21867698.0024    3342043.76048   2607208.88064
  24697485.8854    -466761.14945   -306497.64161
  21379477.377   -16165529.618 7 -12551935.50823
 91  4 30 23 13 15.0020000  0  4G13G 2G15G 6
  22076171.6504  -13177203.30547 -10009239.29961
  21871199.7994    3360445.96748   2621548.26864
  24699776.760     -454708.909 5   -297106.27821
  21379357.166   -16166155.810 7 -12552423.43423
 91  4 30 23 13 30.0020000  0  4G13G 2G15G 6
  22069563.619   -13211924.996 7 -10036295.05721
  21874710.8934    3378892.51148   2635922.20564
  24702097.6434    -442519.35345   -287607.91161
  21379256.354   -16166685.611 7 -12552836.25123
 91  4 30 23 13 45.0020000  0  4G13G 2G15G 6
  22062978.0964  -13246531.41747 -10063261.00561
  21878228.1744    3397377.54848   2650326.13464
  24704445.182     -430198.579 5   -278007.29721
  21379171.721   -16167124.710 7 -12553178.39023
 91  4 30 23 14  0.0020000  0  4G13G 2G15G 6
  22056417.275   -13281019.550 7 -10090134.77621
  21881752.3934    3415903.81748   2664762.19664
  24706810.4164    -417743.50645   -268302.05361
  21379107.135   -16167470.007 7 -12553447.43323
 91  4 30 23 14 15.0020000  0  4G13G 2G15G 6
  22049874.1584  -13315392.84747 -10116919.06961
  21885285.2444    3434467.50148   2679227.40964
  24709209.104     -405158.136 5   -258495.25121
  21379056.854   -16167724.993 7 -12553646.11423
 91  4 30 23 14 30.0020000  0  4G13G 2G15G 6
  22043355.5414  -13349648.61947 -10143611.78161
  21888826.1194    3453070.89748   2693723.56864
  24711628.4324    -392439.90045   -248584.92661
  21379025.424   -16167887.189 7
 91  4 30 23 14 45.0020000  0  4G13G 2G15G 6
  22036857.8934  -13383790.06947 -10170215.41561
  21892373.3224    3471710.48048   2708247.92264
  24714071.080     -379592.506 6   -238573.95321
  21379012.393   -16167960.079 7
 91  4 30 23 15  0.0020000  0  4G13G 2G15G 6
  22030384.1504  -13417814.12647 -10196727.56861
  21895927.4324    3490389.24848   2722802.81063
  24716542.486     -366612.825 5   -228459.90021
  21379016.557   -16167940.174 7
 91  4 30 23 15 15.0020000  0  4G13G 2G15G 6
  22023931.0724  -13451722.89747 -10223149.89861
  21899488.8304    3509104.84448   2737386.39264
  24719038.104     -353503.266 6   -218244.63821
  21379039.275   -16167829.815 7
 91  4 30 23 15 30.0020000  0  4G13G 2G15G 6
  22017500.5184  -13485516.25047 -10249482.29161
  21903058.2524    3527857.18248   2751998.60564
  24721551.713     -340264.153 5   -207928.43721
  21379078.838   -16167628.909 7
 91  4 30 23 15 45.0020000  0  4G13G 2G15G 6
  22011093.5104  -13519188.72847 -10275720.49361
  21906633.8854    3546651.43748   2766643.48364
  24724101.924     -326890.030 5   -197507.02821
  21379131.854   -16167331.961 7
 91  4 30 23 16  0.0020000  0  4G13G 2G15G 6
  22004706.5334  -13552746.15047 -10301869.03661
  21910216.6584    3565481.21948   2781316.04564
  24726665.9864    -313387.10845   -186985.26261
  21379205.166   -16166944.939 7 -12553038.18123
 91  4 30 23 16 15.0020000  0  4G13G 2G15G 6
  21998343.9164  -13586187.68447 -10327927.28261
  21913807.0964    3584347.35648   2796016.93264
  24729264.2754    -299754.36145   -176362.31461
  21379298.979   -16166466.841 7 -12552665.62623
 91  4 30 23 16 30.0020000  0  4G13G 2G15G 6
  21992002.5964  -13619510.12847 -10353892.73261
  21917405.4554    3603252.54048   2810748.24564
  24731881.400     -285989.312 5   -165636.29621
  21379407.830   -16165894.699 7 -12552219.78723
 91  4 30 23 16 45.0020000  0  4G13G 2G15G 6
  21985683.6354  -13652711.33847 -10379763.71261
  21921010.6974    3622198.80048   2825511.57064
  24734522.1584    -272090.21445   -154805.81861
  21379531.5724  -16165226.47147 -12551699.08163
 91  4 30 23 17  0.0020000  0  4G13G 2G15G 6
  21979389.0184  -13685792.02047 -10405540.77661
  21924623.0414    3641185.23648   2840306.19464
  24737198.7604    -258057.85245   -143871.50761
  21379677.994   -16164462.699 7 -12551103.92323
 91  4 30 23 17 15.0020000  0  4G13G 2G15G 6
  21973117.2914  -13718751.95147 -10431223.75161
  21928242.5414    3660211.98048   2855132.23164
  24739889.9244    -243892.09445   -132833.26461
  21379845.385   -16163602.978 7 -12550433.99923
 91  4 30 23 17 30.0020000  0  4G13G 2G15G 6
  21966867.6744  -13751592.76147 -10456813.90561
  21931870.8934    3679276.80448   2869987.94164
  24742616.330     -229595.131 5   -121692.78521
  21380024.6974  -16162649.27347 -12549690.84063
 91  4 30 23 17 45.0020000  0  4G13G 2G15G 6
  21960640.4944  -13784314.19147 -10482311.03061
  21935506.4794    3698379.85148   2884873.43064
  24745360.268     -215166.669 5   -110449.82021
  21380222.6504  -16161601.20747 -12548874.16263
 91  4 30 23 18  0.0020000  0  4G13G 2G15G 6
  21954436.627   -13816914.626 7 -10507713.88921
  21939148.5184    3717522.16548   2899789.52064
  24748135.0414    -200605.64445    -99103.56461
  21380441.979   -16160457.395 7 -12547982.87023
 91  4 30 23 18 15.0020000  0  4G13G 2G15G 6
  21948256.1974  -13849394.38047 -10533022.70261
  21942798.4794    3736703.39848   2914735.93263
  24750927.939     -185912.333 5    -87654.20821
  21380677.2444  -16159218.06047 -12547017.14563
 91  4 30 23 18 30.0020000  0  4G13G 2G15G 6
  21942097.557   -13881755.141 7 -10558238.80421
  21946456.7914    3755921.70848   2929711.24163
  24753747.783     -171088.722 5    -76103.32621
  21380929.2834  -16157884.84947 -12545978.27563
 91  4 30 23 18 45.0020000  0  4G13G 2G15G 6
  21935964.572   -13913992.436 7 -10583358.69221
  21950121.2524    3775181.59948   2944718.94964
  24756591.8224    -156130.65545    -64447.68061
  21381204.1974  -16156453.16247 -12544862.66563
 91  4 30 23 19  0.0020000  0  4G13G 2G15G 6
  21929852.361   -13946107.556 7 -10608383.39021
  21953794.6744    3794481.30048   2959757.68264
  24759466.580     -141039.494 5    -52688.32921
  21381493.1744  -16154924.41247 -12543671.42263
 91  4 30 23 19 15.0020000  0  4G13G 2G15G 6
  21923763.400   -13978103.245 7 -10633315.01421
  21957473.0334    3813817.23148   2974824.64364
  24762363.689     -125818.572 5    -40827.87121
  21381803.2834  -16153301.83247 -12542407.06963
 91  4 30 23 19 30.0020000  0  4G13G 2G15G 6
  21917698.221   -14009977.153 7 -10658151.74321
  21961162.2524    3833191.92348   2989921.80664
  24765281.5964    -110465.60345    -28864.51161
  21382128.7754  -16151582.71347 -12541067.49063
 91  4 30 23 19 45.0020000  0  4G13G 2G15G 6
  21911655.471   -14041730.197 7 -10682894.29921
  21964853.6114    3852604.31148   3005048.34364
  24768234.0964     -94982.03646    -16799.39561
  21382475.8384  -16149768.03847 -12539653.45063
 91  4 30 23 20  0.0020000  0  4G13G 2G15G 6
  21905637.439   -14073358.688 7 -10707539.79521
  21968556.6974    3872057.86848   3020206.95764
  24771200.8224     -79364.20745     -4629.65461
  21382839.1974  -16147854.02347 -12538162.00663
 91  4 30 23 20 15.0020000  0  4G13G 2G15G 6
  21899640.854   -14104863.573 7 -10732088.97921
  21972266.8934    3891551.35148   3035396.68464
  24774203.8774     -63613.37645      7643.70061
  21383223.1894  -16145841.70647 -12536593.95963
 91  4 30 23 20 30.0020000  0  4G13G 2G15G 6
  21893669.447   -14136247.099 7 -10756543.60021
  21975982.0494    3911082.16948   3050615.50264
  24777221.7444     -47732.09245     20018.73661
  21383624.4474  -16143733.34547 -12534951.07263
 91  4 30 23 20 45.0020000  0  4G13G 2G15G 6
  21887718.838   -14167510.864 7 -10780904.89821
  21979706.1974    3930648.71248   3065862.16264
  24780267.682      -31722.020 5     32494.13521
  21384042.1824  -16141530.49247 -12533234.56163
 91  4 30 23 21  0.0020000  0  4G13G 2G15G 6
  21881794.611   -14198648.434 7 -10805167.85821
  21983437.8464    3950256.91348   3081141.27963
  24783342.2054     -15576.97045     45074.69261
  21384480.8544  -16139226.85847 -12531439.51263
 91  4 30 23 21 15.0020000  0  4G13G 2G15G 6
  21875893.111   -14229660.812 7 -10829333.26921
  21987175.8934    3969905.70648   3096452.02464
  24786439.2444        701.53545     57759.26261
  21384938.9164  -16136823.42647 -12529566.70363
 91  4 30 23 21 30.0020000  0  4G13G 2G15G 6
  21870014.643   -14260550.730 7 -10853403.26121
  21990921.4474    3989592.08448   3111792.06164
  24789559.744       17110.584 5     70545.53121
  21385414.9554  -16134322.89447 -12527618.22963
 91  4 30 23 21 45.0020000  0  4G13G 2G15G 6
  21864161.369   -14291315.095 7 -10877375.41821
  21994676.0644    4009318.80748   3127163.53564
  24792705.8224      33652.88945     83435.64361
  21385910.2834  -16131722.31047 -12525591.79163
 91  4 30 23 22  0.0020000  0  4G13G 2G15G 6
  21858331.596   -14321953.999 7 -10901249.81321
  21998436.9394    4029085.49248   3142566.14964
  24795880.6194      50328.16545     96429.37761
  21386423.8144  -16129021.74047 -12523487.44263
 91  4 30 23 22 15.0020000  0  4G13G 2G15G 6
  21852521.854   -14352469.918 7 -10925028.37721
  22002207.3464    4048889.48648   3157997.83564
  24799080.041       67133.795 5    109524.68221
  21386955.869   -16126223.645 7 -12521307.09923
 91  4 30 23 22 30.0020000  0  4G13G 2G15G 6
  21846740.072   -14382858.832 7 -10948707.97521
  22005983.8384    4068734.55748   3173461.53064
  24802304.1584      84073.51345    122724.48261
  21387507.2834  -16123323.92647 -12519047.56963
 91  4 30 23 22 45.0020000  0  4G13G 2G15G 6
  21840982.229   -14413117.949 7 -10972286.43521
  22009766.8854    4088623.36248   3188959.30064
  24805557.244      101149.834 5    136030.71721
  21388078.9164  -16120319.97447 -12516706.81863
 91  4 30 23 23  0.0020000  0  4G13G 2G15G 6
  21835249.119   -14443249.551 7 -10995765.53421
  22013560.3774    4108553.56448   3204489.33364
  24808827.869      118360.465 5    149441.61721
  21388670.9944  -16117213.88347 -12514286.48263
 91  4 30 23 23 15.0020000  0  4G13G 2G15G 6
  21829537.900   -14473255.783 7 -11019146.93721
  22017360.6194    4128522.71048   3220049.71064
  24812126.5024     135702.95345    162955.24961
  21389280.2684  -16114007.81447 -12511788.23963
 91  4 30 23 23 30.0020000  0  4G13G 2G15G 6
  21823852.338   -14503136.205 7 -11042430.31121
  22021166.9794    4148530.70648   3235640.35864
  24815454.604      153177.130 5    176571.51221
  21389909.3774  -16110701.59247 -12509211.95963
 91  4 30 23 23 45.0020000  0  4G13G 2G15G 6
  21818189.5104  -14532886.83047 -11065612.54761
  22024983.8694    4168581.44548   3251264.31164
  24818805.3934     170786.70245    190293.26261
  21390558.9474  -16107291.18147 -12506554.48563
 91  4 30 23 24  0.0020000  0  4G13G 2G15G 6
  21812552.4554  -14562512.29647 -11088697.25761
  22028806.9714    4188670.25748   3266917.92864
  24822176.893      188526.883 5    204116.77521
  21391226.6744  -16103780.98847 -12503819.26363
 91  4 30 23 24 15.0020000  0  4G13G 2G15G 6
  21806939.6354  -14592009.23947 -11111681.81861
  22032636.3144    4208800.13948   3282603.54964
  24825582.8614     206400.80945    218044.52861
  21391914.0254  -16100167.93447 -12501003.89463
 91  4 30 23 24 30.0020000  0  4G13G 2G15G 6
  21801350.8694  -14621376.09547 -11134565.01562
  22036473.9794    4228972.43948   3298322.22563
  24829011.666      224409.736 5    232077.46821
  21392621.6664  -16096450.29547 -12498107.02763
 91  4 30 23 24 45.0020000  0  4G13G 2G15G 6
  21795787.8934  -14650615.85847 -11157349.17662
  22040321.1824    4249183.80648   3314071.34264
  24832457.2054     242550.39445    246213.05261
  21393346.7294  -16092631.15947 -12495131.07263
 91  4 30 23 25  0.0020000  0  4G13G 2G15G 6
  21790247.088   -14679729.181 7 -11180034.81221
  22044174.9004    4269433.60348   3329850.40564
  24835937.658      260821.971 5    260450.65821
  21394094.0494  -16088711.22147 -12492076.57563
 91  4 30 23 25 15.0020000  0  4G13G 2G15G 6
  21784731.0414  -14708715.39847 -11202621.40662
  22048035.5414    4289722.35648   3345659.81864
  24839441.7604     279224.69345    274790.44361
  21394859.6274  -16084689.60847 -12488942.84563
 91  4 30 23 25 30.0020000  0  4G13G 2G15G 6
  21779240.3854  -14737571.62347 -11225106.70962
  22051902.7684    4310052.39148   3361501.40264
  24842968.8384     297761.26745    289234.52461
  21395644.4474  -16080563.69947 -12485727.84863
 91  4 30 23 25 45.0020000  0  4G13G 2G15G 6
  21773773.6044  -14766302.55847 -11247494.37962
  22055780.1194    4330419.11748   3377371.57564
  24846514.689      316427.015 5    303779.27521
  21396448.9864  -16076337.96347 -12482435.06163
 91  4 30 23 26  0.0020000  0  4G13G 2G15G 6
  21768330.080   -14794904.330 7 -11269781.40821
  22059663.3854    4350826.34348   3393273.30464
  24850094.5964     335225.42045    318427.37361
  21397272.9244  -16072008.46647 -12479061.42563
 91  4 30 23 26 15.0020000  0  4G13G 2G15G 6
  21762912.1434  -14823375.94647 -11291967.01562
  22063555.5884    4371274.49348   3409206.92364
  24853699.6434     354157.00245    333179.23661
  21398115.5184  -16067574.38847 -12475606.29763
 91  4 30 23 26 30.0020000  0  4G13G 2G15G 6
  21757516.3074  -14851720.66247 -11314053.73962
  22067452.8614    4391760.03348   3425169.67664
  24857327.932      373217.982 5    348031.96121
  21398978.9944  -16063039.23647 -12472072.40863
 91  4 30 23 26 45.0020000  0  4G13G 2G15G 6
  21752149.6894  -14879935.54047 -11336039.29362
  22071357.5414    4412285.95548   3441163.89964
  24860980.3934     392411.60945    362988.03861
  21399862.5644  -16058399.77447 -12468457.23763
 91  4 30 23 27  0.0020000  0  4G13G 2G15G 6
  21746802.4944  -14908024.97047 -11357927.09762
  22075270.6584    4432847.51748   3457185.88664
  24864656.955      411733.114 5    378043.75321
  21400762.8144  -16053660.50247 -12464764.29663
 91  4 30 23 27 15.0020000  0  4G13G 2G15G 6
  21741482.3144  -14935985.83547 -11379714.72062
  22079191.7444    4453447.75048   3473238.01364
  24868356.5104     431185.12945    393201.17861
  21401684.6434  -16048818.21547 -12460991.08263
 91  4 30 23 27 30.0020000  0  4G13G 2G15G 6
  21736185.5494  -14963814.88047 -11401399.62462
  22083119.0334    4474089.66348   3489322.61864
  24872082.9864     450770.72045    408462.66561
  21402627.5884  -16043869.57347 -12457134.99963
 91  4 30 23 27 45.0020000  0  4G13G 2G15G 6
  21730915.5414  -14991515.89847 -11422984.76962
  22087053.9944    4494769.30348   3505436.61364
  24875839.314      470485.981 5    423825.21721
  21403587.8694  -16038818.45447 -12453199.05763
 91  4 30 23 28  0.0020000  0  4G13G 2G15G 6
  21725668.2524  -15019086.72347 -11444468.46262
  22090997.0184    4515488.39248   3521581.36064
  24879608.1354     490332.29645    439289.86461
  21404569.5574  -16033662.92347 -12449181.76163
 91  4 30 23 28 15.0030000  0  4G13G 2G15G 6
  21720446.4834  -15046528.60747 -11465851.68662
  22094947.6874    4536249.11148   3537758.54363
  24883416.8744     510311.77045    454858.28461
  21405570.1324  -16028401.78647 -12445082.17163
 91  4 30 23 28 30.0030000  0  4G13G 2G15G 6
  21715251.0694  -15073838.80547 -11487132.29662
  22098906.0934    4557047.39548   3553964.99864
  24887238.944      530420.577 5    470527.48721
  21406591.8664  -16023036.80747 -12440901.66363
 91  4 30 23 28 45.0030000  0  4G13G 2G15G 6
  21710077.0544  -15101019.56147 -11508312.03962
  22102870.9054    4577883.82448   3570201.17364
  24891093.4374     550658.89645    486297.60361
  21407631.6554  -16017567.98847 -12436640.24263
 91  4 30 23 29  0.0030000  0  4G13G 2G15G 6
  21704930.3434  -15128067.83947 -11529388.55762
  22106843.1244    4598761.24648   3586469.29263
  24894970.0694     571029.70745    502170.96361
  21408694.9134  -16011992.35047 -12432295.58463
 91  4 30 23 29 15.0030000  0  4G13G 2G15G 6
  21699807.3044  -15154984.39747 -11550362.43362
  22110824.1714    4619678.83948   3602768.71263
  24898864.038      591532.201 5    518146.92721
  21409774.8514  -16006310.69547 -12427868.31763
 91  4 30 23 29 30.0030000  0  4G13G 2G15G 6
  21694710.4604  -15181770.88747 -11571234.95662
  22114812.0624    4640635.03848   3619098.21463
  24902796.663      612164.534 5    534224.10121
  21410876.1084  -16000524.42047 -12423359.52763
 91  4 30 23 29 45.0030000  0  4G13G 2G15G 6
  21689638.2964  -15208426.18547 -11592005.25462
  22118807.8584    4661630.80548   3635458.54863
  24906746.2184     632927.28445    550402.84961
  21411996.0934  -15994632.35947 -12418768.30563
 91  4 30 23 30  0.0030000  0  4G13G 2G15G 6
  21684592.1014  -15234948.47247 -11612671.90662
  22122809.1794    4682667.55348
  24910726.5544     653822.26745
  21413139.3974  -15988632.81747 -12414093.33263
 91  4 30 23 30 15.0030000  0  4G13G 2G15G 6
  21679570.5224  -15261335.88247 -11633233.46362
  22126822.3514    4703746.74348
  24914719.4214     674851.01445
  21414300.4524  -15982524.10947 -12409333.29763
 91  4 30 23 30 30.0030000  0  4G13G 2G15G 6
  21674573.6084  -15287593.05147 -11653693.53062
  22130840.4214    4724863.65648
  24918754.5154     696008.63145
  21415482.6634  -15976310.56247 -12404491.56863
 91  4 30 23 30 45.0030000  0  3G13G 2G 6
  21669602.2574  -15313716.09747 -11674049.08861
  22134866.6164    4746022.12248   3701217.98664
  21416685.5154  -15969988.35047 -12399565.16963
 91  4 30 23 31  0.0030000  0  3G13G 2G 6
  21664658.2964  -15339699.64547 -11694295.94962
  22138901.6794    4767227.42248   3717741.59363
  21417911.4914  -15963552.27447 -12394550.03863
 91  4 30 23 31 15.0030000  0  3G13G 2G 6
  21659739.1084  -15365546.40247 -11714436.21462
  22142946.2724    4788476.81148   3734299.55563
  21419156.1794  -15957004.79147 -12389448.10063
 91  4 30 23 31 30.0030000  0  3G13G 2G 6
  21654848.6634  -15391251.12147 -11734465.80762
  22146998.0934    4809775.14448   3750895.65463
  21420425.0224  -15950340.67047 -12384255.27863
 91  4 30 23 31 45.0030000  0  3G13G 2G 6
  21649983.1244  -15416816.94447 -11754387.16962
  22151059.6164    4831119.15448   3767527.34263
  21421713.9684  -15943563.02047 -12378973.98763
 91  4 30 23 32  0.0030000  0  3G13G 2G 6
  21645144.4374  -15442241.19547 -11774198.21562
  22155129.9134    4852511.19048   3784196.45863
  21423026.5854  -15936669.32647 -12373602.27563
 91  4 30 23 32 15.0030000  0  3G13G 2G 6
  21640333.6404  -15467522.01847 -11793897.49962
  22159211.4374    4873952.95748   3800904.32363
  21424359.9604  -15929657.76247 -12368138.71363
 91  4 30 23 32 30.0030000  0  3G13G 2G 6
  21635548.7654  -15492660.93047 -11813486.20762
  22163301.7264    4895442.67648   3817649.55663
  21425717.3664  -15922529.76347 -12362584.42463
 91  4 30 23 32 45.0030000  0  3G13G 2G 6
  21630793.2804  -15517654.94247 -11832962.00662
  22167399.1874    4916983.54848   3834434.64663
  21427097.1714  -15915282.25647 -12356937.01063
 91  4 30 23 33  0.0030000  0  3G13G 2G 6
  21626065.0854  -15542505.51747 -11852326.03462
  22171508.9914    4938573.85248   3851258.25663
  21428498.0934  -15907916.64747 -12351197.56863
 91  4 30 23 33 15.0030000  0  3G13G 2G 6
  21621363.9684  -15567213.02847 -11871578.58662
  22175626.0384    4960212.76548   3868119.73763
  21429922.5464  -15900433.51647 -12345366.55363
 91  4 30 23 33 30.0030000  0  3G13G 2G 6
  21616689.2494  -15591776.97947 -11890719.26962
  22179751.6794    4981900.92348   3885019.59363
  21431368.9524  -15892832.13647 -12339443.39463
 91  4 30 23 33 45.0030000  0  3G13G 2G 6
  21612041.3664  -15616198.62047 -11909749.06362
  22183888.5854    5003636.93548   3901956.74063
  21432836.9374  -15885113.60847 -12333428.95163
 91  4 30 23 34  0.0030000  0  3G13G 2G 6
  21607421.882   -15640476.875 7 -11928667.13422
  22188035.2414    5025421.75348   3918931.91463
  21434328.5544  -15877276.98747 -12327322.48963
 91  4 30 23 34 15.0030000  0  3G13G 2G 6
  21602827.5384  -15664613.07047 -11947474.50162
  22192188.8974    5047253.75848   3935943.86063
  21435841.8514  -15869323.70547 -12321125.12363
 91  4 30 23 34 30.0030000  0  3G13G 2G 6
  21598261.429   -15688607.457 7 -11966171.37122
  22196353.2654    5069132.61948   3952992.31463
  21437377.7184  -15861253.86947 -12314836.93563
 91  4 30 23 34 45.0030000  0  3G13G 2G 6
  21593723.366   -15712458.583 7 -11984756.60922
  22200526.2654    5091059.62348   3970078.28463
  21438935.5304  -15853065.98447 -12308456.76163
 91  4 30 23 35  0.0030000  0  3G13G 2G 6
  21589211.499   -15736171.305 7 -12003233.99822
  22204706.4684    5113029.89748   3987197.96763
  21440515.6404  -15844764.88747 -12301988.37263
 91  4 30 23 35 15.0030000  0  3G13G 2G 6
  21584725.905   -15759741.591 7 -12021600.40522
  22208895.8194    5135047.06748   4004354.19963
  21442117.4214  -15836346.70247 -12295428.74563
 91  4 30 23 35 30.0030000  0  3G13G 2G 6
  21580264.921   -15783173.254 7 -12039858.78622
  22213093.7964    5157107.23148   4021543.93163
  21443741.4764  -15827815.08947 -12288780.73263
 91  4 30 23 35 45.0030000  0  3G13G 2G 6
  21575835.093   -15806462.169 7 -12058005.94322
  22217300.7724    5179214.13748   4038770.08163
  21445386.0304  -15819166.17347 -12282041.32263
 91  4 30 23 36  0.0030000  0  3G13G 2G 6
  21571430.522   -15829609.513 7 -12076042.78122
  22221516.2964    5201366.46248   4056031.62763
  21447054.6404  -15810401.08547 -12275211.37363
 91  4 30 23 36 15.0030000  0  3G13G 2G 6
  21567051.093   -15852616.215 7 -12093970.02622
  22225740.1164    5223563.43848   4073327.96563
  21448743.6404  -15801520.40747 -12268291.36063
 91  4 30 23 36 30.0030000  0  3G13G 2G 6
  21562702.390   -15875479.339 7 -12111785.40322
  22229972.8354    5245807.86348   4090661.27963
  21450458.0074  -15792521.29047 -12261279.05863
 91  4 30 23 36 45.0030000  0  3G13G 2G 6
  21558376.858   -15898204.422 7 -12129493.20522
  22234214.1164    5268094.05448   4108027.13563
  21452190.9524  -15783409.18047 -12254178.70463
 91  4 30 23 37  0.0030000  0  3G13G 2G 6
  21554079.0074  -15920787.68647 -12147090.50062
  22238462.9374    5290425.65048   4125428.37563
  21453947.5854  -15774180.40947 -12246987.44363
 91  4 30 23 37 15.0030000  0  3G13G 2G 6
  21549808.421   -15943231.185 7 -12164578.88922
  22242720.6554    5312800.56548   4142863.37163
  21455725.9294  -15764836.68147 -12239706.61163
 91  4 30 23 37 30.0030000  0  3G13G 2G 6
  21545564.624   -15965537.630 7 -12181960.48822
  22246986.9834    5335215.92548   4160329.88463
  21457523.5074  -15755380.89347 -12232338.46263
 91  4 30 23 37 45.0030000  0  3G13G 2G 6
  21541344.608   -15987707.032 7 -12199235.29322
  22251259.6244    5357671.40248   4177827.65763
  21459345.6554  -15745813.16647 -12224883.08663
 91  4 30 23 38  0.0030000  0  3G13G 2G 6
  21537154.405   -16009732.851 7 -12216398.21422
  22255540.8664    5380173.60348   4195361.84163
  21461188.2264  -15736126.79247 -12217335.26263
 91  4 30 23 38 15.0030000  0  3G13G 2G 6
  21532989.202   -16031617.614 7 -12233451.22422
  22259831.2184    5402719.87648   4212930.36263
  21463054.9764  -15726324.19347 -12209696.87363
 91  4 30 23 38 30.0030000  0  3G13G 2G 6
  21528851.632   -16053360.991 7 -12250394.06522
  22264131.1714    5425310.50848   4230533.45063
  21464941.7184  -15716405.03547 -12201967.65763
 91  4 30 23 38 45.0030000  0  3G13G 2G 6
  21524740.647   -16074964.014 7 -12267227.53622
  22268438.4134    5447944.13448   4248170.03863
  21466850.6084  -15706370.41147 -12194148.47263
 91  4 30 23 39  0.0030000  0  3G13G 2G 6
  21520656.187   -16096425.765 7 -12283950.93022
  22272753.3904    5470621.53948   4265840.73963
  21468783.0384  -15696219.47247 -12186238.63763
 91  4 30 23 39 15.0030000  0  3G13G 2G 6
  21516599.444   -16117748.455 7 -12300565.96022
  22277075.9054    5493340.54048   4283543.85663
  21470735.8744  -15685954.24547 -12178239.76263
 91  4 30 23 39 30.0030000  0  3G13G 2G 6
  21512568.647   -16138930.094 7 -12317071.08122
  22281408.1014    5516102.80948   4301280.68863
  21472711.2104  -15675572.74147 -12170150.27963
 91  4 30 23 39 45.0030000  0  3G13G 2G 6
  21508563.437   -16159972.182 7 -12333467.45822
  22285748.2104    5538906.85148   4319050.06963
  21474708.4054  -15665076.49547 -12161971.38763
 91  4 30 23 40  0.0030000  0  3G13G 2G 6
  21504586.116   -16180872.812 7 -12349753.62122
  22290095.4684    5561754.29348   4336853.27163
  21476727.4604  -15654463.58747 -12153701.58663
 91  4 30 23 40 15.0030000  0  3G13G 2G 6
  21500636.155   -16201629.557 7 -12365927.66022
  22294452.7184    5584647.61348   4354692.21963
  21478770.7264  -15643731.57147 -12145338.97363
 91  4 30 23 40 30.0030000  0  3G13G 2G 6
  21496713.085   -16222245.409 7 -12381991.91222
  22298815.8434    5607583.65148   4372564.45763
  21480834.8904  -15632883.34147 -12136885.80563
 91  4 30 23 40 45.0030000  0  3G13G 2G 6
  21492817.187   -16242721.424 7 -12397947.20422
  22303189.3974    5630561.26148   4390469.09563
  21482922.2024  -15621919.81147 -12128342.79163
 91  4 30 23 41  0.0030000  0  3G13G 2G 6
  21488948.124   -16263055.414 7 -12413791.82022
  22307569.7184    5653582.75348   4408407.91063
  21485030.2884  -15610838.79047 -12119708.22963
 91  4 30 23 41 15.0030000  0  3G13G 2G 6
  21485104.022   -16283248.102 7 -12429526.33322
  22311958.7264    5676647.23248   4426380.23263
  21487161.6164  -15599640.88247 -12110982.58463
 91  4 30 23 41 30.0030000  0  3G13G 2G 6
  21481288.897   -16303300.579 7 -12445151.59522
  22316356.2884    5699753.34048   4444384.99263
  21489314.8274  -15588327.28247 -12102166.78863
 91  4 30 23 41 45.0030000  0  3G13G 2G 6
  21477500.062   -16323210.302 7 -12460665.61622
  22320760.5154    5722903.62948   4462424.17563
  21491489.3194  -15576895.39047 -12093258.81963
 91  4 30 23 42  0.0030000  0  3G13G 2G 6
  21473738.022   -16342976.679 7 -12476067.93922
  22325175.8044    5746098.63248   4480498.20563
  21493686.6474  -15565344.55947 -12084258.17563
 91  4 30 23 42 15.0030000  0  3G13G 2G 6
  21470004.351   -16362600.041 7 -12491358.82322
  22329596.9684    5769337.77148   4498606.62463
  21495907.4054  -15553675.20347 -12075165.17163
 91  4 30 23 42 30.0030000  0  3G13G 2G 6
  21466297.538   -16382080.289 7 -12506538.19722
  22334028.0224    5792621.19848   4516749.55363
  21498150.3584  -15541887.12947 -12065979.66163
 91  4 30 23 42 45.0030000  0  3G13G 2G 6
  21462617.968   -16401417.085 7 -12521605.77722
  22338467.1554    5815949.13648   4534927.16763
  21500418.1474  -15529979.92947 -12056701.32463
 91  4 30 23 43  0.0030000  0  3G13G 2G 6
  21458964.741   -16420611.776 7 -12536562.63822
  22342914.3354    5839319.93848   4553138.17863
  21502705.0154  -15517955.00847 -12047331.26163
 91  4 30 23 43 15.0030000  0  3G13G 2G 6
  21455339.944   -16439663.481 7 -12551408.06822
  22347370.3044    5862734.64548   4571383.40763
  21505015.1084  -15505811.17347 -12037868.53163
 91  4 30 23 43 30.0030000  0  3G13G 2G 6
  21451741.7024  -16458573.14647 -12566142.83262
  22351833.0464    5886192.40648   4589662.18263
  21507349.1554  -15493549.33347 -12028313.85463
 91  4 30 23 43 45.0030000  0  3G13G 2G 6
  21448168.3044  -16477343.23847 -12580768.83662
  22356305.3434    5909690.45848   4607972.34463
  21509704.9834  -15481171.99447 -12018669.16863
 91  4 30 23 44  0.0030000  0  3G13G 2G 6
  21444624.929   -16495969.346 7 -12595282.64122
  22360784.8434    5933233.13648   4626317.28463
  21512081.6404  -15468674.75747 -12008931.05363
 91  4 30 23 44 15.0030000  0  3G13G 2G 6
  21441107.577   -16514450.020 7 -12609683.11722
  22365274.6084    5956821.47448   4644697.80063
  21514483.9214  -15456056.38347 -11999098.54963
 91  4 30 23 44 30.0030000  0  3G13G 2G 6
  21437619.054   -16532790.913 7 -12623974.67522
  22369770.4374    5980449.94548   4663109.59063
  21516906.6324  -15443322.25047 -11989175.84363
 91  4 30 23 44 45.0030000  0  3G13G 2G 6
  21434155.5694  -16550991.13347 -12638156.62362
  22374273.7104    6004119.42147   4681553.32863
  21519351.9764  -15430471.38047 -11979162.17763
 91  4 30 23 45  0.0030000  0  3G13G 2G 6
  21430719.3744  -16569048.71647 -12652227.43062
  22378786.3274    6027831.89747   4700030.57263
  21521819.3584  -15417501.63447 -11969055.88363
